<?xml version="1.0" encoding="UTF-8" standalone="no" ?>
<gpx xmlns="http://www.topografix.com/GPX/1/1" xmlns:xsi="http://www.w3.org/2001/XMLSchema-instance" xsi:schemaLocation="http://www.topografix.com/GPX/1/1 http://www.topografix.com/GPX/1/1/gpx.xsd" version="1.1" creator="VisuGPX - https://www.visugpx.com">
  <metadata>
    <name>Pic d'Escurets</name>
    <desc><![CDATA[<p>Type: VTT<br/>Heure de départ: 09:36 24 mars 2026<br/>Heure d'arrivée: 15:04 24 mars 2026<br/>Distance: 37,9 km (05:28)<br/>Temps déplacement: 04:25<br/>Vitesse moyenne: 6,93 km/h<br/>Vitesse en mouvement: 8,54 km/h<br/>Vitesse Max.: 35,95 km/h<br/>Altitude minimale: 396 m<br/>Altitude maximale: 1435 m<br/>Vitesse de montée: 467,2 m/h<br/>Vitesse de descente: 959,5 m/h<br/>Dénivelé positif: 1364 m<br/>Dénivelé négatif: 1355 m<br/>Temps de montée: 02:55<br/>Temps de descente: 01:24<br/></p><hr align="center" width="480" style="height: 2px; width: 517px"/>]]></desc>
  </metadata>
  <wpt lat="43.0869" lon="-0.42444">
    <ele>419</ele>
  </wpt>
  <wpt lat="43.08682" lon="-0.42446">
    <ele>419.1</ele>
    <desc><![CDATA[<p><br /><h3>Nom: Segment: 1</h3><br />Type: Indéfini<br/>Heure de départ: 09:36 24 mars 2026<br/>Heure d'arrivée: 15:04 24 mars 2026<br/>Distance: 37,9km (05:28)<br/>Temps déplacement: 04:25<br/>Vitesse moyenne: 6,93 km/h<br/>Vitesse en mouvement: 8,54 km/h<br/>Vitesse Max.: 35,95 km/h<br/>Altitude minimale: 396 m<br/>Altitude maximale: 1435 m<br/>Vitesse de montée: 467,2 m/h<br/>Vitesse de descente: 959,5 m/h<br/>Dénivelé positif: 1364 m<br/>Dénivelé négatif: 1355 m<br/>Temps de montée: 02:55<br/>Temps de descente: 01:24<br/></p>]]></desc>
  </wpt>
  <trk>
    <name><![CDATA[Pic de L'Escurets]]></name>
    <desc><![CDATA[<p>Type: VTT<br/>Heure de départ: 09:36 24 mars 2026<br/>Heure d'arrivée: 15:04 24 mars 2026<br/>Distance: 37,9 km (05:28)<br/>Temps déplacement: 04:25<br/>Vitesse moyenne: 6,93 km/h<br/>Vitesse en mouvement: 8,54 km/h<br/>Vitesse Max.: 35,95 km/h<br/>Altitude minimale: 396 m<br/>Altitude maximale: 1435 m<br/>Vitesse de montée: 467,2 m/h<br/>Vitesse de descente: 959,5 m/h<br/>Dénivelé positif: 1364 m<br/>Dénivelé négatif: 1355 m<br/>Temps de montée: 02:55<br/>Temps de descente: 01:24<br/></p><hr align="center" width="480" style="height: 2px; width: 517px"/>]]></desc>
    <extensions>
      <line xmlns="http://www.topografix.com/GPX/gpx_style/0/2">
        <color>0000FF</color>
        <width>4</width>
      </line>
    </extensions>
    <trkseg>
      <trkpt lat="43.0869" lon="-0.42444">
        <ele>412.15</ele>
        <time>2026-03-24T08:36:36.000Z</time>
      </trkpt>
      <trkpt lat="43.08685" lon="-0.4247">
        <ele>421.63</ele>
        <time>2026-03-24T08:40:30.000Z</time>
      </trkpt>
      <trkpt lat="43.08699" lon="-0.42491">
        <ele>420.73</ele>
        <time>2026-03-24T08:40:37.000Z</time>
      </trkpt>
      <trkpt lat="43.08716" lon="-0.425">
        <ele>420.17</ele>
        <time>2026-03-24T08:40:41.000Z</time>
      </trkpt>
      <trkpt lat="43.08735" lon="-0.42513">
        <ele>421.4</ele>
        <time>2026-03-24T08:40:46.000Z</time>
      </trkpt>
      <trkpt lat="43.0875" lon="-0.42527">
        <ele>419.76</ele>
        <time>2026-03-24T08:40:50.000Z</time>
      </trkpt>
      <trkpt lat="43.08767" lon="-0.42542">
        <ele>419.94</ele>
        <time>2026-03-24T08:40:54.000Z</time>
      </trkpt>
      <trkpt lat="43.08785" lon="-0.42557">
        <ele>418.53</ele>
        <time>2026-03-24T08:40:58.000Z</time>
      </trkpt>
      <trkpt lat="43.08802" lon="-0.42571">
        <ele>419.7</ele>
        <time>2026-03-24T08:41:02.000Z</time>
      </trkpt>
      <trkpt lat="43.08821" lon="-0.42588">
        <ele>419.71</ele>
        <time>2026-03-24T08:41:06.000Z</time>
      </trkpt>
      <trkpt lat="43.08839" lon="-0.42603">
        <ele>419.28</ele>
        <time>2026-03-24T08:41:10.000Z</time>
      </trkpt>
      <trkpt lat="43.08856" lon="-0.42618">
        <ele>419.21</ele>
        <time>2026-03-24T08:41:14.000Z</time>
      </trkpt>
      <trkpt lat="43.08871" lon="-0.42635">
        <ele>416.29</ele>
        <time>2026-03-24T08:41:18.000Z</time>
      </trkpt>
      <trkpt lat="43.08886" lon="-0.42653">
        <ele>417.41</ele>
        <time>2026-03-24T08:41:22.000Z</time>
      </trkpt>
      <trkpt lat="43.08902" lon="-0.42676">
        <ele>422.84</ele>
        <time>2026-03-24T08:41:27.000Z</time>
      </trkpt>
      <trkpt lat="43.08919" lon="-0.42697">
        <ele>421.39</ele>
        <time>2026-03-24T08:41:31.000Z</time>
      </trkpt>
      <trkpt lat="43.08933" lon="-0.42714">
        <ele>424.36</ele>
        <time>2026-03-24T08:41:35.000Z</time>
      </trkpt>
      <trkpt lat="43.08947" lon="-0.42733">
        <ele>424.92</ele>
        <time>2026-03-24T08:41:39.000Z</time>
      </trkpt>
      <trkpt lat="43.08965" lon="-0.42752">
        <ele>424.51</ele>
        <time>2026-03-24T08:41:43.000Z</time>
      </trkpt>
      <trkpt lat="43.08981" lon="-0.42772">
        <ele>423.48</ele>
        <time>2026-03-24T08:41:47.000Z</time>
      </trkpt>
      <trkpt lat="43.08996" lon="-0.42794">
        <ele>422.87</ele>
        <time>2026-03-24T08:41:51.000Z</time>
      </trkpt>
      <trkpt lat="43.0901" lon="-0.42815">
        <ele>421.51</ele>
        <time>2026-03-24T08:41:54.000Z</time>
      </trkpt>
      <trkpt lat="43.09025" lon="-0.42835">
        <ele>419.62</ele>
        <time>2026-03-24T08:41:58.000Z</time>
      </trkpt>
      <trkpt lat="43.0904" lon="-0.42855">
        <ele>417.46</ele>
        <time>2026-03-24T08:42:02.000Z</time>
      </trkpt>
      <trkpt lat="43.09055" lon="-0.42877">
        <ele>415.88</ele>
        <time>2026-03-24T08:42:06.000Z</time>
      </trkpt>
      <trkpt lat="43.09063" lon="-0.42906">
        <ele>415.9</ele>
        <time>2026-03-24T08:42:10.000Z</time>
      </trkpt>
      <trkpt lat="43.09073" lon="-0.4293">
        <ele>416.18</ele>
        <time>2026-03-24T08:42:14.000Z</time>
      </trkpt>
      <trkpt lat="43.09091" lon="-0.42939">
        <ele>417.85</ele>
        <time>2026-03-24T08:42:17.000Z</time>
      </trkpt>
      <trkpt lat="43.0911" lon="-0.42952">
        <ele>418.39</ele>
        <time>2026-03-24T08:42:21.000Z</time>
      </trkpt>
      <trkpt lat="43.09127" lon="-0.42973">
        <ele>419.59</ele>
        <time>2026-03-24T08:42:25.000Z</time>
      </trkpt>
      <trkpt lat="43.09143" lon="-0.4299">
        <ele>419.78</ele>
        <time>2026-03-24T08:42:29.000Z</time>
      </trkpt>
      <trkpt lat="43.09161" lon="-0.43008">
        <ele>419.59</ele>
        <time>2026-03-24T08:42:33.000Z</time>
      </trkpt>
      <trkpt lat="43.09176" lon="-0.43028">
        <ele>418.81</ele>
        <time>2026-03-24T08:42:37.000Z</time>
      </trkpt>
      <trkpt lat="43.09193" lon="-0.4305">
        <ele>418.91</ele>
        <time>2026-03-24T08:42:41.000Z</time>
      </trkpt>
      <trkpt lat="43.09211" lon="-0.43071">
        <ele>419.01</ele>
        <time>2026-03-24T08:42:45.000Z</time>
      </trkpt>
      <trkpt lat="43.09225" lon="-0.4309">
        <ele>418.37</ele>
        <time>2026-03-24T08:42:48.000Z</time>
      </trkpt>
      <trkpt lat="43.09243" lon="-0.43109">
        <ele>416.16</ele>
        <time>2026-03-24T08:42:52.000Z</time>
      </trkpt>
      <trkpt lat="43.09262" lon="-0.43126">
        <ele>414.11</ele>
        <time>2026-03-24T08:42:56.000Z</time>
      </trkpt>
      <trkpt lat="43.0928" lon="-0.43144">
        <ele>413.37</ele>
        <time>2026-03-24T08:43:00.000Z</time>
      </trkpt>
      <trkpt lat="43.09299" lon="-0.43158">
        <ele>414.13</ele>
        <time>2026-03-24T08:43:04.000Z</time>
      </trkpt>
      <trkpt lat="43.09316" lon="-0.43173">
        <ele>414</ele>
        <time>2026-03-24T08:43:52.000Z</time>
      </trkpt>
      <trkpt lat="43.09333" lon="-0.43185">
        <ele>415.45</ele>
        <time>2026-03-24T08:43:57.000Z</time>
      </trkpt>
      <trkpt lat="43.09352" lon="-0.43201">
        <ele>414.92</ele>
        <time>2026-03-24T08:44:02.000Z</time>
      </trkpt>
      <trkpt lat="43.0937" lon="-0.43212">
        <ele>415.02</ele>
        <time>2026-03-24T08:44:06.000Z</time>
      </trkpt>
      <trkpt lat="43.0939" lon="-0.43219">
        <ele>416.11</ele>
        <time>2026-03-24T08:44:10.000Z</time>
      </trkpt>
      <trkpt lat="43.0941" lon="-0.43232">
        <ele>412.8</ele>
        <time>2026-03-24T08:44:14.000Z</time>
      </trkpt>
      <trkpt lat="43.09432" lon="-0.43238">
        <ele>414.7</ele>
        <time>2026-03-24T08:44:18.000Z</time>
      </trkpt>
      <trkpt lat="43.09453" lon="-0.43242">
        <ele>414.87</ele>
        <time>2026-03-24T08:44:22.000Z</time>
      </trkpt>
      <trkpt lat="43.09476" lon="-0.43249">
        <ele>412.75</ele>
        <time>2026-03-24T08:44:26.000Z</time>
      </trkpt>
      <trkpt lat="43.09494" lon="-0.43253">
        <ele>411.68</ele>
        <time>2026-03-24T08:44:30.000Z</time>
      </trkpt>
      <trkpt lat="43.09516" lon="-0.43256">
        <ele>410.54</ele>
        <time>2026-03-24T08:44:34.000Z</time>
      </trkpt>
      <trkpt lat="43.09537" lon="-0.43257">
        <ele>413.06</ele>
        <time>2026-03-24T08:44:38.000Z</time>
      </trkpt>
      <trkpt lat="43.09558" lon="-0.43261">
        <ele>412.53</ele>
        <time>2026-03-24T08:44:42.000Z</time>
      </trkpt>
      <trkpt lat="43.09579" lon="-0.43263">
        <ele>414.01</ele>
        <time>2026-03-24T08:44:46.000Z</time>
      </trkpt>
      <trkpt lat="43.096" lon="-0.43266">
        <ele>414.06</ele>
        <time>2026-03-24T08:44:50.000Z</time>
      </trkpt>
      <trkpt lat="43.09621" lon="-0.43268">
        <ele>413.91</ele>
        <time>2026-03-24T08:44:54.000Z</time>
      </trkpt>
      <trkpt lat="43.09642" lon="-0.43271">
        <ele>413.46</ele>
        <time>2026-03-24T08:44:58.000Z</time>
      </trkpt>
      <trkpt lat="43.09662" lon="-0.4328">
        <ele>412.22</ele>
        <time>2026-03-24T08:45:02.000Z</time>
      </trkpt>
      <trkpt lat="43.09682" lon="-0.43282">
        <ele>412.3</ele>
        <time>2026-03-24T08:45:06.000Z</time>
      </trkpt>
      <trkpt lat="43.09703" lon="-0.43281">
        <ele>413.51</ele>
        <time>2026-03-24T08:45:11.000Z</time>
      </trkpt>
      <trkpt lat="43.09722" lon="-0.43281">
        <ele>415.32</ele>
        <time>2026-03-24T08:45:15.000Z</time>
      </trkpt>
      <trkpt lat="43.09741" lon="-0.4328">
        <ele>416.23</ele>
        <time>2026-03-24T08:45:19.000Z</time>
      </trkpt>
      <trkpt lat="43.09761" lon="-0.43282">
        <ele>416.07</ele>
        <time>2026-03-24T08:45:23.000Z</time>
      </trkpt>
      <trkpt lat="43.0978" lon="-0.43283">
        <ele>415.33</ele>
        <time>2026-03-24T08:45:27.000Z</time>
      </trkpt>
      <trkpt lat="43.098" lon="-0.43283">
        <ele>414.86</ele>
        <time>2026-03-24T08:45:31.000Z</time>
      </trkpt>
      <trkpt lat="43.09819" lon="-0.43285">
        <ele>414.94</ele>
        <time>2026-03-24T08:45:35.000Z</time>
      </trkpt>
      <trkpt lat="43.09839" lon="-0.43287">
        <ele>414.81</ele>
        <time>2026-03-24T08:45:39.000Z</time>
      </trkpt>
      <trkpt lat="43.0986" lon="-0.4329">
        <ele>414.33</ele>
        <time>2026-03-24T08:45:43.000Z</time>
      </trkpt>
      <trkpt lat="43.09881" lon="-0.43292">
        <ele>413.57</ele>
        <time>2026-03-24T08:45:47.000Z</time>
      </trkpt>
      <trkpt lat="43.09901" lon="-0.43296">
        <ele>413.44</ele>
        <time>2026-03-24T08:45:51.000Z</time>
      </trkpt>
      <trkpt lat="43.09921" lon="-0.43301">
        <ele>412.88</ele>
        <time>2026-03-24T08:45:55.000Z</time>
      </trkpt>
      <trkpt lat="43.09941" lon="-0.43306">
        <ele>412.75</ele>
        <time>2026-03-24T08:45:59.000Z</time>
      </trkpt>
      <trkpt lat="43.09959" lon="-0.43314">
        <ele>412.53</ele>
        <time>2026-03-24T08:46:03.000Z</time>
      </trkpt>
      <trkpt lat="43.09979" lon="-0.43319">
        <ele>412.14</ele>
        <time>2026-03-24T08:46:08.000Z</time>
      </trkpt>
      <trkpt lat="43.09998" lon="-0.43327">
        <ele>410.72</ele>
        <time>2026-03-24T08:46:12.000Z</time>
      </trkpt>
      <trkpt lat="43.10017" lon="-0.43332">
        <ele>410.31</ele>
        <time>2026-03-24T08:46:16.000Z</time>
      </trkpt>
      <trkpt lat="43.10036" lon="-0.43337">
        <ele>410.8</ele>
        <time>2026-03-24T08:46:20.000Z</time>
      </trkpt>
      <trkpt lat="43.10058" lon="-0.43333">
        <ele>410.64</ele>
        <time>2026-03-24T08:46:25.000Z</time>
      </trkpt>
      <trkpt lat="43.10076" lon="-0.43318">
        <ele>411.05</ele>
        <time>2026-03-24T08:46:30.000Z</time>
      </trkpt>
      <trkpt lat="43.1009" lon="-0.43336">
        <ele>411.15</ele>
        <time>2026-03-24T08:46:35.000Z</time>
      </trkpt>
      <trkpt lat="43.10102" lon="-0.43355">
        <ele>410.85</ele>
        <time>2026-03-24T08:46:39.000Z</time>
      </trkpt>
      <trkpt lat="43.10116" lon="-0.43374">
        <ele>408.51</ele>
        <time>2026-03-24T08:46:43.000Z</time>
      </trkpt>
      <trkpt lat="43.10136" lon="-0.43376">
        <ele>407.23</ele>
        <time>2026-03-24T08:46:47.000Z</time>
      </trkpt>
      <trkpt lat="43.10156" lon="-0.43382">
        <ele>406.07</ele>
        <time>2026-03-24T08:46:51.000Z</time>
      </trkpt>
      <trkpt lat="43.10175" lon="-0.43389">
        <ele>407.11</ele>
        <time>2026-03-24T08:46:55.000Z</time>
      </trkpt>
      <trkpt lat="43.10195" lon="-0.43399">
        <ele>407.91</ele>
        <time>2026-03-24T08:47:00.000Z</time>
      </trkpt>
      <trkpt lat="43.10213" lon="-0.43401">
        <ele>408.51</ele>
        <time>2026-03-24T08:47:08.000Z</time>
      </trkpt>
      <trkpt lat="43.10233" lon="-0.43406">
        <ele>409.79</ele>
        <time>2026-03-24T08:47:13.000Z</time>
      </trkpt>
      <trkpt lat="43.10253" lon="-0.43413">
        <ele>409.76</ele>
        <time>2026-03-24T08:47:17.000Z</time>
      </trkpt>
      <trkpt lat="43.10272" lon="-0.43421">
        <ele>409.76</ele>
        <time>2026-03-24T08:47:21.000Z</time>
      </trkpt>
      <trkpt lat="43.10293" lon="-0.43431">
        <ele>409.03</ele>
        <time>2026-03-24T08:47:25.000Z</time>
      </trkpt>
      <trkpt lat="43.10313" lon="-0.43439">
        <ele>408.24</ele>
        <time>2026-03-24T08:47:29.000Z</time>
      </trkpt>
      <trkpt lat="43.10332" lon="-0.43446">
        <ele>408.75</ele>
        <time>2026-03-24T08:47:33.000Z</time>
      </trkpt>
      <trkpt lat="43.10351" lon="-0.43454">
        <ele>408.98</ele>
        <time>2026-03-24T08:47:37.000Z</time>
      </trkpt>
      <trkpt lat="43.10369" lon="-0.4346">
        <ele>408.83</ele>
        <time>2026-03-24T08:47:41.000Z</time>
      </trkpt>
      <trkpt lat="43.1039" lon="-0.43463">
        <ele>408.96</ele>
        <time>2026-03-24T08:47:46.000Z</time>
      </trkpt>
      <trkpt lat="43.10394" lon="-0.43491">
        <ele>411.67</ele>
        <time>2026-03-24T08:48:46.000Z</time>
      </trkpt>
      <trkpt lat="43.10392" lon="-0.43517">
        <ele>409.99</ele>
        <time>2026-03-24T08:48:52.000Z</time>
      </trkpt>
      <trkpt lat="43.10409" lon="-0.43529">
        <ele>410.69</ele>
        <time>2026-03-24T08:48:58.000Z</time>
      </trkpt>
      <trkpt lat="43.10429" lon="-0.43534">
        <ele>413.2</ele>
        <time>2026-03-24T08:49:03.000Z</time>
      </trkpt>
      <trkpt lat="43.10447" lon="-0.43545">
        <ele>414.78</ele>
        <time>2026-03-24T08:49:07.000Z</time>
      </trkpt>
      <trkpt lat="43.10457" lon="-0.43568">
        <ele>414.3</ele>
        <time>2026-03-24T08:49:11.000Z</time>
      </trkpt>
      <trkpt lat="43.10468" lon="-0.43592">
        <ele>415.75</ele>
        <time>2026-03-24T08:49:15.000Z</time>
      </trkpt>
      <trkpt lat="43.10479" lon="-0.43618">
        <ele>415.16</ele>
        <time>2026-03-24T08:49:20.000Z</time>
      </trkpt>
      <trkpt lat="43.10489" lon="-0.43645">
        <ele>412.3</ele>
        <time>2026-03-24T08:49:25.000Z</time>
      </trkpt>
      <trkpt lat="43.10497" lon="-0.4367">
        <ele>412.19</ele>
        <time>2026-03-24T08:49:29.000Z</time>
      </trkpt>
      <trkpt lat="43.10501" lon="-0.43694">
        <ele>411.56</ele>
        <time>2026-03-24T08:49:34.000Z</time>
      </trkpt>
      <trkpt lat="43.10508" lon="-0.43719">
        <ele>413.3</ele>
        <time>2026-03-24T08:49:39.000Z</time>
      </trkpt>
      <trkpt lat="43.10519" lon="-0.43739">
        <ele>413.26</ele>
        <time>2026-03-24T08:49:43.000Z</time>
      </trkpt>
      <trkpt lat="43.10531" lon="-0.4376">
        <ele>412.96</ele>
        <time>2026-03-24T08:49:47.000Z</time>
      </trkpt>
      <trkpt lat="43.10544" lon="-0.43781">
        <ele>413.26</ele>
        <time>2026-03-24T08:49:51.000Z</time>
      </trkpt>
      <trkpt lat="43.10558" lon="-0.43803">
        <ele>412.97</ele>
        <time>2026-03-24T08:49:55.000Z</time>
      </trkpt>
      <trkpt lat="43.10571" lon="-0.43821">
        <ele>412.29</ele>
        <time>2026-03-24T08:49:59.000Z</time>
      </trkpt>
      <trkpt lat="43.10579" lon="-0.43852">
        <ele>410.02</ele>
        <time>2026-03-24T08:50:03.000Z</time>
      </trkpt>
      <trkpt lat="43.10583" lon="-0.43878">
        <ele>410.9</ele>
        <time>2026-03-24T08:50:07.000Z</time>
      </trkpt>
      <trkpt lat="43.10582" lon="-0.43905">
        <ele>407.7</ele>
        <time>2026-03-24T08:50:10.000Z</time>
      </trkpt>
      <trkpt lat="43.10577" lon="-0.43932">
        <ele>406.01</ele>
        <time>2026-03-24T08:50:13.000Z</time>
      </trkpt>
      <trkpt lat="43.10571" lon="-0.43961">
        <ele>404.04</ele>
        <time>2026-03-24T08:50:16.000Z</time>
      </trkpt>
      <trkpt lat="43.10568" lon="-0.4399">
        <ele>404.19</ele>
        <time>2026-03-24T08:50:19.000Z</time>
      </trkpt>
      <trkpt lat="43.10565" lon="-0.4402">
        <ele>405.92</ele>
        <time>2026-03-24T08:50:22.000Z</time>
      </trkpt>
      <trkpt lat="43.10559" lon="-0.44053">
        <ele>405.65</ele>
        <time>2026-03-24T08:50:25.000Z</time>
      </trkpt>
      <trkpt lat="43.10561" lon="-0.44088">
        <ele>404.89</ele>
        <time>2026-03-24T08:50:28.000Z</time>
      </trkpt>
      <trkpt lat="43.10575" lon="-0.44116">
        <ele>407.06</ele>
        <time>2026-03-24T08:50:31.000Z</time>
      </trkpt>
      <trkpt lat="43.10595" lon="-0.44138">
        <ele>406.36</ele>
        <time>2026-03-24T08:50:34.000Z</time>
      </trkpt>
      <trkpt lat="43.10615" lon="-0.4416">
        <ele>405.64</ele>
        <time>2026-03-24T08:50:37.000Z</time>
      </trkpt>
      <trkpt lat="43.10635" lon="-0.44179">
        <ele>403.36</ele>
        <time>2026-03-24T08:50:40.000Z</time>
      </trkpt>
      <trkpt lat="43.10651" lon="-0.44202">
        <ele>400.88</ele>
        <time>2026-03-24T08:50:43.000Z</time>
      </trkpt>
      <trkpt lat="43.10666" lon="-0.44216">
        <ele>401.49</ele>
        <time>2026-03-24T08:50:45.000Z</time>
      </trkpt>
      <trkpt lat="43.10683" lon="-0.44238">
        <ele>402.12</ele>
        <time>2026-03-24T08:50:48.000Z</time>
      </trkpt>
      <trkpt lat="43.10695" lon="-0.44261">
        <ele>400.4</ele>
        <time>2026-03-24T08:50:50.000Z</time>
      </trkpt>
      <trkpt lat="43.10703" lon="-0.44284">
        <ele>398.96</ele>
        <time>2026-03-24T08:50:52.000Z</time>
      </trkpt>
      <trkpt lat="43.10719" lon="-0.44312">
        <ele>397.37</ele>
        <time>2026-03-24T08:50:55.000Z</time>
      </trkpt>
      <trkpt lat="43.10733" lon="-0.4434">
        <ele>396.82</ele>
        <time>2026-03-24T08:50:58.000Z</time>
      </trkpt>
      <trkpt lat="43.10749" lon="-0.4436">
        <ele>396.51</ele>
        <time>2026-03-24T08:51:01.000Z</time>
      </trkpt>
      <trkpt lat="43.10762" lon="-0.44385">
        <ele>398.14</ele>
        <time>2026-03-24T08:51:05.000Z</time>
      </trkpt>
      <trkpt lat="43.10771" lon="-0.44409">
        <ele>398.4</ele>
        <time>2026-03-24T08:51:10.000Z</time>
      </trkpt>
      <trkpt lat="43.10774" lon="-0.44436">
        <ele>398.04</ele>
        <time>2026-03-24T08:51:16.000Z</time>
      </trkpt>
      <trkpt lat="43.10776" lon="-0.44464">
        <ele>397.84</ele>
        <time>2026-03-24T08:51:22.000Z</time>
      </trkpt>
      <trkpt lat="43.10779" lon="-0.44489">
        <ele>398.83</ele>
        <time>2026-03-24T08:51:28.000Z</time>
      </trkpt>
      <trkpt lat="43.10776" lon="-0.44514">
        <ele>398.99</ele>
        <time>2026-03-24T08:51:35.000Z</time>
      </trkpt>
      <trkpt lat="43.10769" lon="-0.44539">
        <ele>401.11</ele>
        <time>2026-03-24T08:52:18.000Z</time>
      </trkpt>
      <trkpt lat="43.1077" lon="-0.44566">
        <ele>399</ele>
        <time>2026-03-24T08:52:23.000Z</time>
      </trkpt>
      <trkpt lat="43.10773" lon="-0.44594">
        <ele>398.91</ele>
        <time>2026-03-24T08:52:28.000Z</time>
      </trkpt>
      <trkpt lat="43.10779" lon="-0.44622">
        <ele>399.49</ele>
        <time>2026-03-24T08:52:33.000Z</time>
      </trkpt>
      <trkpt lat="43.10788" lon="-0.44649">
        <ele>400.51</ele>
        <time>2026-03-24T08:52:38.000Z</time>
      </trkpt>
      <trkpt lat="43.10794" lon="-0.44677">
        <ele>400.32</ele>
        <time>2026-03-24T08:52:43.000Z</time>
      </trkpt>
      <trkpt lat="43.10798" lon="-0.44706">
        <ele>399.73</ele>
        <time>2026-03-24T08:52:48.000Z</time>
      </trkpt>
      <trkpt lat="43.10802" lon="-0.44735">
        <ele>400.07</ele>
        <time>2026-03-24T08:52:53.000Z</time>
      </trkpt>
      <trkpt lat="43.10808" lon="-0.44763">
        <ele>400.05</ele>
        <time>2026-03-24T08:52:58.000Z</time>
      </trkpt>
      <trkpt lat="43.10816" lon="-0.4479">
        <ele>400.66</ele>
        <time>2026-03-24T08:53:03.000Z</time>
      </trkpt>
      <trkpt lat="43.10827" lon="-0.44815">
        <ele>400.9</ele>
        <time>2026-03-24T08:53:08.000Z</time>
      </trkpt>
      <trkpt lat="43.10841" lon="-0.44834">
        <ele>400.99</ele>
        <time>2026-03-24T08:53:13.000Z</time>
      </trkpt>
      <trkpt lat="43.10857" lon="-0.44847">
        <ele>401.58</ele>
        <time>2026-03-24T08:53:18.000Z</time>
      </trkpt>
      <trkpt lat="43.10875" lon="-0.4486">
        <ele>405.27</ele>
        <time>2026-03-24T08:53:25.000Z</time>
      </trkpt>
      <trkpt lat="43.10893" lon="-0.44873">
        <ele>406.53</ele>
        <time>2026-03-24T08:53:32.000Z</time>
      </trkpt>
      <trkpt lat="43.10909" lon="-0.44884">
        <ele>406.02</ele>
        <time>2026-03-24T08:53:38.000Z</time>
      </trkpt>
      <trkpt lat="43.10925" lon="-0.44898">
        <ele>404.23</ele>
        <time>2026-03-24T08:53:44.000Z</time>
      </trkpt>
      <trkpt lat="43.10942" lon="-0.44911">
        <ele>405.05</ele>
        <time>2026-03-24T08:53:51.000Z</time>
      </trkpt>
      <trkpt lat="43.10958" lon="-0.44928">
        <ele>402.35</ele>
        <time>2026-03-24T08:53:58.000Z</time>
      </trkpt>
      <trkpt lat="43.1097" lon="-0.44948">
        <ele>405.88</ele>
        <time>2026-03-24T08:54:05.000Z</time>
      </trkpt>
      <trkpt lat="43.10977" lon="-0.44974">
        <ele>404.44</ele>
        <time>2026-03-24T08:54:11.000Z</time>
      </trkpt>
      <trkpt lat="43.1098" lon="-0.44998">
        <ele>402.94</ele>
        <time>2026-03-24T08:54:17.000Z</time>
      </trkpt>
      <trkpt lat="43.1098" lon="-0.45023">
        <ele>404.03</ele>
        <time>2026-03-24T08:54:24.000Z</time>
      </trkpt>
      <trkpt lat="43.10972" lon="-0.45048">
        <ele>399.33</ele>
        <time>2026-03-24T08:54:29.000Z</time>
      </trkpt>
      <trkpt lat="43.10953" lon="-0.45066">
        <ele>401.12</ele>
        <time>2026-03-24T08:54:34.000Z</time>
      </trkpt>
      <trkpt lat="43.10938" lon="-0.45084">
        <ele>402.36</ele>
        <time>2026-03-24T08:54:38.000Z</time>
      </trkpt>
      <trkpt lat="43.10929" lon="-0.45111">
        <ele>403.27</ele>
        <time>2026-03-24T08:54:42.000Z</time>
      </trkpt>
      <trkpt lat="43.10926" lon="-0.4514">
        <ele>403.37</ele>
        <time>2026-03-24T08:54:46.000Z</time>
      </trkpt>
      <trkpt lat="43.10921" lon="-0.45167">
        <ele>403.3</ele>
        <time>2026-03-24T08:54:50.000Z</time>
      </trkpt>
      <trkpt lat="43.10915" lon="-0.45192">
        <ele>401.66</ele>
        <time>2026-03-24T08:54:53.000Z</time>
      </trkpt>
      <trkpt lat="43.10911" lon="-0.45218">
        <ele>399.7</ele>
        <time>2026-03-24T08:54:56.000Z</time>
      </trkpt>
      <trkpt lat="43.10908" lon="-0.45244">
        <ele>400.76</ele>
        <time>2026-03-24T08:54:59.000Z</time>
      </trkpt>
      <trkpt lat="43.10905" lon="-0.45271">
        <ele>400.6</ele>
        <time>2026-03-24T08:55:02.000Z</time>
      </trkpt>
      <trkpt lat="43.109" lon="-0.45296">
        <ele>400.17</ele>
        <time>2026-03-24T08:55:05.000Z</time>
      </trkpt>
      <trkpt lat="43.10893" lon="-0.45326">
        <ele>401.82</ele>
        <time>2026-03-24T08:55:09.000Z</time>
      </trkpt>
      <trkpt lat="43.10881" lon="-0.45348">
        <ele>398.24</ele>
        <time>2026-03-24T08:55:12.000Z</time>
      </trkpt>
      <trkpt lat="43.1087" lon="-0.45372">
        <ele>397</ele>
        <time>2026-03-24T08:55:15.000Z</time>
      </trkpt>
      <trkpt lat="43.10862" lon="-0.45401">
        <ele>396.32</ele>
        <time>2026-03-24T08:55:18.000Z</time>
      </trkpt>
      <trkpt lat="43.10853" lon="-0.45427">
        <ele>396.92</ele>
        <time>2026-03-24T08:55:21.000Z</time>
      </trkpt>
      <trkpt lat="43.10842" lon="-0.45453">
        <ele>396.24</ele>
        <time>2026-03-24T08:55:24.000Z</time>
      </trkpt>
      <trkpt lat="43.10834" lon="-0.45479">
        <ele>396.39</ele>
        <time>2026-03-24T08:55:27.000Z</time>
      </trkpt>
      <trkpt lat="43.1083" lon="-0.45504">
        <ele>396.64</ele>
        <time>2026-03-24T08:55:30.000Z</time>
      </trkpt>
      <trkpt lat="43.10819" lon="-0.45527">
        <ele>396.19</ele>
        <time>2026-03-24T08:55:34.000Z</time>
      </trkpt>
      <trkpt lat="43.10804" lon="-0.45542">
        <ele>401.52</ele>
        <time>2026-03-24T08:55:42.000Z</time>
      </trkpt>
      <trkpt lat="43.10787" lon="-0.45551">
        <ele>404.62</ele>
        <time>2026-03-24T08:55:55.000Z</time>
      </trkpt>
      <trkpt lat="43.10771" lon="-0.45562">
        <ele>409.45</ele>
        <time>2026-03-24T08:57:15.000Z</time>
      </trkpt>
      <trkpt lat="43.10752" lon="-0.45566">
        <ele>414.67</ele>
        <time>2026-03-24T08:57:29.000Z</time>
      </trkpt>
      <trkpt lat="43.10735" lon="-0.45576">
        <ele>417.72</ele>
        <time>2026-03-24T08:57:40.000Z</time>
      </trkpt>
      <trkpt lat="43.10717" lon="-0.45589">
        <ele>416.89</ele>
        <time>2026-03-24T08:57:47.000Z</time>
      </trkpt>
      <trkpt lat="43.10705" lon="-0.4561">
        <ele>413.91</ele>
        <time>2026-03-24T08:57:53.000Z</time>
      </trkpt>
      <trkpt lat="43.10699" lon="-0.45639">
        <ele>412.93</ele>
        <time>2026-03-24T08:57:58.000Z</time>
      </trkpt>
      <trkpt lat="43.10692" lon="-0.45666">
        <ele>410.89</ele>
        <time>2026-03-24T08:58:03.000Z</time>
      </trkpt>
      <trkpt lat="43.10687" lon="-0.45693">
        <ele>409.12</ele>
        <time>2026-03-24T08:58:07.000Z</time>
      </trkpt>
      <trkpt lat="43.10681" lon="-0.45721">
        <ele>408.39</ele>
        <time>2026-03-24T08:58:11.000Z</time>
      </trkpt>
      <trkpt lat="43.10675" lon="-0.45749">
        <ele>406.99</ele>
        <time>2026-03-24T08:58:15.000Z</time>
      </trkpt>
      <trkpt lat="43.10672" lon="-0.45777">
        <ele>404.19</ele>
        <time>2026-03-24T08:58:19.000Z</time>
      </trkpt>
      <trkpt lat="43.10667" lon="-0.45805">
        <ele>404.51</ele>
        <time>2026-03-24T08:58:24.000Z</time>
      </trkpt>
      <trkpt lat="43.1066" lon="-0.45828">
        <ele>407.27</ele>
        <time>2026-03-24T08:58:30.000Z</time>
      </trkpt>
      <trkpt lat="43.10663" lon="-0.45853">
        <ele>415.66</ele>
        <time>2026-03-24T08:58:41.000Z</time>
      </trkpt>
      <trkpt lat="43.10671" lon="-0.45877">
        <ele>420.68</ele>
        <time>2026-03-24T08:58:55.000Z</time>
      </trkpt>
      <trkpt lat="43.1068" lon="-0.45898">
        <ele>423.63</ele>
        <time>2026-03-24T08:59:09.000Z</time>
      </trkpt>
      <trkpt lat="43.1069" lon="-0.45919">
        <ele>427.37</ele>
        <time>2026-03-24T08:59:23.000Z</time>
      </trkpt>
      <trkpt lat="43.10701" lon="-0.4594">
        <ele>429.93</ele>
        <time>2026-03-24T08:59:36.000Z</time>
      </trkpt>
      <trkpt lat="43.10709" lon="-0.45962">
        <ele>431.67</ele>
        <time>2026-03-24T08:59:48.000Z</time>
      </trkpt>
      <trkpt lat="43.10718" lon="-0.45985">
        <ele>433.31</ele>
        <time>2026-03-24T09:00:00.000Z</time>
      </trkpt>
      <trkpt lat="43.10727" lon="-0.46008">
        <ele>434.31</ele>
        <time>2026-03-24T09:00:13.000Z</time>
      </trkpt>
      <trkpt lat="43.10737" lon="-0.46031">
        <ele>436.94</ele>
        <time>2026-03-24T09:00:26.000Z</time>
      </trkpt>
      <trkpt lat="43.1075" lon="-0.4605">
        <ele>438.23</ele>
        <time>2026-03-24T09:00:40.000Z</time>
      </trkpt>
      <trkpt lat="43.10766" lon="-0.46062">
        <ele>439.75</ele>
        <time>2026-03-24T09:00:53.000Z</time>
      </trkpt>
      <trkpt lat="43.10783" lon="-0.4607">
        <ele>441.45</ele>
        <time>2026-03-24T09:01:06.000Z</time>
      </trkpt>
      <trkpt lat="43.10788" lon="-0.46094">
        <ele>441.43</ele>
        <time>2026-03-24T09:01:16.000Z</time>
      </trkpt>
      <trkpt lat="43.10787" lon="-0.46119">
        <ele>441.21</ele>
        <time>2026-03-24T09:01:26.000Z</time>
      </trkpt>
      <trkpt lat="43.10791" lon="-0.46144">
        <ele>445.3</ele>
        <time>2026-03-24T09:01:40.000Z</time>
      </trkpt>
      <trkpt lat="43.108" lon="-0.46167">
        <ele>450.11</ele>
        <time>2026-03-24T09:01:54.000Z</time>
      </trkpt>
      <trkpt lat="43.10807" lon="-0.46191">
        <ele>451.49</ele>
        <time>2026-03-24T09:02:06.000Z</time>
      </trkpt>
      <trkpt lat="43.10811" lon="-0.46217">
        <ele>452.13</ele>
        <time>2026-03-24T09:02:19.000Z</time>
      </trkpt>
      <trkpt lat="43.10817" lon="-0.46242">
        <ele>457.01</ele>
        <time>2026-03-24T09:02:32.000Z</time>
      </trkpt>
      <trkpt lat="43.10825" lon="-0.46265">
        <ele>461.01</ele>
        <time>2026-03-24T09:02:47.000Z</time>
      </trkpt>
      <trkpt lat="43.10836" lon="-0.46285">
        <ele>463.95</ele>
        <time>2026-03-24T09:03:02.000Z</time>
      </trkpt>
      <trkpt lat="43.10847" lon="-0.46307">
        <ele>465.89</ele>
        <time>2026-03-24T09:03:17.000Z</time>
      </trkpt>
      <trkpt lat="43.10855" lon="-0.4633">
        <ele>468.65</ele>
        <time>2026-03-24T09:03:31.000Z</time>
      </trkpt>
      <trkpt lat="43.10857" lon="-0.46357">
        <ele>469.74</ele>
        <time>2026-03-24T09:03:44.000Z</time>
      </trkpt>
      <trkpt lat="43.10853" lon="-0.46382">
        <ele>469.13</ele>
        <time>2026-03-24T09:03:58.000Z</time>
      </trkpt>
      <trkpt lat="43.10864" lon="-0.46402">
        <ele>474.67</ele>
        <time>2026-03-24T09:04:15.000Z</time>
      </trkpt>
      <trkpt lat="43.10882" lon="-0.46413">
        <ele>477.16</ele>
        <time>2026-03-24T09:04:32.000Z</time>
      </trkpt>
      <trkpt lat="43.10899" lon="-0.46424">
        <ele>479.71</ele>
        <time>2026-03-24T09:04:47.000Z</time>
      </trkpt>
      <trkpt lat="43.10911" lon="-0.46442">
        <ele>479.8</ele>
        <time>2026-03-24T09:04:58.000Z</time>
      </trkpt>
      <trkpt lat="43.10916" lon="-0.46469">
        <ele>480.65</ele>
        <time>2026-03-24T09:05:09.000Z</time>
      </trkpt>
      <trkpt lat="43.10911" lon="-0.46494">
        <ele>480.4</ele>
        <time>2026-03-24T09:05:19.000Z</time>
      </trkpt>
      <trkpt lat="43.10899" lon="-0.46514">
        <ele>481.34</ele>
        <time>2026-03-24T09:05:29.000Z</time>
      </trkpt>
      <trkpt lat="43.10885" lon="-0.4653">
        <ele>481.49</ele>
        <time>2026-03-24T09:05:41.000Z</time>
      </trkpt>
      <trkpt lat="43.1087" lon="-0.46546">
        <ele>482.96</ele>
        <time>2026-03-24T09:05:54.000Z</time>
      </trkpt>
      <trkpt lat="43.10856" lon="-0.46565">
        <ele>484.96</ele>
        <time>2026-03-24T09:06:08.000Z</time>
      </trkpt>
      <trkpt lat="43.10843" lon="-0.46583">
        <ele>487.93</ele>
        <time>2026-03-24T09:06:21.000Z</time>
      </trkpt>
      <trkpt lat="43.10832" lon="-0.46604">
        <ele>490.28</ele>
        <time>2026-03-24T09:06:33.000Z</time>
      </trkpt>
      <trkpt lat="43.10822" lon="-0.46626">
        <ele>491.51</ele>
        <time>2026-03-24T09:06:43.000Z</time>
      </trkpt>
      <trkpt lat="43.10803" lon="-0.46626">
        <ele>493.28</ele>
        <time>2026-03-24T09:09:25.000Z</time>
      </trkpt>
      <trkpt lat="43.10784" lon="-0.46621">
        <ele>495.99</ele>
        <time>2026-03-24T09:09:39.000Z</time>
      </trkpt>
      <trkpt lat="43.10766" lon="-0.46615">
        <ele>498.71</ele>
        <time>2026-03-24T09:09:53.000Z</time>
      </trkpt>
      <trkpt lat="43.10748" lon="-0.46612">
        <ele>501.24</ele>
        <time>2026-03-24T09:10:06.000Z</time>
      </trkpt>
      <trkpt lat="43.1073" lon="-0.46607">
        <ele>504.56</ele>
        <time>2026-03-24T09:10:19.000Z</time>
      </trkpt>
      <trkpt lat="43.10712" lon="-0.466">
        <ele>505.88</ele>
        <time>2026-03-24T09:10:33.000Z</time>
      </trkpt>
      <trkpt lat="43.10694" lon="-0.46593">
        <ele>507.12</ele>
        <time>2026-03-24T09:10:45.000Z</time>
      </trkpt>
      <trkpt lat="43.10677" lon="-0.46585">
        <ele>508.92</ele>
        <time>2026-03-24T09:10:57.000Z</time>
      </trkpt>
      <trkpt lat="43.10658" lon="-0.46583">
        <ele>512</ele>
        <time>2026-03-24T09:11:10.000Z</time>
      </trkpt>
      <trkpt lat="43.10639" lon="-0.46584">
        <ele>514.86</ele>
        <time>2026-03-24T09:11:23.000Z</time>
      </trkpt>
      <trkpt lat="43.1062" lon="-0.4659">
        <ele>516.94</ele>
        <time>2026-03-24T09:11:36.000Z</time>
      </trkpt>
      <trkpt lat="43.10604" lon="-0.46602">
        <ele>519.39</ele>
        <time>2026-03-24T09:11:49.000Z</time>
      </trkpt>
      <trkpt lat="43.10587" lon="-0.46614">
        <ele>522.39</ele>
        <time>2026-03-24T09:12:02.000Z</time>
      </trkpt>
      <trkpt lat="43.1057" lon="-0.46627">
        <ele>524.33</ele>
        <time>2026-03-24T09:12:15.000Z</time>
      </trkpt>
      <trkpt lat="43.10553" lon="-0.4664">
        <ele>526.77</ele>
        <time>2026-03-24T09:12:28.000Z</time>
      </trkpt>
      <trkpt lat="43.10541" lon="-0.46659">
        <ele>528.44</ele>
        <time>2026-03-24T09:12:40.000Z</time>
      </trkpt>
      <trkpt lat="43.10533" lon="-0.46681">
        <ele>530.47</ele>
        <time>2026-03-24T09:12:52.000Z</time>
      </trkpt>
      <trkpt lat="43.10519" lon="-0.46698">
        <ele>533.37</ele>
        <time>2026-03-24T09:13:04.000Z</time>
      </trkpt>
      <trkpt lat="43.10502" lon="-0.46708">
        <ele>533.57</ele>
        <time>2026-03-24T09:13:13.000Z</time>
      </trkpt>
      <trkpt lat="43.10484" lon="-0.46722">
        <ele>535.49</ele>
        <time>2026-03-24T09:13:23.000Z</time>
      </trkpt>
      <trkpt lat="43.10469" lon="-0.46737">
        <ele>541.36</ele>
        <time>2026-03-24T09:13:31.000Z</time>
      </trkpt>
      <trkpt lat="43.10453" lon="-0.4675">
        <ele>536.62</ele>
        <time>2026-03-24T09:13:38.000Z</time>
      </trkpt>
      <trkpt lat="43.10437" lon="-0.46771">
        <ele>532.14</ele>
        <time>2026-03-24T09:13:44.000Z</time>
      </trkpt>
      <trkpt lat="43.10426" lon="-0.46791">
        <ele>532.94</ele>
        <time>2026-03-24T09:13:50.000Z</time>
      </trkpt>
      <trkpt lat="43.10417" lon="-0.46817">
        <ele>531.84</ele>
        <time>2026-03-24T09:13:55.000Z</time>
      </trkpt>
      <trkpt lat="43.10421" lon="-0.46846">
        <ele>531.73</ele>
        <time>2026-03-24T09:14:00.000Z</time>
      </trkpt>
      <trkpt lat="43.10415" lon="-0.46871">
        <ele>531.6</ele>
        <time>2026-03-24T09:14:04.000Z</time>
      </trkpt>
      <trkpt lat="43.10418" lon="-0.46897">
        <ele>533.98</ele>
        <time>2026-03-24T09:14:09.000Z</time>
      </trkpt>
      <trkpt lat="43.10427" lon="-0.46921">
        <ele>535.01</ele>
        <time>2026-03-24T09:14:14.000Z</time>
      </trkpt>
      <trkpt lat="43.10425" lon="-0.46947">
        <ele>533.87</ele>
        <time>2026-03-24T09:14:18.000Z</time>
      </trkpt>
      <trkpt lat="43.10428" lon="-0.46971">
        <ele>534.82</ele>
        <time>2026-03-24T09:14:22.000Z</time>
      </trkpt>
      <trkpt lat="43.10441" lon="-0.46993">
        <ele>537.44</ele>
        <time>2026-03-24T09:14:27.000Z</time>
      </trkpt>
      <trkpt lat="43.1046" lon="-0.47005">
        <ele>538.54</ele>
        <time>2026-03-24T09:14:32.000Z</time>
      </trkpt>
      <trkpt lat="43.10464" lon="-0.47032">
        <ele>535.77</ele>
        <time>2026-03-24T09:14:36.000Z</time>
      </trkpt>
      <trkpt lat="43.10458" lon="-0.4706">
        <ele>533.22</ele>
        <time>2026-03-24T09:14:40.000Z</time>
      </trkpt>
      <trkpt lat="43.10451" lon="-0.47085">
        <ele>531.78</ele>
        <time>2026-03-24T09:14:44.000Z</time>
      </trkpt>
      <trkpt lat="43.10446" lon="-0.47111">
        <ele>531.15</ele>
        <time>2026-03-24T09:14:48.000Z</time>
      </trkpt>
      <trkpt lat="43.10443" lon="-0.47141">
        <ele>531.98</ele>
        <time>2026-03-24T09:14:53.000Z</time>
      </trkpt>
      <trkpt lat="43.10437" lon="-0.4717">
        <ele>531.57</ele>
        <time>2026-03-24T09:14:58.000Z</time>
      </trkpt>
      <trkpt lat="43.10429" lon="-0.47199">
        <ele>530.3</ele>
        <time>2026-03-24T09:15:03.000Z</time>
      </trkpt>
      <trkpt lat="43.10421" lon="-0.47222">
        <ele>529.45</ele>
        <time>2026-03-24T09:15:07.000Z</time>
      </trkpt>
      <trkpt lat="43.10417" lon="-0.47246">
        <ele>529.47</ele>
        <time>2026-03-24T09:15:11.000Z</time>
      </trkpt>
      <trkpt lat="43.10431" lon="-0.47266">
        <ele>530.37</ele>
        <time>2026-03-24T09:15:16.000Z</time>
      </trkpt>
      <trkpt lat="43.10448" lon="-0.47284">
        <ele>531.93</ele>
        <time>2026-03-24T09:15:21.000Z</time>
      </trkpt>
      <trkpt lat="43.10465" lon="-0.47305">
        <ele>533.1</ele>
        <time>2026-03-24T09:15:26.000Z</time>
      </trkpt>
      <trkpt lat="43.10469" lon="-0.47333">
        <ele>529.81</ele>
        <time>2026-03-24T09:15:30.000Z</time>
      </trkpt>
      <trkpt lat="43.10464" lon="-0.47364">
        <ele>529.18</ele>
        <time>2026-03-24T09:15:34.000Z</time>
      </trkpt>
      <trkpt lat="43.10458" lon="-0.47393">
        <ele>527.13</ele>
        <time>2026-03-24T09:15:38.000Z</time>
      </trkpt>
      <trkpt lat="43.10457" lon="-0.4742">
        <ele>526.59</ele>
        <time>2026-03-24T09:15:42.000Z</time>
      </trkpt>
      <trkpt lat="43.10473" lon="-0.47438">
        <ele>527.55</ele>
        <time>2026-03-24T09:15:46.000Z</time>
      </trkpt>
      <trkpt lat="43.10492" lon="-0.4745">
        <ele>529.17</ele>
        <time>2026-03-24T09:15:50.000Z</time>
      </trkpt>
      <trkpt lat="43.10513" lon="-0.47456">
        <ele>528.78</ele>
        <time>2026-03-24T09:15:54.000Z</time>
      </trkpt>
      <trkpt lat="43.1052" lon="-0.47484">
        <ele>526.95</ele>
        <time>2026-03-24T09:15:58.000Z</time>
      </trkpt>
      <trkpt lat="43.10517" lon="-0.4751">
        <ele>526.91</ele>
        <time>2026-03-24T09:16:01.000Z</time>
      </trkpt>
      <trkpt lat="43.10512" lon="-0.4754">
        <ele>526.5</ele>
        <time>2026-03-24T09:16:05.000Z</time>
      </trkpt>
      <trkpt lat="43.10506" lon="-0.47569">
        <ele>526.54</ele>
        <time>2026-03-24T09:16:10.000Z</time>
      </trkpt>
      <trkpt lat="43.10501" lon="-0.47599">
        <ele>525.18</ele>
        <time>2026-03-24T09:16:14.000Z</time>
      </trkpt>
      <trkpt lat="43.1051" lon="-0.47621">
        <ele>525.1</ele>
        <time>2026-03-24T09:16:18.000Z</time>
      </trkpt>
      <trkpt lat="43.10519" lon="-0.47649">
        <ele>523.85</ele>
        <time>2026-03-24T09:16:22.000Z</time>
      </trkpt>
      <trkpt lat="43.10511" lon="-0.47678">
        <ele>523.03</ele>
        <time>2026-03-24T09:16:26.000Z</time>
      </trkpt>
      <trkpt lat="43.10498" lon="-0.47699">
        <ele>523.75</ele>
        <time>2026-03-24T09:18:43.000Z</time>
      </trkpt>
      <trkpt lat="43.10482" lon="-0.47708">
        <ele>523.71</ele>
        <time>2026-03-24T09:18:49.000Z</time>
      </trkpt>
      <trkpt lat="43.10461" lon="-0.47705">
        <ele>523.33</ele>
        <time>2026-03-24T09:18:55.000Z</time>
      </trkpt>
      <trkpt lat="43.10442" lon="-0.47703">
        <ele>522.58</ele>
        <time>2026-03-24T09:18:59.000Z</time>
      </trkpt>
      <trkpt lat="43.1043" lon="-0.47726">
        <ele>522.43</ele>
        <time>2026-03-24T09:19:04.000Z</time>
      </trkpt>
      <trkpt lat="43.10422" lon="-0.47749">
        <ele>518.54</ele>
        <time>2026-03-24T09:19:08.000Z</time>
      </trkpt>
      <trkpt lat="43.10422" lon="-0.47775">
        <ele>518.4</ele>
        <time>2026-03-24T09:19:12.000Z</time>
      </trkpt>
      <trkpt lat="43.10423" lon="-0.478">
        <ele>520.65</ele>
        <time>2026-03-24T09:19:16.000Z</time>
      </trkpt>
      <trkpt lat="43.1042" lon="-0.47828">
        <ele>519.64</ele>
        <time>2026-03-24T09:19:21.000Z</time>
      </trkpt>
      <trkpt lat="43.10417" lon="-0.47854">
        <ele>522.01</ele>
        <time>2026-03-24T09:19:25.000Z</time>
      </trkpt>
      <trkpt lat="43.10429" lon="-0.47874">
        <ele>521.65</ele>
        <time>2026-03-24T09:19:29.000Z</time>
      </trkpt>
      <trkpt lat="43.10442" lon="-0.47891">
        <ele>522.79</ele>
        <time>2026-03-24T09:19:33.000Z</time>
      </trkpt>
      <trkpt lat="43.10443" lon="-0.47917">
        <ele>522.8</ele>
        <time>2026-03-24T09:19:37.000Z</time>
      </trkpt>
      <trkpt lat="43.10442" lon="-0.47945">
        <ele>521.82</ele>
        <time>2026-03-24T09:19:41.000Z</time>
      </trkpt>
      <trkpt lat="43.10447" lon="-0.47972">
        <ele>520.62</ele>
        <time>2026-03-24T09:19:45.000Z</time>
      </trkpt>
      <trkpt lat="43.10454" lon="-0.47997">
        <ele>518.06</ele>
        <time>2026-03-24T09:19:49.000Z</time>
      </trkpt>
      <trkpt lat="43.10443" lon="-0.48022">
        <ele>517.98</ele>
        <time>2026-03-24T09:19:53.000Z</time>
      </trkpt>
      <trkpt lat="43.10421" lon="-0.48032">
        <ele>518.34</ele>
        <time>2026-03-24T09:19:57.000Z</time>
      </trkpt>
      <trkpt lat="43.10398" lon="-0.48037">
        <ele>518.39</ele>
        <time>2026-03-24T09:20:01.000Z</time>
      </trkpt>
      <trkpt lat="43.10377" lon="-0.48044">
        <ele>518.35</ele>
        <time>2026-03-24T09:20:05.000Z</time>
      </trkpt>
      <trkpt lat="43.10357" lon="-0.48054">
        <ele>518.83</ele>
        <time>2026-03-24T09:20:09.000Z</time>
      </trkpt>
      <trkpt lat="43.10337" lon="-0.4806">
        <ele>518.66</ele>
        <time>2026-03-24T09:20:13.000Z</time>
      </trkpt>
      <trkpt lat="43.10317" lon="-0.4806">
        <ele>518.84</ele>
        <time>2026-03-24T09:20:17.000Z</time>
      </trkpt>
      <trkpt lat="43.10297" lon="-0.48055">
        <ele>518.44</ele>
        <time>2026-03-24T09:20:21.000Z</time>
      </trkpt>
      <trkpt lat="43.10278" lon="-0.48047">
        <ele>518.56</ele>
        <time>2026-03-24T09:20:25.000Z</time>
      </trkpt>
      <trkpt lat="43.10258" lon="-0.48044">
        <ele>517.49</ele>
        <time>2026-03-24T09:20:29.000Z</time>
      </trkpt>
      <trkpt lat="43.10243" lon="-0.48063">
        <ele>518.03</ele>
        <time>2026-03-24T09:20:33.000Z</time>
      </trkpt>
      <trkpt lat="43.10231" lon="-0.48086">
        <ele>517.72</ele>
        <time>2026-03-24T09:20:37.000Z</time>
      </trkpt>
      <trkpt lat="43.10227" lon="-0.48112">
        <ele>518.82</ele>
        <time>2026-03-24T09:20:41.000Z</time>
      </trkpt>
      <trkpt lat="43.10223" lon="-0.48138">
        <ele>517.48</ele>
        <time>2026-03-24T09:20:45.000Z</time>
      </trkpt>
      <trkpt lat="43.10204" lon="-0.48149">
        <ele>517.61</ele>
        <time>2026-03-24T09:20:49.000Z</time>
      </trkpt>
      <trkpt lat="43.10186" lon="-0.48158">
        <ele>519.26</ele>
        <time>2026-03-24T09:20:53.000Z</time>
      </trkpt>
      <trkpt lat="43.10167" lon="-0.48165">
        <ele>520.1</ele>
        <time>2026-03-24T09:20:57.000Z</time>
      </trkpt>
      <trkpt lat="43.10145" lon="-0.48164">
        <ele>519.49</ele>
        <time>2026-03-24T09:21:02.000Z</time>
      </trkpt>
      <trkpt lat="43.10124" lon="-0.48164">
        <ele>518.4</ele>
        <time>2026-03-24T09:21:06.000Z</time>
      </trkpt>
      <trkpt lat="43.10102" lon="-0.48168">
        <ele>518.37</ele>
        <time>2026-03-24T09:21:10.000Z</time>
      </trkpt>
      <trkpt lat="43.10083" lon="-0.4817">
        <ele>515.79</ele>
        <time>2026-03-24T09:21:15.000Z</time>
      </trkpt>
      <trkpt lat="43.10065" lon="-0.48176">
        <ele>521.64</ele>
        <time>2026-03-24T09:23:03.000Z</time>
      </trkpt>
      <trkpt lat="43.10046" lon="-0.48179">
        <ele>518.44</ele>
        <time>2026-03-24T09:23:16.000Z</time>
      </trkpt>
      <trkpt lat="43.10026" lon="-0.48179">
        <ele>521.56</ele>
        <time>2026-03-24T09:23:35.000Z</time>
      </trkpt>
      <trkpt lat="43.10008" lon="-0.48179">
        <ele>513.63</ele>
        <time>2026-03-24T09:23:48.000Z</time>
      </trkpt>
      <trkpt lat="43.0999" lon="-0.48184">
        <ele>519.07</ele>
        <time>2026-03-24T09:23:59.000Z</time>
      </trkpt>
      <trkpt lat="43.09971" lon="-0.4818">
        <ele>533.17</ele>
        <time>2026-03-24T09:24:14.000Z</time>
      </trkpt>
      <trkpt lat="43.09952" lon="-0.4818">
        <ele>543.61</ele>
        <time>2026-03-24T09:24:29.000Z</time>
      </trkpt>
      <trkpt lat="43.09934" lon="-0.4818">
        <ele>545.1</ele>
        <time>2026-03-24T09:24:42.000Z</time>
      </trkpt>
      <trkpt lat="43.09916" lon="-0.48178">
        <ele>545.92</ele>
        <time>2026-03-24T09:24:55.000Z</time>
      </trkpt>
      <trkpt lat="43.09897" lon="-0.48179">
        <ele>546.88</ele>
        <time>2026-03-24T09:25:08.000Z</time>
      </trkpt>
      <trkpt lat="43.09879" lon="-0.48188">
        <ele>548.01</ele>
        <time>2026-03-24T09:25:21.000Z</time>
      </trkpt>
      <trkpt lat="43.09863" lon="-0.48201">
        <ele>549.62</ele>
        <time>2026-03-24T09:25:33.000Z</time>
      </trkpt>
      <trkpt lat="43.09848" lon="-0.48216">
        <ele>550.9</ele>
        <time>2026-03-24T09:25:46.000Z</time>
      </trkpt>
      <trkpt lat="43.09832" lon="-0.48232">
        <ele>554.2</ele>
        <time>2026-03-24T09:26:01.000Z</time>
      </trkpt>
      <trkpt lat="43.09815" lon="-0.4824">
        <ele>554.17</ele>
        <time>2026-03-24T09:26:12.000Z</time>
      </trkpt>
      <trkpt lat="43.09833" lon="-0.48244">
        <ele>553.08</ele>
        <time>2026-03-24T09:26:32.000Z</time>
      </trkpt>
      <trkpt lat="43.09849" lon="-0.48229">
        <ele>555.32</ele>
        <time>2026-03-24T09:26:46.000Z</time>
      </trkpt>
      <trkpt lat="43.09866" lon="-0.48219">
        <ele>554.84</ele>
        <time>2026-03-24T09:27:02.000Z</time>
      </trkpt>
      <trkpt lat="43.09885" lon="-0.48214">
        <ele>557.02</ele>
        <time>2026-03-24T09:27:15.000Z</time>
      </trkpt>
      <trkpt lat="43.09903" lon="-0.48213">
        <ele>558.68</ele>
        <time>2026-03-24T09:27:27.000Z</time>
      </trkpt>
      <trkpt lat="43.09922" lon="-0.48217">
        <ele>563.83</ele>
        <time>2026-03-24T09:27:42.000Z</time>
      </trkpt>
      <trkpt lat="43.0994" lon="-0.48223">
        <ele>566.17</ele>
        <time>2026-03-24T09:27:57.000Z</time>
      </trkpt>
      <trkpt lat="43.09958" lon="-0.4823">
        <ele>567.61</ele>
        <time>2026-03-24T09:28:09.000Z</time>
      </trkpt>
      <trkpt lat="43.09976" lon="-0.48239">
        <ele>568.94</ele>
        <time>2026-03-24T09:28:22.000Z</time>
      </trkpt>
      <trkpt lat="43.09993" lon="-0.48251">
        <ele>571.25</ele>
        <time>2026-03-24T09:28:35.000Z</time>
      </trkpt>
      <trkpt lat="43.10008" lon="-0.48268">
        <ele>572.97</ele>
        <time>2026-03-24T09:28:48.000Z</time>
      </trkpt>
      <trkpt lat="43.10018" lon="-0.48289">
        <ele>577.81</ele>
        <time>2026-03-24T09:28:58.000Z</time>
      </trkpt>
      <trkpt lat="43.10024" lon="-0.48313">
        <ele>578.58</ele>
        <time>2026-03-24T09:29:06.000Z</time>
      </trkpt>
      <trkpt lat="43.10028" lon="-0.48337">
        <ele>586.17</ele>
        <time>2026-03-24T09:29:18.000Z</time>
      </trkpt>
      <trkpt lat="43.10031" lon="-0.48363">
        <ele>587.79</ele>
        <time>2026-03-24T09:29:30.000Z</time>
      </trkpt>
      <trkpt lat="43.10029" lon="-0.48389">
        <ele>585.52</ele>
        <time>2026-03-24T09:29:41.000Z</time>
      </trkpt>
      <trkpt lat="43.10027" lon="-0.48413">
        <ele>590.64</ele>
        <time>2026-03-24T09:29:54.000Z</time>
      </trkpt>
      <trkpt lat="43.10029" lon="-0.48438">
        <ele>595.86</ele>
        <time>2026-03-24T09:30:06.000Z</time>
      </trkpt>
      <trkpt lat="43.10031" lon="-0.48464">
        <ele>598.36</ele>
        <time>2026-03-24T09:30:19.000Z</time>
      </trkpt>
      <trkpt lat="43.10035" lon="-0.48488">
        <ele>598.63</ele>
        <time>2026-03-24T09:30:32.000Z</time>
      </trkpt>
      <trkpt lat="43.10037" lon="-0.48514">
        <ele>600.21</ele>
        <time>2026-03-24T09:30:44.000Z</time>
      </trkpt>
      <trkpt lat="43.10034" lon="-0.48538">
        <ele>597.69</ele>
        <time>2026-03-24T09:30:56.000Z</time>
      </trkpt>
      <trkpt lat="43.10029" lon="-0.48563">
        <ele>599.88</ele>
        <time>2026-03-24T09:31:10.000Z</time>
      </trkpt>
      <trkpt lat="43.10027" lon="-0.48588">
        <ele>601.93</ele>
        <time>2026-03-24T09:31:22.000Z</time>
      </trkpt>
      <trkpt lat="43.1002" lon="-0.48612">
        <ele>598.2</ele>
        <time>2026-03-24T09:31:36.000Z</time>
      </trkpt>
      <trkpt lat="43.10009" lon="-0.48633">
        <ele>603.13</ele>
        <time>2026-03-24T09:31:53.000Z</time>
      </trkpt>
      <trkpt lat="43.09992" lon="-0.48644">
        <ele>603.27</ele>
        <time>2026-03-24T09:32:06.000Z</time>
      </trkpt>
      <trkpt lat="43.09979" lon="-0.48662">
        <ele>607.12</ele>
        <time>2026-03-24T09:32:21.000Z</time>
      </trkpt>
      <trkpt lat="43.09962" lon="-0.48675">
        <ele>606.91</ele>
        <time>2026-03-24T09:32:36.000Z</time>
      </trkpt>
      <trkpt lat="43.09944" lon="-0.48684">
        <ele>609.84</ele>
        <time>2026-03-24T09:32:52.000Z</time>
      </trkpt>
      <trkpt lat="43.09925" lon="-0.48688">
        <ele>617.12</ele>
        <time>2026-03-24T09:33:08.000Z</time>
      </trkpt>
      <trkpt lat="43.09907" lon="-0.48684">
        <ele>623.87</ele>
        <time>2026-03-24T09:33:24.000Z</time>
      </trkpt>
      <trkpt lat="43.09889" lon="-0.48676">
        <ele>631.72</ele>
        <time>2026-03-24T09:33:38.000Z</time>
      </trkpt>
      <trkpt lat="43.09872" lon="-0.48666">
        <ele>636.87</ele>
        <time>2026-03-24T09:33:50.000Z</time>
      </trkpt>
      <trkpt lat="43.09856" lon="-0.48652">
        <ele>640.4</ele>
        <time>2026-03-24T09:34:02.000Z</time>
      </trkpt>
      <trkpt lat="43.09841" lon="-0.48637">
        <ele>634.52</ele>
        <time>2026-03-24T09:34:11.000Z</time>
      </trkpt>
      <trkpt lat="43.09842" lon="-0.48662">
        <ele>631.14</ele>
        <time>2026-03-24T09:34:48.000Z</time>
      </trkpt>
      <trkpt lat="43.09853" lon="-0.48684">
        <ele>633.63</ele>
        <time>2026-03-24T09:35:01.000Z</time>
      </trkpt>
      <trkpt lat="43.09858" lon="-0.48709">
        <ele>637.37</ele>
        <time>2026-03-24T09:35:14.000Z</time>
      </trkpt>
      <trkpt lat="43.09865" lon="-0.48733">
        <ele>641.82</ele>
        <time>2026-03-24T09:35:30.000Z</time>
      </trkpt>
      <trkpt lat="43.09872" lon="-0.48756">
        <ele>646.56</ele>
        <time>2026-03-24T09:35:45.000Z</time>
      </trkpt>
      <trkpt lat="43.09884" lon="-0.48775">
        <ele>645.19</ele>
        <time>2026-03-24T09:36:00.000Z</time>
      </trkpt>
      <trkpt lat="43.09891" lon="-0.48798">
        <ele>648.33</ele>
        <time>2026-03-24T09:36:14.000Z</time>
      </trkpt>
      <trkpt lat="43.09896" lon="-0.48823">
        <ele>647.43</ele>
        <time>2026-03-24T09:36:28.000Z</time>
      </trkpt>
      <trkpt lat="43.09903" lon="-0.48846">
        <ele>650.56</ele>
        <time>2026-03-24T09:36:40.000Z</time>
      </trkpt>
      <trkpt lat="43.09912" lon="-0.48869">
        <ele>651.57</ele>
        <time>2026-03-24T09:36:53.000Z</time>
      </trkpt>
      <trkpt lat="43.09917" lon="-0.48894">
        <ele>652.49</ele>
        <time>2026-03-24T09:37:06.000Z</time>
      </trkpt>
      <trkpt lat="43.09926" lon="-0.48916">
        <ele>655.77</ele>
        <time>2026-03-24T09:37:19.000Z</time>
      </trkpt>
      <trkpt lat="43.09941" lon="-0.48932">
        <ele>659.62</ele>
        <time>2026-03-24T09:37:32.000Z</time>
      </trkpt>
      <trkpt lat="43.09958" lon="-0.48944">
        <ele>659.95</ele>
        <time>2026-03-24T09:37:46.000Z</time>
      </trkpt>
      <trkpt lat="43.09975" lon="-0.48954">
        <ele>661.82</ele>
        <time>2026-03-24T09:38:02.000Z</time>
      </trkpt>
      <trkpt lat="43.09993" lon="-0.48959">
        <ele>662.51</ele>
        <time>2026-03-24T09:38:18.000Z</time>
      </trkpt>
      <trkpt lat="43.10011" lon="-0.48963">
        <ele>665.89</ele>
        <time>2026-03-24T09:38:33.000Z</time>
      </trkpt>
      <trkpt lat="43.10031" lon="-0.48962">
        <ele>665.82</ele>
        <time>2026-03-24T09:38:45.000Z</time>
      </trkpt>
      <trkpt lat="43.10049" lon="-0.48956">
        <ele>667.53</ele>
        <time>2026-03-24T09:38:59.000Z</time>
      </trkpt>
      <trkpt lat="43.10063" lon="-0.48939">
        <ele>670.5</ele>
        <time>2026-03-24T09:39:15.000Z</time>
      </trkpt>
      <trkpt lat="43.10074" lon="-0.48918">
        <ele>670.54</ele>
        <time>2026-03-24T09:39:32.000Z</time>
      </trkpt>
      <trkpt lat="43.10089" lon="-0.48901">
        <ele>671.86</ele>
        <time>2026-03-24T09:39:46.000Z</time>
      </trkpt>
      <trkpt lat="43.10105" lon="-0.48886">
        <ele>669.32</ele>
        <time>2026-03-24T09:39:59.000Z</time>
      </trkpt>
      <trkpt lat="43.10123" lon="-0.48888">
        <ele>668.5</ele>
        <time>2026-03-24T09:40:13.000Z</time>
      </trkpt>
      <trkpt lat="43.10135" lon="-0.48908">
        <ele>674.86</ele>
        <time>2026-03-24T09:40:33.000Z</time>
      </trkpt>
      <trkpt lat="43.10146" lon="-0.4893">
        <ele>680.27</ele>
        <time>2026-03-24T09:40:48.000Z</time>
      </trkpt>
      <trkpt lat="43.10153" lon="-0.48955">
        <ele>680.5</ele>
        <time>2026-03-24T09:41:03.000Z</time>
      </trkpt>
      <trkpt lat="43.10157" lon="-0.4898">
        <ele>682.54</ele>
        <time>2026-03-24T09:41:15.000Z</time>
      </trkpt>
      <trkpt lat="43.10158" lon="-0.49005">
        <ele>685.43</ele>
        <time>2026-03-24T09:41:29.000Z</time>
      </trkpt>
      <trkpt lat="43.10163" lon="-0.4903">
        <ele>691.29</ele>
        <time>2026-03-24T09:41:42.000Z</time>
      </trkpt>
      <trkpt lat="43.1017" lon="-0.49053">
        <ele>689.79</ele>
        <time>2026-03-24T09:41:54.000Z</time>
      </trkpt>
      <trkpt lat="43.10173" lon="-0.49078">
        <ele>688.19</ele>
        <time>2026-03-24T09:42:03.000Z</time>
      </trkpt>
      <trkpt lat="43.10174" lon="-0.49104">
        <ele>689.18</ele>
        <time>2026-03-24T09:42:14.000Z</time>
      </trkpt>
      <trkpt lat="43.10177" lon="-0.49128">
        <ele>693.75</ele>
        <time>2026-03-24T09:42:24.000Z</time>
      </trkpt>
      <trkpt lat="43.10184" lon="-0.49155">
        <ele>698.52</ele>
        <time>2026-03-24T09:42:32.000Z</time>
      </trkpt>
      <trkpt lat="43.10187" lon="-0.49179">
        <ele>696.12</ele>
        <time>2026-03-24T09:42:38.000Z</time>
      </trkpt>
      <trkpt lat="43.10188" lon="-0.49207">
        <ele>696.76</ele>
        <time>2026-03-24T09:42:45.000Z</time>
      </trkpt>
      <trkpt lat="43.10192" lon="-0.49237">
        <ele>698.03</ele>
        <time>2026-03-24T09:42:51.000Z</time>
      </trkpt>
      <trkpt lat="43.10198" lon="-0.49263">
        <ele>699.32</ele>
        <time>2026-03-24T09:42:56.000Z</time>
      </trkpt>
      <trkpt lat="43.10199" lon="-0.4929">
        <ele>699.73</ele>
        <time>2026-03-24T09:43:03.000Z</time>
      </trkpt>
      <trkpt lat="43.10201" lon="-0.49317">
        <ele>698.92</ele>
        <time>2026-03-24T09:43:10.000Z</time>
      </trkpt>
      <trkpt lat="43.10212" lon="-0.49337">
        <ele>697.78</ele>
        <time>2026-03-24T09:43:16.000Z</time>
      </trkpt>
      <trkpt lat="43.1023" lon="-0.49351">
        <ele>700.82</ele>
        <time>2026-03-24T09:43:23.000Z</time>
      </trkpt>
      <trkpt lat="43.10244" lon="-0.49366">
        <ele>704.88</ele>
        <time>2026-03-24T09:43:29.000Z</time>
      </trkpt>
      <trkpt lat="43.10255" lon="-0.49388">
        <ele>705.53</ele>
        <time>2026-03-24T09:43:35.000Z</time>
      </trkpt>
      <trkpt lat="43.10267" lon="-0.49408">
        <ele>706</ele>
        <time>2026-03-24T09:43:42.000Z</time>
      </trkpt>
      <trkpt lat="43.10277" lon="-0.49433">
        <ele>707.39</ele>
        <time>2026-03-24T09:43:48.000Z</time>
      </trkpt>
      <trkpt lat="43.10286" lon="-0.4946">
        <ele>706.6</ele>
        <time>2026-03-24T09:43:54.000Z</time>
      </trkpt>
      <trkpt lat="43.10294" lon="-0.49482">
        <ele>711.81</ele>
        <time>2026-03-24T09:44:00.000Z</time>
      </trkpt>
      <trkpt lat="43.10301" lon="-0.49508">
        <ele>710.96</ele>
        <time>2026-03-24T09:44:08.000Z</time>
      </trkpt>
      <trkpt lat="43.1031" lon="-0.49532">
        <ele>710.67</ele>
        <time>2026-03-24T09:44:13.000Z</time>
      </trkpt>
      <trkpt lat="43.10315" lon="-0.4956">
        <ele>709.26</ele>
        <time>2026-03-24T09:44:19.000Z</time>
      </trkpt>
      <trkpt lat="43.10318" lon="-0.49587">
        <ele>707.13</ele>
        <time>2026-03-24T09:44:25.000Z</time>
      </trkpt>
      <trkpt lat="43.10323" lon="-0.49612">
        <ele>713.65</ele>
        <time>2026-03-24T09:44:31.000Z</time>
      </trkpt>
      <trkpt lat="43.10327" lon="-0.49637">
        <ele>709.8</ele>
        <time>2026-03-24T09:44:37.000Z</time>
      </trkpt>
      <trkpt lat="43.10335" lon="-0.49664">
        <ele>709.21</ele>
        <time>2026-03-24T09:44:45.000Z</time>
      </trkpt>
      <trkpt lat="43.10341" lon="-0.49689">
        <ele>707.22</ele>
        <time>2026-03-24T09:44:51.000Z</time>
      </trkpt>
      <trkpt lat="43.10348" lon="-0.49715">
        <ele>707.76</ele>
        <time>2026-03-24T09:44:57.000Z</time>
      </trkpt>
      <trkpt lat="43.10349" lon="-0.4974">
        <ele>702.45</ele>
        <time>2026-03-24T09:45:05.000Z</time>
      </trkpt>
      <trkpt lat="43.1034" lon="-0.49761">
        <ele>698.14</ele>
        <time>2026-03-24T09:46:26.000Z</time>
      </trkpt>
      <trkpt lat="43.10321" lon="-0.49763">
        <ele>691.01</ele>
        <time>2026-03-24T09:46:35.000Z</time>
      </trkpt>
      <trkpt lat="43.10303" lon="-0.49761">
        <ele>690.86</ele>
        <time>2026-03-24T09:46:46.000Z</time>
      </trkpt>
      <trkpt lat="43.10284" lon="-0.4976">
        <ele>695.83</ele>
        <time>2026-03-24T09:47:10.000Z</time>
      </trkpt>
      <trkpt lat="43.10266" lon="-0.49764">
        <ele>702.77</ele>
        <time>2026-03-24T09:47:20.000Z</time>
      </trkpt>
      <trkpt lat="43.10249" lon="-0.49775">
        <ele>703.75</ele>
        <time>2026-03-24T09:47:34.000Z</time>
      </trkpt>
      <trkpt lat="43.10233" lon="-0.49787">
        <ele>709.47</ele>
        <time>2026-03-24T09:47:52.000Z</time>
      </trkpt>
      <trkpt lat="43.10217" lon="-0.49801">
        <ele>712.4</ele>
        <time>2026-03-24T09:48:06.000Z</time>
      </trkpt>
      <trkpt lat="43.10203" lon="-0.49817">
        <ele>716.06</ele>
        <time>2026-03-24T09:48:23.000Z</time>
      </trkpt>
      <trkpt lat="43.1019" lon="-0.49835">
        <ele>716.34</ele>
        <time>2026-03-24T09:48:39.000Z</time>
      </trkpt>
      <trkpt lat="43.10182" lon="-0.49858">
        <ele>709.98</ele>
        <time>2026-03-24T09:48:56.000Z</time>
      </trkpt>
      <trkpt lat="43.10183" lon="-0.49882">
        <ele>716.43</ele>
        <time>2026-03-24T09:49:13.000Z</time>
      </trkpt>
      <trkpt lat="43.10189" lon="-0.49907">
        <ele>716.1</ele>
        <time>2026-03-24T09:49:29.000Z</time>
      </trkpt>
      <trkpt lat="43.10194" lon="-0.49932">
        <ele>721.45</ele>
        <time>2026-03-24T09:49:42.000Z</time>
      </trkpt>
      <trkpt lat="43.10198" lon="-0.49956">
        <ele>721.78</ele>
        <time>2026-03-24T09:49:52.000Z</time>
      </trkpt>
      <trkpt lat="43.10205" lon="-0.49981">
        <ele>726.2</ele>
        <time>2026-03-24T09:50:04.000Z</time>
      </trkpt>
      <trkpt lat="43.10217" lon="-0.5">
        <ele>727.32</ele>
        <time>2026-03-24T09:50:17.000Z</time>
      </trkpt>
      <trkpt lat="43.1023" lon="-0.5002">
        <ele>727.95</ele>
        <time>2026-03-24T09:50:30.000Z</time>
      </trkpt>
      <trkpt lat="43.1024" lon="-0.50042">
        <ele>730.62</ele>
        <time>2026-03-24T09:50:41.000Z</time>
      </trkpt>
      <trkpt lat="43.10249" lon="-0.50065">
        <ele>729.6</ele>
        <time>2026-03-24T09:50:49.000Z</time>
      </trkpt>
      <trkpt lat="43.10259" lon="-0.50085">
        <ele>730.84</ele>
        <time>2026-03-24T09:50:57.000Z</time>
      </trkpt>
      <trkpt lat="43.10266" lon="-0.5011">
        <ele>733.08</ele>
        <time>2026-03-24T09:51:05.000Z</time>
      </trkpt>
      <trkpt lat="43.1027" lon="-0.50138">
        <ele>732.33</ele>
        <time>2026-03-24T09:51:12.000Z</time>
      </trkpt>
      <trkpt lat="43.10265" lon="-0.50166">
        <ele>733.36</ele>
        <time>2026-03-24T09:51:18.000Z</time>
      </trkpt>
      <trkpt lat="43.10259" lon="-0.50192">
        <ele>734.8</ele>
        <time>2026-03-24T09:51:23.000Z</time>
      </trkpt>
      <trkpt lat="43.10253" lon="-0.50218">
        <ele>738.29</ele>
        <time>2026-03-24T09:51:28.000Z</time>
      </trkpt>
      <trkpt lat="43.1025" lon="-0.50248">
        <ele>737.08</ele>
        <time>2026-03-24T09:51:33.000Z</time>
      </trkpt>
      <trkpt lat="43.10246" lon="-0.50273">
        <ele>734.2</ele>
        <time>2026-03-24T09:51:36.000Z</time>
      </trkpt>
      <trkpt lat="43.1024" lon="-0.503">
        <ele>733.01</ele>
        <time>2026-03-24T09:51:40.000Z</time>
      </trkpt>
      <trkpt lat="43.10236" lon="-0.50326">
        <ele>732.81</ele>
        <time>2026-03-24T09:51:44.000Z</time>
      </trkpt>
      <trkpt lat="43.10231" lon="-0.50352">
        <ele>732.38</ele>
        <time>2026-03-24T09:51:48.000Z</time>
      </trkpt>
      <trkpt lat="43.1022" lon="-0.50381">
        <ele>728</ele>
        <time>2026-03-24T09:51:52.000Z</time>
      </trkpt>
      <trkpt lat="43.10214" lon="-0.50405">
        <ele>726.66</ele>
        <time>2026-03-24T09:51:56.000Z</time>
      </trkpt>
      <trkpt lat="43.10201" lon="-0.50425">
        <ele>726.69</ele>
        <time>2026-03-24T09:52:00.000Z</time>
      </trkpt>
      <trkpt lat="43.10186" lon="-0.50441">
        <ele>727.96</ele>
        <time>2026-03-24T09:52:05.000Z</time>
      </trkpt>
      <trkpt lat="43.10168" lon="-0.50452">
        <ele>729.73</ele>
        <time>2026-03-24T09:52:13.000Z</time>
      </trkpt>
      <trkpt lat="43.10153" lon="-0.50467">
        <ele>732.74</ele>
        <time>2026-03-24T09:52:23.000Z</time>
      </trkpt>
      <trkpt lat="43.10145" lon="-0.5049">
        <ele>732.54</ele>
        <time>2026-03-24T09:52:35.000Z</time>
      </trkpt>
      <trkpt lat="43.10144" lon="-0.50515">
        <ele>739.38</ele>
        <time>2026-03-24T09:52:49.000Z</time>
      </trkpt>
      <trkpt lat="43.10143" lon="-0.50541">
        <ele>738.24</ele>
        <time>2026-03-24T09:53:02.000Z</time>
      </trkpt>
      <trkpt lat="43.10136" lon="-0.50565">
        <ele>740.12</ele>
        <time>2026-03-24T09:53:14.000Z</time>
      </trkpt>
      <trkpt lat="43.10128" lon="-0.50587">
        <ele>742.32</ele>
        <time>2026-03-24T09:53:27.000Z</time>
      </trkpt>
      <trkpt lat="43.10116" lon="-0.50608">
        <ele>746.72</ele>
        <time>2026-03-24T09:53:39.000Z</time>
      </trkpt>
      <trkpt lat="43.10104" lon="-0.50626">
        <ele>745.27</ele>
        <time>2026-03-24T09:53:52.000Z</time>
      </trkpt>
      <trkpt lat="43.10093" lon="-0.50648">
        <ele>749.64</ele>
        <time>2026-03-24T09:54:06.000Z</time>
      </trkpt>
      <trkpt lat="43.10079" lon="-0.50665">
        <ele>751.87</ele>
        <time>2026-03-24T09:54:20.000Z</time>
      </trkpt>
      <trkpt lat="43.10063" lon="-0.5068">
        <ele>755.59</ele>
        <time>2026-03-24T09:54:32.000Z</time>
      </trkpt>
      <trkpt lat="43.10047" lon="-0.50691">
        <ele>756.29</ele>
        <time>2026-03-24T09:54:44.000Z</time>
      </trkpt>
      <trkpt lat="43.10028" lon="-0.507">
        <ele>755.73</ele>
        <time>2026-03-24T09:54:55.000Z</time>
      </trkpt>
      <trkpt lat="43.10011" lon="-0.50708">
        <ele>757.98</ele>
        <time>2026-03-24T09:55:06.000Z</time>
      </trkpt>
      <trkpt lat="43.09994" lon="-0.50718">
        <ele>761.04</ele>
        <time>2026-03-24T09:55:17.000Z</time>
      </trkpt>
      <trkpt lat="43.09978" lon="-0.50732">
        <ele>759.74</ele>
        <time>2026-03-24T09:55:30.000Z</time>
      </trkpt>
      <trkpt lat="43.09965" lon="-0.50752">
        <ele>762.6</ele>
        <time>2026-03-24T09:55:44.000Z</time>
      </trkpt>
      <trkpt lat="43.09957" lon="-0.50775">
        <ele>763.06</ele>
        <time>2026-03-24T09:55:56.000Z</time>
      </trkpt>
      <trkpt lat="43.09954" lon="-0.508">
        <ele>765.91</ele>
        <time>2026-03-24T09:56:08.000Z</time>
      </trkpt>
      <trkpt lat="43.09952" lon="-0.50826">
        <ele>770.23</ele>
        <time>2026-03-24T09:56:21.000Z</time>
      </trkpt>
      <trkpt lat="43.09955" lon="-0.50851">
        <ele>776.08</ele>
        <time>2026-03-24T09:56:34.000Z</time>
      </trkpt>
      <trkpt lat="43.09956" lon="-0.50876">
        <ele>773.88</ele>
        <time>2026-03-24T09:56:45.000Z</time>
      </trkpt>
      <trkpt lat="43.09955" lon="-0.50902">
        <ele>774.56</ele>
        <time>2026-03-24T09:56:57.000Z</time>
      </trkpt>
      <trkpt lat="43.09958" lon="-0.50928">
        <ele>776.49</ele>
        <time>2026-03-24T09:57:10.000Z</time>
      </trkpt>
      <trkpt lat="43.09962" lon="-0.50952">
        <ele>776.59</ele>
        <time>2026-03-24T09:57:21.000Z</time>
      </trkpt>
      <trkpt lat="43.09962" lon="-0.50977">
        <ele>781.22</ele>
        <time>2026-03-24T09:57:32.000Z</time>
      </trkpt>
      <trkpt lat="43.09962" lon="-0.51003">
        <ele>781.05</ele>
        <time>2026-03-24T09:57:44.000Z</time>
      </trkpt>
      <trkpt lat="43.09963" lon="-0.5103">
        <ele>784.84</ele>
        <time>2026-03-24T09:57:57.000Z</time>
      </trkpt>
      <trkpt lat="43.09961" lon="-0.51056">
        <ele>786.34</ele>
        <time>2026-03-24T09:58:10.000Z</time>
      </trkpt>
      <trkpt lat="43.09959" lon="-0.51083">
        <ele>787.31</ele>
        <time>2026-03-24T09:58:23.000Z</time>
      </trkpt>
      <trkpt lat="43.09957" lon="-0.51107">
        <ele>790.74</ele>
        <time>2026-03-24T09:58:35.000Z</time>
      </trkpt>
      <trkpt lat="43.09954" lon="-0.51133">
        <ele>797.39</ele>
        <time>2026-03-24T09:58:48.000Z</time>
      </trkpt>
      <trkpt lat="43.09952" lon="-0.51158">
        <ele>804.53</ele>
        <time>2026-03-24T09:59:01.000Z</time>
      </trkpt>
      <trkpt lat="43.09953" lon="-0.51184">
        <ele>806.39</ele>
        <time>2026-03-24T09:59:14.000Z</time>
      </trkpt>
      <trkpt lat="43.09957" lon="-0.51208">
        <ele>803.01</ele>
        <time>2026-03-24T09:59:27.000Z</time>
      </trkpt>
      <trkpt lat="43.09961" lon="-0.51233">
        <ele>800.7</ele>
        <time>2026-03-24T09:59:38.000Z</time>
      </trkpt>
      <trkpt lat="43.09963" lon="-0.51257">
        <ele>797.84</ele>
        <time>2026-03-24T09:59:47.000Z</time>
      </trkpt>
      <trkpt lat="43.09969" lon="-0.51282">
        <ele>799.98</ele>
        <time>2026-03-24T09:59:59.000Z</time>
      </trkpt>
      <trkpt lat="43.09965" lon="-0.51307">
        <ele>796.81</ele>
        <time>2026-03-24T10:00:11.000Z</time>
      </trkpt>
      <trkpt lat="43.09957" lon="-0.51283">
        <ele>799.49</ele>
        <time>2026-03-24T10:00:26.000Z</time>
      </trkpt>
      <trkpt lat="43.09948" lon="-0.5126">
        <ele>801.3</ele>
        <time>2026-03-24T10:00:36.000Z</time>
      </trkpt>
      <trkpt lat="43.09941" lon="-0.51235">
        <ele>804.51</ele>
        <time>2026-03-24T10:00:46.000Z</time>
      </trkpt>
      <trkpt lat="43.09932" lon="-0.51211">
        <ele>808.98</ele>
        <time>2026-03-24T10:00:57.000Z</time>
      </trkpt>
      <trkpt lat="43.09923" lon="-0.51188">
        <ele>807.75</ele>
        <time>2026-03-24T10:01:07.000Z</time>
      </trkpt>
      <trkpt lat="43.0992" lon="-0.51164">
        <ele>808.6</ele>
        <time>2026-03-24T10:01:18.000Z</time>
      </trkpt>
      <trkpt lat="43.09911" lon="-0.51141">
        <ele>812.49</ele>
        <time>2026-03-24T10:01:28.000Z</time>
      </trkpt>
      <trkpt lat="43.09905" lon="-0.51115">
        <ele>814.79</ele>
        <time>2026-03-24T10:01:38.000Z</time>
      </trkpt>
      <trkpt lat="43.09902" lon="-0.51091">
        <ele>818.51</ele>
        <time>2026-03-24T10:01:47.000Z</time>
      </trkpt>
      <trkpt lat="43.099" lon="-0.51066">
        <ele>821.13</ele>
        <time>2026-03-24T10:01:56.000Z</time>
      </trkpt>
      <trkpt lat="43.09897" lon="-0.51038">
        <ele>818.21</ele>
        <time>2026-03-24T10:02:04.000Z</time>
      </trkpt>
      <trkpt lat="43.09891" lon="-0.51012">
        <ele>819.2</ele>
        <time>2026-03-24T10:02:14.000Z</time>
      </trkpt>
      <trkpt lat="43.09885" lon="-0.50989">
        <ele>820.55</ele>
        <time>2026-03-24T10:02:24.000Z</time>
      </trkpt>
      <trkpt lat="43.09878" lon="-0.50965">
        <ele>824.3</ele>
        <time>2026-03-24T10:02:35.000Z</time>
      </trkpt>
      <trkpt lat="43.0987" lon="-0.50941">
        <ele>827.66</ele>
        <time>2026-03-24T10:02:45.000Z</time>
      </trkpt>
      <trkpt lat="43.09865" lon="-0.50915">
        <ele>828.39</ele>
        <time>2026-03-24T10:02:55.000Z</time>
      </trkpt>
      <trkpt lat="43.09862" lon="-0.5089">
        <ele>833.22</ele>
        <time>2026-03-24T10:03:05.000Z</time>
      </trkpt>
      <trkpt lat="43.09859" lon="-0.50864">
        <ele>832.57</ele>
        <time>2026-03-24T10:03:15.000Z</time>
      </trkpt>
      <trkpt lat="43.09855" lon="-0.50839">
        <ele>833.5</ele>
        <time>2026-03-24T10:03:24.000Z</time>
      </trkpt>
      <trkpt lat="43.09851" lon="-0.50815">
        <ele>836.59</ele>
        <time>2026-03-24T10:03:33.000Z</time>
      </trkpt>
      <trkpt lat="43.09847" lon="-0.5079">
        <ele>835.78</ele>
        <time>2026-03-24T10:03:42.000Z</time>
      </trkpt>
      <trkpt lat="43.09844" lon="-0.50764">
        <ele>835.99</ele>
        <time>2026-03-24T10:03:51.000Z</time>
      </trkpt>
      <trkpt lat="43.09841" lon="-0.50737">
        <ele>837.57</ele>
        <time>2026-03-24T10:04:01.000Z</time>
      </trkpt>
      <trkpt lat="43.09839" lon="-0.5071">
        <ele>837.16</ele>
        <time>2026-03-24T10:04:11.000Z</time>
      </trkpt>
      <trkpt lat="43.09836" lon="-0.50684">
        <ele>838.21</ele>
        <time>2026-03-24T10:04:21.000Z</time>
      </trkpt>
      <trkpt lat="43.09828" lon="-0.50661">
        <ele>839.35</ele>
        <time>2026-03-24T10:04:30.000Z</time>
      </trkpt>
      <trkpt lat="43.09816" lon="-0.50639">
        <ele>841.01</ele>
        <time>2026-03-24T10:04:39.000Z</time>
      </trkpt>
      <trkpt lat="43.09806" lon="-0.50618">
        <ele>841.3</ele>
        <time>2026-03-24T10:04:48.000Z</time>
      </trkpt>
      <trkpt lat="43.09801" lon="-0.50593">
        <ele>838.7</ele>
        <time>2026-03-24T10:04:57.000Z</time>
      </trkpt>
      <trkpt lat="43.09802" lon="-0.50568">
        <ele>838.69</ele>
        <time>2026-03-24T10:05:05.000Z</time>
      </trkpt>
      <trkpt lat="43.09796" lon="-0.50543">
        <ele>837.84</ele>
        <time>2026-03-24T10:05:13.000Z</time>
      </trkpt>
      <trkpt lat="43.09795" lon="-0.50518">
        <ele>844</ele>
        <time>2026-03-24T10:05:21.000Z</time>
      </trkpt>
      <trkpt lat="43.09787" lon="-0.50495">
        <ele>844.26</ele>
        <time>2026-03-24T10:05:33.000Z</time>
      </trkpt>
      <trkpt lat="43.09779" lon="-0.50473">
        <ele>847.51</ele>
        <time>2026-03-24T10:05:44.000Z</time>
      </trkpt>
      <trkpt lat="43.09764" lon="-0.50455">
        <ele>851.39</ele>
        <time>2026-03-24T10:05:56.000Z</time>
      </trkpt>
      <trkpt lat="43.09754" lon="-0.50432">
        <ele>850.7</ele>
        <time>2026-03-24T10:06:08.000Z</time>
      </trkpt>
      <trkpt lat="43.09748" lon="-0.50408">
        <ele>857.48</ele>
        <time>2026-03-24T10:06:19.000Z</time>
      </trkpt>
      <trkpt lat="43.09742" lon="-0.50383">
        <ele>859</ele>
        <time>2026-03-24T10:06:33.000Z</time>
      </trkpt>
      <trkpt lat="43.09742" lon="-0.50357">
        <ele>859.74</ele>
        <time>2026-03-24T10:06:46.000Z</time>
      </trkpt>
      <trkpt lat="43.09738" lon="-0.50331">
        <ele>851.08</ele>
        <time>2026-03-24T10:06:58.000Z</time>
      </trkpt>
      <trkpt lat="43.09738" lon="-0.50304">
        <ele>861.55</ele>
        <time>2026-03-24T10:07:10.000Z</time>
      </trkpt>
      <trkpt lat="43.09739" lon="-0.50279">
        <ele>867.66</ele>
        <time>2026-03-24T10:07:20.000Z</time>
      </trkpt>
      <trkpt lat="43.09739" lon="-0.50253">
        <ele>869.21</ele>
        <time>2026-03-24T10:07:31.000Z</time>
      </trkpt>
      <trkpt lat="43.0973" lon="-0.50231">
        <ele>869.59</ele>
        <time>2026-03-24T10:07:42.000Z</time>
      </trkpt>
      <trkpt lat="43.09719" lon="-0.5021">
        <ele>872.86</ele>
        <time>2026-03-24T10:07:54.000Z</time>
      </trkpt>
      <trkpt lat="43.09703" lon="-0.50198">
        <ele>870.56</ele>
        <time>2026-03-24T10:08:07.000Z</time>
      </trkpt>
      <trkpt lat="43.09686" lon="-0.50184">
        <ele>871.32</ele>
        <time>2026-03-24T10:08:18.000Z</time>
      </trkpt>
      <trkpt lat="43.09671" lon="-0.50168">
        <ele>878.73</ele>
        <time>2026-03-24T10:08:29.000Z</time>
      </trkpt>
      <trkpt lat="43.09655" lon="-0.50152">
        <ele>884.43</ele>
        <time>2026-03-24T10:08:39.000Z</time>
      </trkpt>
      <trkpt lat="43.09638" lon="-0.5014">
        <ele>888.24</ele>
        <time>2026-03-24T10:08:48.000Z</time>
      </trkpt>
      <trkpt lat="43.09636" lon="-0.50115">
        <ele>892.54</ele>
        <time>2026-03-24T10:09:03.000Z</time>
      </trkpt>
      <trkpt lat="43.09652" lon="-0.50103">
        <ele>888.73</ele>
        <time>2026-03-24T10:09:14.000Z</time>
      </trkpt>
      <trkpt lat="43.09667" lon="-0.50089">
        <ele>880.85</ele>
        <time>2026-03-24T10:09:23.000Z</time>
      </trkpt>
      <trkpt lat="43.09669" lon="-0.50064">
        <ele>878.31</ele>
        <time>2026-03-24T10:09:34.000Z</time>
      </trkpt>
      <trkpt lat="43.09659" lon="-0.50042">
        <ele>876.05</ele>
        <time>2026-03-24T10:09:45.000Z</time>
      </trkpt>
      <trkpt lat="43.09645" lon="-0.50025">
        <ele>876.54</ele>
        <time>2026-03-24T10:09:55.000Z</time>
      </trkpt>
      <trkpt lat="43.09632" lon="-0.50007">
        <ele>873.66</ele>
        <time>2026-03-24T10:10:05.000Z</time>
      </trkpt>
      <trkpt lat="43.09617" lon="-0.49993">
        <ele>878.14</ele>
        <time>2026-03-24T10:10:15.000Z</time>
      </trkpt>
      <trkpt lat="43.096" lon="-0.4998">
        <ele>891.76</ele>
        <time>2026-03-24T10:10:29.000Z</time>
      </trkpt>
      <trkpt lat="43.09584" lon="-0.4997">
        <ele>896.9</ele>
        <time>2026-03-24T10:10:38.000Z</time>
      </trkpt>
      <trkpt lat="43.09568" lon="-0.49955">
        <ele>899.93</ele>
        <time>2026-03-24T10:10:48.000Z</time>
      </trkpt>
      <trkpt lat="43.09553" lon="-0.49942">
        <ele>901.12</ele>
        <time>2026-03-24T10:10:57.000Z</time>
      </trkpt>
      <trkpt lat="43.09537" lon="-0.49926">
        <ele>908.57</ele>
        <time>2026-03-24T10:11:06.000Z</time>
      </trkpt>
      <trkpt lat="43.09521" lon="-0.49914">
        <ele>908.67</ele>
        <time>2026-03-24T10:11:16.000Z</time>
      </trkpt>
      <trkpt lat="43.09504" lon="-0.49901">
        <ele>910.33</ele>
        <time>2026-03-24T10:11:27.000Z</time>
      </trkpt>
      <trkpt lat="43.09486" lon="-0.49893">
        <ele>911.07</ele>
        <time>2026-03-24T10:11:36.000Z</time>
      </trkpt>
      <trkpt lat="43.09468" lon="-0.49885">
        <ele>910.93</ele>
        <time>2026-03-24T10:11:46.000Z</time>
      </trkpt>
      <trkpt lat="43.0945" lon="-0.49876">
        <ele>912.28</ele>
        <time>2026-03-24T10:11:56.000Z</time>
      </trkpt>
      <trkpt lat="43.09432" lon="-0.49865">
        <ele>915.3</ele>
        <time>2026-03-24T10:12:06.000Z</time>
      </trkpt>
      <trkpt lat="43.09415" lon="-0.49857">
        <ele>917.39</ele>
        <time>2026-03-24T10:12:15.000Z</time>
      </trkpt>
      <trkpt lat="43.094" lon="-0.49841">
        <ele>922.18</ele>
        <time>2026-03-24T10:12:24.000Z</time>
      </trkpt>
      <trkpt lat="43.09387" lon="-0.49823">
        <ele>923.13</ele>
        <time>2026-03-24T10:12:36.000Z</time>
      </trkpt>
      <trkpt lat="43.09379" lon="-0.498">
        <ele>923.25</ele>
        <time>2026-03-24T10:12:47.000Z</time>
      </trkpt>
      <trkpt lat="43.09373" lon="-0.49776">
        <ele>924.21</ele>
        <time>2026-03-24T10:12:57.000Z</time>
      </trkpt>
      <trkpt lat="43.09365" lon="-0.49753">
        <ele>924.5</ele>
        <time>2026-03-24T10:13:08.000Z</time>
      </trkpt>
      <trkpt lat="43.09354" lon="-0.49733">
        <ele>923.26</ele>
        <time>2026-03-24T10:13:19.000Z</time>
      </trkpt>
      <trkpt lat="43.0934" lon="-0.49717">
        <ele>926.53</ele>
        <time>2026-03-24T10:13:29.000Z</time>
      </trkpt>
      <trkpt lat="43.09325" lon="-0.49701">
        <ele>931.37</ele>
        <time>2026-03-24T10:13:38.000Z</time>
      </trkpt>
      <trkpt lat="43.09313" lon="-0.49682">
        <ele>936.5</ele>
        <time>2026-03-24T10:13:49.000Z</time>
      </trkpt>
      <trkpt lat="43.09302" lon="-0.49659">
        <ele>935.88</ele>
        <time>2026-03-24T10:14:02.000Z</time>
      </trkpt>
      <trkpt lat="43.09292" lon="-0.49638">
        <ele>934.91</ele>
        <time>2026-03-24T10:14:12.000Z</time>
      </trkpt>
      <trkpt lat="43.0928" lon="-0.49619">
        <ele>933.67</ele>
        <time>2026-03-24T10:14:21.000Z</time>
      </trkpt>
      <trkpt lat="43.09266" lon="-0.496">
        <ele>934.63</ele>
        <time>2026-03-24T10:14:30.000Z</time>
      </trkpt>
      <trkpt lat="43.09253" lon="-0.49579">
        <ele>934.96</ele>
        <time>2026-03-24T10:14:39.000Z</time>
      </trkpt>
      <trkpt lat="43.09239" lon="-0.49563">
        <ele>934.75</ele>
        <time>2026-03-24T10:14:49.000Z</time>
      </trkpt>
      <trkpt lat="43.09225" lon="-0.49547">
        <ele>933.89</ele>
        <time>2026-03-24T10:15:00.000Z</time>
      </trkpt>
      <trkpt lat="43.0921" lon="-0.49527">
        <ele>940.47</ele>
        <time>2026-03-24T10:15:11.000Z</time>
      </trkpt>
      <trkpt lat="43.09197" lon="-0.49509">
        <ele>945.2</ele>
        <time>2026-03-24T10:15:20.000Z</time>
      </trkpt>
      <trkpt lat="43.09184" lon="-0.49491">
        <ele>949.58</ele>
        <time>2026-03-24T10:15:29.000Z</time>
      </trkpt>
      <trkpt lat="43.09172" lon="-0.4947">
        <ele>950.89</ele>
        <time>2026-03-24T10:15:39.000Z</time>
      </trkpt>
      <trkpt lat="43.09162" lon="-0.49448">
        <ele>948.44</ele>
        <time>2026-03-24T10:15:51.000Z</time>
      </trkpt>
      <trkpt lat="43.09152" lon="-0.49427">
        <ele>945.91</ele>
        <time>2026-03-24T10:16:01.000Z</time>
      </trkpt>
      <trkpt lat="43.09147" lon="-0.49403">
        <ele>948.34</ele>
        <time>2026-03-24T10:16:10.000Z</time>
      </trkpt>
      <trkpt lat="43.09146" lon="-0.49378">
        <ele>949.85</ele>
        <time>2026-03-24T10:16:21.000Z</time>
      </trkpt>
      <trkpt lat="43.09146" lon="-0.49352">
        <ele>950.83</ele>
        <time>2026-03-24T10:16:30.000Z</time>
      </trkpt>
      <trkpt lat="43.09144" lon="-0.49327">
        <ele>948.05</ele>
        <time>2026-03-24T10:16:39.000Z</time>
      </trkpt>
      <trkpt lat="43.09145" lon="-0.49301">
        <ele>948.42</ele>
        <time>2026-03-24T10:16:48.000Z</time>
      </trkpt>
      <trkpt lat="43.09144" lon="-0.49274">
        <ele>945.95</ele>
        <time>2026-03-24T10:16:56.000Z</time>
      </trkpt>
      <trkpt lat="43.09138" lon="-0.49249">
        <ele>946.29</ele>
        <time>2026-03-24T10:17:06.000Z</time>
      </trkpt>
      <trkpt lat="43.09127" lon="-0.49229">
        <ele>938.83</ele>
        <time>2026-03-24T10:25:12.000Z</time>
      </trkpt>
      <trkpt lat="43.09107" lon="-0.49231">
        <ele>945.55</ele>
        <time>2026-03-24T10:25:27.000Z</time>
      </trkpt>
      <trkpt lat="43.0909" lon="-0.49237">
        <ele>948.5</ele>
        <time>2026-03-24T10:25:39.000Z</time>
      </trkpt>
      <trkpt lat="43.09071" lon="-0.49243">
        <ele>949.14</ele>
        <time>2026-03-24T10:25:50.000Z</time>
      </trkpt>
      <trkpt lat="43.09051" lon="-0.49247">
        <ele>949.32</ele>
        <time>2026-03-24T10:26:03.000Z</time>
      </trkpt>
      <trkpt lat="43.09034" lon="-0.49256">
        <ele>952.15</ele>
        <time>2026-03-24T10:26:14.000Z</time>
      </trkpt>
      <trkpt lat="43.09021" lon="-0.49276">
        <ele>953.47</ele>
        <time>2026-03-24T10:26:28.000Z</time>
      </trkpt>
      <trkpt lat="43.09007" lon="-0.49291">
        <ele>955.04</ele>
        <time>2026-03-24T10:26:39.000Z</time>
      </trkpt>
      <trkpt lat="43.08988" lon="-0.49292">
        <ele>957.81</ele>
        <time>2026-03-24T10:26:52.000Z</time>
      </trkpt>
      <trkpt lat="43.08969" lon="-0.49281">
        <ele>953.62</ele>
        <time>2026-03-24T10:26:58.000Z</time>
      </trkpt>
      <trkpt lat="43.08975" lon="-0.49256">
        <ele>963.05</ele>
        <time>2026-03-24T10:27:08.000Z</time>
      </trkpt>
      <trkpt lat="43.0898" lon="-0.49231">
        <ele>967.46</ele>
        <time>2026-03-24T10:27:17.000Z</time>
      </trkpt>
      <trkpt lat="43.08984" lon="-0.49206">
        <ele>967.47</ele>
        <time>2026-03-24T10:27:24.000Z</time>
      </trkpt>
      <trkpt lat="43.08985" lon="-0.4918">
        <ele>966.5</ele>
        <time>2026-03-24T10:27:33.000Z</time>
      </trkpt>
      <trkpt lat="43.0899" lon="-0.49154">
        <ele>968.72</ele>
        <time>2026-03-24T10:27:43.000Z</time>
      </trkpt>
      <trkpt lat="43.08996" lon="-0.4913">
        <ele>968.62</ele>
        <time>2026-03-24T10:27:52.000Z</time>
      </trkpt>
      <trkpt lat="43.09001" lon="-0.49106">
        <ele>972.77</ele>
        <time>2026-03-24T10:28:00.000Z</time>
      </trkpt>
      <trkpt lat="43.09" lon="-0.49081">
        <ele>969.39</ele>
        <time>2026-03-24T10:28:09.000Z</time>
      </trkpt>
      <trkpt lat="43.08991" lon="-0.49057">
        <ele>969.36</ele>
        <time>2026-03-24T10:28:20.000Z</time>
      </trkpt>
      <trkpt lat="43.08986" lon="-0.49033">
        <ele>970.17</ele>
        <time>2026-03-24T10:28:29.000Z</time>
      </trkpt>
      <trkpt lat="43.08978" lon="-0.4901">
        <ele>969.07</ele>
        <time>2026-03-24T10:28:38.000Z</time>
      </trkpt>
      <trkpt lat="43.08967" lon="-0.4899">
        <ele>969.92</ele>
        <time>2026-03-24T10:28:47.000Z</time>
      </trkpt>
      <trkpt lat="43.08957" lon="-0.48969">
        <ele>973.06</ele>
        <time>2026-03-24T10:28:57.000Z</time>
      </trkpt>
      <trkpt lat="43.08948" lon="-0.48947">
        <ele>974.93</ele>
        <time>2026-03-24T10:29:07.000Z</time>
      </trkpt>
      <trkpt lat="43.08945" lon="-0.48923">
        <ele>976.22</ele>
        <time>2026-03-24T10:29:18.000Z</time>
      </trkpt>
      <trkpt lat="43.08941" lon="-0.48898">
        <ele>981.87</ele>
        <time>2026-03-24T10:29:29.000Z</time>
      </trkpt>
      <trkpt lat="43.08939" lon="-0.48871">
        <ele>988.69</ele>
        <time>2026-03-24T10:29:40.000Z</time>
      </trkpt>
      <trkpt lat="43.08937" lon="-0.48845">
        <ele>989.07</ele>
        <time>2026-03-24T10:29:49.000Z</time>
      </trkpt>
      <trkpt lat="43.08931" lon="-0.4882">
        <ele>985.84</ele>
        <time>2026-03-24T10:29:58.000Z</time>
      </trkpt>
      <trkpt lat="43.08923" lon="-0.48798">
        <ele>988.29</ele>
        <time>2026-03-24T10:30:07.000Z</time>
      </trkpt>
      <trkpt lat="43.08916" lon="-0.48774">
        <ele>992.66</ele>
        <time>2026-03-24T10:30:18.000Z</time>
      </trkpt>
      <trkpt lat="43.08902" lon="-0.48757">
        <ele>993.7</ele>
        <time>2026-03-24T10:30:29.000Z</time>
      </trkpt>
      <trkpt lat="43.08885" lon="-0.48743">
        <ele>997.95</ele>
        <time>2026-03-24T10:30:37.000Z</time>
      </trkpt>
      <trkpt lat="43.08868" lon="-0.48737">
        <ele>992.06</ele>
        <time>2026-03-24T10:30:46.000Z</time>
      </trkpt>
      <trkpt lat="43.08849" lon="-0.48734">
        <ele>994.22</ele>
        <time>2026-03-24T10:30:56.000Z</time>
      </trkpt>
      <trkpt lat="43.0883" lon="-0.48732">
        <ele>996.22</ele>
        <time>2026-03-24T10:31:09.000Z</time>
      </trkpt>
      <trkpt lat="43.08811" lon="-0.48731">
        <ele>996.93</ele>
        <time>2026-03-24T10:31:17.000Z</time>
      </trkpt>
      <trkpt lat="43.08793" lon="-0.48723">
        <ele>996.66</ele>
        <time>2026-03-24T10:31:23.000Z</time>
      </trkpt>
      <trkpt lat="43.08796" lon="-0.48697">
        <ele>996.22</ele>
        <time>2026-03-24T10:31:34.000Z</time>
      </trkpt>
      <trkpt lat="43.0881" lon="-0.48678">
        <ele>998.35</ele>
        <time>2026-03-24T10:31:42.000Z</time>
      </trkpt>
      <trkpt lat="43.08823" lon="-0.4866">
        <ele>991.76</ele>
        <time>2026-03-24T10:31:49.000Z</time>
      </trkpt>
      <trkpt lat="43.08831" lon="-0.48636">
        <ele>999.81</ele>
        <time>2026-03-24T10:31:59.000Z</time>
      </trkpt>
      <trkpt lat="43.08829" lon="-0.48611">
        <ele>1002.13</ele>
        <time>2026-03-24T10:32:10.000Z</time>
      </trkpt>
      <trkpt lat="43.08824" lon="-0.48587">
        <ele>1000.49</ele>
        <time>2026-03-24T10:32:20.000Z</time>
      </trkpt>
      <trkpt lat="43.08817" lon="-0.48564">
        <ele>998.57</ele>
        <time>2026-03-24T10:32:30.000Z</time>
      </trkpt>
      <trkpt lat="43.08805" lon="-0.48544">
        <ele>1002.77</ele>
        <time>2026-03-24T10:32:41.000Z</time>
      </trkpt>
      <trkpt lat="43.08796" lon="-0.48522">
        <ele>1004.05</ele>
        <time>2026-03-24T10:32:51.000Z</time>
      </trkpt>
      <trkpt lat="43.08786" lon="-0.48499">
        <ele>1006.7</ele>
        <time>2026-03-24T10:33:03.000Z</time>
      </trkpt>
      <trkpt lat="43.08774" lon="-0.48479">
        <ele>1012.04</ele>
        <time>2026-03-24T10:33:13.000Z</time>
      </trkpt>
      <trkpt lat="43.0876" lon="-0.4846">
        <ele>1015.79</ele>
        <time>2026-03-24T10:33:22.000Z</time>
      </trkpt>
      <trkpt lat="43.0875" lon="-0.48438">
        <ele>1014.45</ele>
        <time>2026-03-24T10:33:32.000Z</time>
      </trkpt>
      <trkpt lat="43.08743" lon="-0.48416">
        <ele>1005.84</ele>
        <time>2026-03-24T10:33:42.000Z</time>
      </trkpt>
      <trkpt lat="43.08733" lon="-0.48394">
        <ele>1008.86</ele>
        <time>2026-03-24T10:33:53.000Z</time>
      </trkpt>
      <trkpt lat="43.08728" lon="-0.48371">
        <ele>1014.83</ele>
        <time>2026-03-24T10:34:03.000Z</time>
      </trkpt>
      <trkpt lat="43.08722" lon="-0.48346">
        <ele>1017.41</ele>
        <time>2026-03-24T10:34:13.000Z</time>
      </trkpt>
      <trkpt lat="43.08715" lon="-0.4832">
        <ele>1024.34</ele>
        <time>2026-03-24T10:34:25.000Z</time>
      </trkpt>
      <trkpt lat="43.08708" lon="-0.48295">
        <ele>1029.55</ele>
        <time>2026-03-24T10:34:36.000Z</time>
      </trkpt>
      <trkpt lat="43.08699" lon="-0.48272">
        <ele>1028.99</ele>
        <time>2026-03-24T10:34:46.000Z</time>
      </trkpt>
      <trkpt lat="43.08685" lon="-0.48253">
        <ele>1026.82</ele>
        <time>2026-03-24T10:34:59.000Z</time>
      </trkpt>
      <trkpt lat="43.08674" lon="-0.48234">
        <ele>1033.18</ele>
        <time>2026-03-24T10:35:07.000Z</time>
      </trkpt>
      <trkpt lat="43.08663" lon="-0.48212">
        <ele>1039.41</ele>
        <time>2026-03-24T10:35:16.000Z</time>
      </trkpt>
      <trkpt lat="43.08655" lon="-0.4819">
        <ele>1035.13</ele>
        <time>2026-03-24T10:35:22.000Z</time>
      </trkpt>
      <trkpt lat="43.08672" lon="-0.48177">
        <ele>1037.78</ele>
        <time>2026-03-24T10:35:35.000Z</time>
      </trkpt>
      <trkpt lat="43.08679" lon="-0.48153">
        <ele>1035.42</ele>
        <time>2026-03-24T10:35:45.000Z</time>
      </trkpt>
      <trkpt lat="43.08683" lon="-0.48128">
        <ele>1036.69</ele>
        <time>2026-03-24T10:35:56.000Z</time>
      </trkpt>
      <trkpt lat="43.08682" lon="-0.48101">
        <ele>1038.67</ele>
        <time>2026-03-24T10:36:08.000Z</time>
      </trkpt>
      <trkpt lat="43.08676" lon="-0.48077">
        <ele>1042.76</ele>
        <time>2026-03-24T10:36:19.000Z</time>
      </trkpt>
      <trkpt lat="43.08668" lon="-0.48052">
        <ele>1046.72</ele>
        <time>2026-03-24T10:36:28.000Z</time>
      </trkpt>
      <trkpt lat="43.08653" lon="-0.48033">
        <ele>1048.53</ele>
        <time>2026-03-24T10:36:37.000Z</time>
      </trkpt>
      <trkpt lat="43.08641" lon="-0.48015">
        <ele>1048.73</ele>
        <time>2026-03-24T10:36:45.000Z</time>
      </trkpt>
      <trkpt lat="43.08627" lon="-0.47995">
        <ele>1053.41</ele>
        <time>2026-03-24T10:36:56.000Z</time>
      </trkpt>
      <trkpt lat="43.08615" lon="-0.47978">
        <ele>1055.39</ele>
        <time>2026-03-24T10:37:06.000Z</time>
      </trkpt>
      <trkpt lat="43.08602" lon="-0.47958">
        <ele>1057.36</ele>
        <time>2026-03-24T10:37:19.000Z</time>
      </trkpt>
      <trkpt lat="43.0859" lon="-0.47937">
        <ele>1062</ele>
        <time>2026-03-24T10:37:30.000Z</time>
      </trkpt>
      <trkpt lat="43.08577" lon="-0.47918">
        <ele>1067.51</ele>
        <time>2026-03-24T10:37:40.000Z</time>
      </trkpt>
      <trkpt lat="43.08565" lon="-0.479">
        <ele>1070.24</ele>
        <time>2026-03-24T10:37:50.000Z</time>
      </trkpt>
      <trkpt lat="43.08553" lon="-0.4788">
        <ele>1072.59</ele>
        <time>2026-03-24T10:37:59.000Z</time>
      </trkpt>
      <trkpt lat="43.08542" lon="-0.47858">
        <ele>1069.74</ele>
        <time>2026-03-24T10:38:08.000Z</time>
      </trkpt>
      <trkpt lat="43.08532" lon="-0.47834">
        <ele>1070.64</ele>
        <time>2026-03-24T10:38:18.000Z</time>
      </trkpt>
      <trkpt lat="43.08523" lon="-0.47811">
        <ele>1072.12</ele>
        <time>2026-03-24T10:38:28.000Z</time>
      </trkpt>
      <trkpt lat="43.08515" lon="-0.47787">
        <ele>1075.01</ele>
        <time>2026-03-24T10:38:40.000Z</time>
      </trkpt>
      <trkpt lat="43.08511" lon="-0.47761">
        <ele>1080.94</ele>
        <time>2026-03-24T10:38:52.000Z</time>
      </trkpt>
      <trkpt lat="43.08507" lon="-0.47737">
        <ele>1079.89</ele>
        <time>2026-03-24T10:39:01.000Z</time>
      </trkpt>
      <trkpt lat="43.08505" lon="-0.47709">
        <ele>1076.66</ele>
        <time>2026-03-24T10:39:09.000Z</time>
      </trkpt>
      <trkpt lat="43.08507" lon="-0.47683">
        <ele>1076.25</ele>
        <time>2026-03-24T10:39:17.000Z</time>
      </trkpt>
      <trkpt lat="43.08497" lon="-0.47661">
        <ele>1074.4</ele>
        <time>2026-03-24T10:39:26.000Z</time>
      </trkpt>
      <trkpt lat="43.08488" lon="-0.47639">
        <ele>1074.16</ele>
        <time>2026-03-24T10:39:36.000Z</time>
      </trkpt>
      <trkpt lat="43.08479" lon="-0.47616">
        <ele>1079.57</ele>
        <time>2026-03-24T10:39:47.000Z</time>
      </trkpt>
      <trkpt lat="43.08479" lon="-0.4759">
        <ele>1083.19</ele>
        <time>2026-03-24T10:39:58.000Z</time>
      </trkpt>
      <trkpt lat="43.08482" lon="-0.47562">
        <ele>1079.97</ele>
        <time>2026-03-24T10:40:06.000Z</time>
      </trkpt>
      <trkpt lat="43.08484" lon="-0.47536">
        <ele>1080.1</ele>
        <time>2026-03-24T10:40:14.000Z</time>
      </trkpt>
      <trkpt lat="43.08486" lon="-0.47509">
        <ele>1081.1</ele>
        <time>2026-03-24T10:40:23.000Z</time>
      </trkpt>
      <trkpt lat="43.08491" lon="-0.47484">
        <ele>1078.6</ele>
        <time>2026-03-24T10:40:30.000Z</time>
      </trkpt>
      <trkpt lat="43.08497" lon="-0.47459">
        <ele>1076.26</ele>
        <time>2026-03-24T10:40:38.000Z</time>
      </trkpt>
      <trkpt lat="43.08503" lon="-0.47434">
        <ele>1076.38</ele>
        <time>2026-03-24T10:40:45.000Z</time>
      </trkpt>
      <trkpt lat="43.08514" lon="-0.47411">
        <ele>1079.4</ele>
        <time>2026-03-24T10:40:52.000Z</time>
      </trkpt>
      <trkpt lat="43.08523" lon="-0.47389">
        <ele>1078.44</ele>
        <time>2026-03-24T10:41:01.000Z</time>
      </trkpt>
      <trkpt lat="43.08511" lon="-0.4741">
        <ele>1073.75</ele>
        <time>2026-03-24T10:43:48.000Z</time>
      </trkpt>
      <trkpt lat="43.08502" lon="-0.47434">
        <ele>1074.85</ele>
        <time>2026-03-24T10:43:58.000Z</time>
      </trkpt>
      <trkpt lat="43.0849" lon="-0.47455">
        <ele>1075.01</ele>
        <time>2026-03-24T10:44:10.000Z</time>
      </trkpt>
      <trkpt lat="43.08477" lon="-0.47472">
        <ele>1069.7</ele>
        <time>2026-03-24T10:44:19.000Z</time>
      </trkpt>
      <trkpt lat="43.08461" lon="-0.47487">
        <ele>1069.93</ele>
        <time>2026-03-24T10:44:31.000Z</time>
      </trkpt>
      <trkpt lat="43.08455" lon="-0.47511">
        <ele>1077.93</ele>
        <time>2026-03-24T10:44:45.000Z</time>
      </trkpt>
      <trkpt lat="43.08453" lon="-0.47536">
        <ele>1089.91</ele>
        <time>2026-03-24T10:45:01.000Z</time>
      </trkpt>
      <trkpt lat="43.08447" lon="-0.4756">
        <ele>1094.26</ele>
        <time>2026-03-24T10:45:16.000Z</time>
      </trkpt>
      <trkpt lat="43.08441" lon="-0.47584">
        <ele>1091.85</ele>
        <time>2026-03-24T10:45:29.000Z</time>
      </trkpt>
      <trkpt lat="43.08433" lon="-0.47607">
        <ele>1084.64</ele>
        <time>2026-03-24T10:45:38.000Z</time>
      </trkpt>
      <trkpt lat="43.08427" lon="-0.47632">
        <ele>1087.13</ele>
        <time>2026-03-24T10:45:51.000Z</time>
      </trkpt>
      <trkpt lat="43.08431" lon="-0.47657">
        <ele>1092.99</ele>
        <time>2026-03-24T10:46:05.000Z</time>
      </trkpt>
      <trkpt lat="43.0843" lon="-0.47682">
        <ele>1093.42</ele>
        <time>2026-03-24T10:46:19.000Z</time>
      </trkpt>
      <trkpt lat="43.0843" lon="-0.47707">
        <ele>1097.17</ele>
        <time>2026-03-24T10:46:34.000Z</time>
      </trkpt>
      <trkpt lat="43.0843" lon="-0.47732">
        <ele>1100.7</ele>
        <time>2026-03-24T10:46:48.000Z</time>
      </trkpt>
      <trkpt lat="43.08427" lon="-0.47758">
        <ele>1101.85</ele>
        <time>2026-03-24T10:47:01.000Z</time>
      </trkpt>
      <trkpt lat="43.08431" lon="-0.47783">
        <ele>1107.27</ele>
        <time>2026-03-24T10:47:15.000Z</time>
      </trkpt>
      <trkpt lat="43.08433" lon="-0.47808">
        <ele>1109.54</ele>
        <time>2026-03-24T10:47:26.000Z</time>
      </trkpt>
      <trkpt lat="43.08435" lon="-0.47833">
        <ele>1111.01</ele>
        <time>2026-03-24T10:47:36.000Z</time>
      </trkpt>
      <trkpt lat="43.08441" lon="-0.47856">
        <ele>1113.06</ele>
        <time>2026-03-24T10:47:46.000Z</time>
      </trkpt>
      <trkpt lat="43.08447" lon="-0.4788">
        <ele>1114.73</ele>
        <time>2026-03-24T10:48:00.000Z</time>
      </trkpt>
      <trkpt lat="43.08455" lon="-0.47902">
        <ele>1114.69</ele>
        <time>2026-03-24T10:48:13.000Z</time>
      </trkpt>
      <trkpt lat="43.0846" lon="-0.47927">
        <ele>1113.82</ele>
        <time>2026-03-24T10:48:24.000Z</time>
      </trkpt>
      <trkpt lat="43.0846" lon="-0.47952">
        <ele>1114.82</ele>
        <time>2026-03-24T10:48:34.000Z</time>
      </trkpt>
      <trkpt lat="43.08459" lon="-0.47978">
        <ele>1117.16</ele>
        <time>2026-03-24T10:48:45.000Z</time>
      </trkpt>
      <trkpt lat="43.08459" lon="-0.48004">
        <ele>1118.79</ele>
        <time>2026-03-24T10:48:56.000Z</time>
      </trkpt>
      <trkpt lat="43.08443" lon="-0.48017">
        <ele>1115.6</ele>
        <time>2026-03-24T10:49:08.000Z</time>
      </trkpt>
      <trkpt lat="43.08425" lon="-0.48023">
        <ele>1121.01</ele>
        <time>2026-03-24T10:49:21.000Z</time>
      </trkpt>
      <trkpt lat="43.08407" lon="-0.48028">
        <ele>1124.33</ele>
        <time>2026-03-24T10:49:34.000Z</time>
      </trkpt>
      <trkpt lat="43.0839" lon="-0.48037">
        <ele>1131.06</ele>
        <time>2026-03-24T10:49:44.000Z</time>
      </trkpt>
      <trkpt lat="43.08372" lon="-0.48044">
        <ele>1132.86</ele>
        <time>2026-03-24T10:49:55.000Z</time>
      </trkpt>
      <trkpt lat="43.08354" lon="-0.48051">
        <ele>1137.9</ele>
        <time>2026-03-24T10:50:07.000Z</time>
      </trkpt>
      <trkpt lat="43.08335" lon="-0.48057">
        <ele>1140.52</ele>
        <time>2026-03-24T10:50:19.000Z</time>
      </trkpt>
      <trkpt lat="43.08318" lon="-0.48063">
        <ele>1144.88</ele>
        <time>2026-03-24T10:50:31.000Z</time>
      </trkpt>
      <trkpt lat="43.08331" lon="-0.48082">
        <ele>1146.56</ele>
        <time>2026-03-24T10:51:00.000Z</time>
      </trkpt>
      <trkpt lat="43.08347" lon="-0.48096">
        <ele>1144.73</ele>
        <time>2026-03-24T10:51:14.000Z</time>
      </trkpt>
      <trkpt lat="43.08363" lon="-0.4811">
        <ele>1148.03</ele>
        <time>2026-03-24T10:51:27.000Z</time>
      </trkpt>
      <trkpt lat="43.0838" lon="-0.48121">
        <ele>1150.05</ele>
        <time>2026-03-24T10:51:41.000Z</time>
      </trkpt>
      <trkpt lat="43.08389" lon="-0.48143">
        <ele>1149.59</ele>
        <time>2026-03-24T10:51:51.000Z</time>
      </trkpt>
      <trkpt lat="43.08399" lon="-0.48165">
        <ele>1149.85</ele>
        <time>2026-03-24T10:52:03.000Z</time>
      </trkpt>
      <trkpt lat="43.08412" lon="-0.48184">
        <ele>1153.62</ele>
        <time>2026-03-24T10:52:16.000Z</time>
      </trkpt>
      <trkpt lat="43.08424" lon="-0.48206">
        <ele>1154.52</ele>
        <time>2026-03-24T10:52:28.000Z</time>
      </trkpt>
      <trkpt lat="43.08428" lon="-0.48232">
        <ele>1154.72</ele>
        <time>2026-03-24T10:52:39.000Z</time>
      </trkpt>
      <trkpt lat="43.08431" lon="-0.48257">
        <ele>1154.99</ele>
        <time>2026-03-24T10:52:50.000Z</time>
      </trkpt>
      <trkpt lat="43.08436" lon="-0.48282">
        <ele>1155.06</ele>
        <time>2026-03-24T10:53:01.000Z</time>
      </trkpt>
      <trkpt lat="43.0844" lon="-0.48307">
        <ele>1158.38</ele>
        <time>2026-03-24T10:53:12.000Z</time>
      </trkpt>
      <trkpt lat="43.08443" lon="-0.48332">
        <ele>1160.61</ele>
        <time>2026-03-24T10:53:22.000Z</time>
      </trkpt>
      <trkpt lat="43.08448" lon="-0.48358">
        <ele>1165.77</ele>
        <time>2026-03-24T10:53:34.000Z</time>
      </trkpt>
      <trkpt lat="43.08452" lon="-0.48384">
        <ele>1163.82</ele>
        <time>2026-03-24T10:53:46.000Z</time>
      </trkpt>
      <trkpt lat="43.08457" lon="-0.4841">
        <ele>1166.49</ele>
        <time>2026-03-24T10:53:57.000Z</time>
      </trkpt>
      <trkpt lat="43.08455" lon="-0.48436">
        <ele>1167.12</ele>
        <time>2026-03-24T10:54:08.000Z</time>
      </trkpt>
      <trkpt lat="43.08438" lon="-0.48451">
        <ele>1166.88</ele>
        <time>2026-03-24T10:54:21.000Z</time>
      </trkpt>
      <trkpt lat="43.08421" lon="-0.48443">
        <ele>1161.39</ele>
        <time>2026-03-24T10:57:21.000Z</time>
      </trkpt>
      <trkpt lat="43.08405" lon="-0.48427">
        <ele>1163.83</ele>
        <time>2026-03-24T10:57:31.000Z</time>
      </trkpt>
      <trkpt lat="43.08393" lon="-0.48408">
        <ele>1164.6</ele>
        <time>2026-03-24T10:57:42.000Z</time>
      </trkpt>
      <trkpt lat="43.08379" lon="-0.4839">
        <ele>1167.14</ele>
        <time>2026-03-24T10:57:54.000Z</time>
      </trkpt>
      <trkpt lat="43.08363" lon="-0.48375">
        <ele>1172.66</ele>
        <time>2026-03-24T10:58:05.000Z</time>
      </trkpt>
      <trkpt lat="43.08353" lon="-0.48355">
        <ele>1173.78</ele>
        <time>2026-03-24T10:58:15.000Z</time>
      </trkpt>
      <trkpt lat="43.08345" lon="-0.48332">
        <ele>1174.77</ele>
        <time>2026-03-24T10:58:26.000Z</time>
      </trkpt>
      <trkpt lat="43.08333" lon="-0.48313">
        <ele>1176.45</ele>
        <time>2026-03-24T10:58:36.000Z</time>
      </trkpt>
      <trkpt lat="43.0832" lon="-0.48294">
        <ele>1177.47</ele>
        <time>2026-03-24T10:58:45.000Z</time>
      </trkpt>
      <trkpt lat="43.08309" lon="-0.48275">
        <ele>1177.42</ele>
        <time>2026-03-24T10:58:54.000Z</time>
      </trkpt>
      <trkpt lat="43.08295" lon="-0.48255">
        <ele>1179.44</ele>
        <time>2026-03-24T10:59:04.000Z</time>
      </trkpt>
      <trkpt lat="43.08283" lon="-0.48237">
        <ele>1180.72</ele>
        <time>2026-03-24T10:59:13.000Z</time>
      </trkpt>
      <trkpt lat="43.08269" lon="-0.48218">
        <ele>1181.48</ele>
        <time>2026-03-24T10:59:23.000Z</time>
      </trkpt>
      <trkpt lat="43.08252" lon="-0.48207">
        <ele>1182.44</ele>
        <time>2026-03-24T10:59:32.000Z</time>
      </trkpt>
      <trkpt lat="43.08234" lon="-0.48214">
        <ele>1181.38</ele>
        <time>2026-03-24T10:59:41.000Z</time>
      </trkpt>
      <trkpt lat="43.08216" lon="-0.48222">
        <ele>1181.97</ele>
        <time>2026-03-24T10:59:51.000Z</time>
      </trkpt>
      <trkpt lat="43.08198" lon="-0.4823">
        <ele>1184.42</ele>
        <time>2026-03-24T11:00:01.000Z</time>
      </trkpt>
      <trkpt lat="43.08179" lon="-0.48235">
        <ele>1186.2</ele>
        <time>2026-03-24T11:00:11.000Z</time>
      </trkpt>
      <trkpt lat="43.08162" lon="-0.48245">
        <ele>1185.88</ele>
        <time>2026-03-24T11:00:20.000Z</time>
      </trkpt>
      <trkpt lat="43.0815" lon="-0.48265">
        <ele>1184.52</ele>
        <time>2026-03-24T11:00:30.000Z</time>
      </trkpt>
      <trkpt lat="43.08136" lon="-0.48285">
        <ele>1182.41</ele>
        <time>2026-03-24T11:00:38.000Z</time>
      </trkpt>
      <trkpt lat="43.08137" lon="-0.48312">
        <ele>1184.92</ele>
        <time>2026-03-24T11:00:47.000Z</time>
      </trkpt>
      <trkpt lat="43.08141" lon="-0.48338">
        <ele>1190.65</ele>
        <time>2026-03-24T11:00:54.000Z</time>
      </trkpt>
      <trkpt lat="43.08137" lon="-0.48363">
        <ele>1191.96</ele>
        <time>2026-03-24T11:01:01.000Z</time>
      </trkpt>
      <trkpt lat="43.08129" lon="-0.48386">
        <ele>1191.59</ele>
        <time>2026-03-24T11:01:09.000Z</time>
      </trkpt>
      <trkpt lat="43.08124" lon="-0.4841">
        <ele>1191.93</ele>
        <time>2026-03-24T11:01:16.000Z</time>
      </trkpt>
      <trkpt lat="43.08128" lon="-0.48436">
        <ele>1192.94</ele>
        <time>2026-03-24T11:01:24.000Z</time>
      </trkpt>
      <trkpt lat="43.08124" lon="-0.48463">
        <ele>1189.67</ele>
        <time>2026-03-24T11:01:33.000Z</time>
      </trkpt>
      <trkpt lat="43.08124" lon="-0.4849">
        <ele>1191.91</ele>
        <time>2026-03-24T11:01:42.000Z</time>
      </trkpt>
      <trkpt lat="43.08127" lon="-0.48516">
        <ele>1190.89</ele>
        <time>2026-03-24T11:01:49.000Z</time>
      </trkpt>
      <trkpt lat="43.08122" lon="-0.48542">
        <ele>1193.2</ele>
        <time>2026-03-24T11:01:57.000Z</time>
      </trkpt>
      <trkpt lat="43.08124" lon="-0.48569">
        <ele>1195.67</ele>
        <time>2026-03-24T11:02:06.000Z</time>
      </trkpt>
      <trkpt lat="43.08121" lon="-0.48593">
        <ele>1197.45</ele>
        <time>2026-03-24T11:02:59.000Z</time>
      </trkpt>
      <trkpt lat="43.08111" lon="-0.48615">
        <ele>1201.34</ele>
        <time>2026-03-24T11:04:12.000Z</time>
      </trkpt>
      <trkpt lat="43.08097" lon="-0.48632">
        <ele>1200.51</ele>
        <time>2026-03-24T11:04:19.000Z</time>
      </trkpt>
      <trkpt lat="43.08083" lon="-0.48651">
        <ele>1200.92</ele>
        <time>2026-03-24T11:04:27.000Z</time>
      </trkpt>
      <trkpt lat="43.0807" lon="-0.48671">
        <ele>1200.41</ele>
        <time>2026-03-24T11:04:36.000Z</time>
      </trkpt>
      <trkpt lat="43.0806" lon="-0.48691">
        <ele>1201.89</ele>
        <time>2026-03-24T11:04:46.000Z</time>
      </trkpt>
      <trkpt lat="43.08049" lon="-0.48713">
        <ele>1201.55</ele>
        <time>2026-03-24T11:04:55.000Z</time>
      </trkpt>
      <trkpt lat="43.08041" lon="-0.48736">
        <ele>1201.39</ele>
        <time>2026-03-24T11:05:03.000Z</time>
      </trkpt>
      <trkpt lat="43.08032" lon="-0.4876">
        <ele>1203.38</ele>
        <time>2026-03-24T11:05:11.000Z</time>
      </trkpt>
      <trkpt lat="43.0803" lon="-0.48786">
        <ele>1203.56</ele>
        <time>2026-03-24T11:06:56.000Z</time>
      </trkpt>
      <trkpt lat="43.08038" lon="-0.48809">
        <ele>1203.73</ele>
        <time>2026-03-24T11:07:02.000Z</time>
      </trkpt>
      <trkpt lat="43.08049" lon="-0.48831">
        <ele>1205.9</ele>
        <time>2026-03-24T11:07:11.000Z</time>
      </trkpt>
      <trkpt lat="43.08058" lon="-0.48853">
        <ele>1208.16</ele>
        <time>2026-03-24T11:07:22.000Z</time>
      </trkpt>
      <trkpt lat="43.08067" lon="-0.48875">
        <ele>1211.55</ele>
        <time>2026-03-24T11:07:34.000Z</time>
      </trkpt>
      <trkpt lat="43.08074" lon="-0.48899">
        <ele>1214.02</ele>
        <time>2026-03-24T11:07:48.000Z</time>
      </trkpt>
      <trkpt lat="43.08092" lon="-0.48908">
        <ele>1217.33</ele>
        <time>2026-03-24T11:08:01.000Z</time>
      </trkpt>
      <trkpt lat="43.0811" lon="-0.48912">
        <ele>1219.68</ele>
        <time>2026-03-24T11:08:15.000Z</time>
      </trkpt>
      <trkpt lat="43.08126" lon="-0.48925">
        <ele>1221.02</ele>
        <time>2026-03-24T11:08:29.000Z</time>
      </trkpt>
      <trkpt lat="43.08143" lon="-0.48935">
        <ele>1222.73</ele>
        <time>2026-03-24T11:08:43.000Z</time>
      </trkpt>
      <trkpt lat="43.08162" lon="-0.48941">
        <ele>1227.31</ele>
        <time>2026-03-24T11:08:56.000Z</time>
      </trkpt>
      <trkpt lat="43.08145" lon="-0.48951">
        <ele>1229.61</ele>
        <time>2026-03-24T11:09:18.000Z</time>
      </trkpt>
      <trkpt lat="43.08127" lon="-0.48954">
        <ele>1231.37</ele>
        <time>2026-03-24T11:09:29.000Z</time>
      </trkpt>
      <trkpt lat="43.08111" lon="-0.48969">
        <ele>1234.06</ele>
        <time>2026-03-24T11:09:43.000Z</time>
      </trkpt>
      <trkpt lat="43.08095" lon="-0.48981">
        <ele>1236.78</ele>
        <time>2026-03-24T11:09:58.000Z</time>
      </trkpt>
      <trkpt lat="43.08083" lon="-0.49001">
        <ele>1241.04</ele>
        <time>2026-03-24T11:10:16.000Z</time>
      </trkpt>
      <trkpt lat="43.0807" lon="-0.49019">
        <ele>1242.47</ele>
        <time>2026-03-24T11:10:30.000Z</time>
      </trkpt>
      <trkpt lat="43.08053" lon="-0.49028">
        <ele>1243.68</ele>
        <time>2026-03-24T11:10:42.000Z</time>
      </trkpt>
      <trkpt lat="43.08035" lon="-0.49035">
        <ele>1244.14</ele>
        <time>2026-03-24T11:10:52.000Z</time>
      </trkpt>
      <trkpt lat="43.08017" lon="-0.4904">
        <ele>1247.04</ele>
        <time>2026-03-24T11:11:02.000Z</time>
      </trkpt>
      <trkpt lat="43.08034" lon="-0.49052">
        <ele>1246.91</ele>
        <time>2026-03-24T11:13:50.000Z</time>
      </trkpt>
      <trkpt lat="43.08052" lon="-0.49048">
        <ele>1248.59</ele>
        <time>2026-03-24T11:14:00.000Z</time>
      </trkpt>
      <trkpt lat="43.08068" lon="-0.49059">
        <ele>1249.59</ele>
        <time>2026-03-24T11:14:12.000Z</time>
      </trkpt>
      <trkpt lat="43.08087" lon="-0.49063">
        <ele>1251.15</ele>
        <time>2026-03-24T11:14:25.000Z</time>
      </trkpt>
      <trkpt lat="43.08105" lon="-0.4906">
        <ele>1253.66</ele>
        <time>2026-03-24T11:14:38.000Z</time>
      </trkpt>
      <trkpt lat="43.08124" lon="-0.49061">
        <ele>1255.37</ele>
        <time>2026-03-24T11:14:51.000Z</time>
      </trkpt>
      <trkpt lat="43.08142" lon="-0.49065">
        <ele>1256.94</ele>
        <time>2026-03-24T11:15:05.000Z</time>
      </trkpt>
      <trkpt lat="43.08156" lon="-0.49081">
        <ele>1258.92</ele>
        <time>2026-03-24T11:15:18.000Z</time>
      </trkpt>
      <trkpt lat="43.08171" lon="-0.49098">
        <ele>1261.24</ele>
        <time>2026-03-24T11:15:31.000Z</time>
      </trkpt>
      <trkpt lat="43.08188" lon="-0.49105">
        <ele>1263.73</ele>
        <time>2026-03-24T11:15:42.000Z</time>
      </trkpt>
      <trkpt lat="43.08204" lon="-0.49115">
        <ele>1267.23</ele>
        <time>2026-03-24T11:15:58.000Z</time>
      </trkpt>
      <trkpt lat="43.0821" lon="-0.4914">
        <ele>1268.73</ele>
        <time>2026-03-24T11:16:15.000Z</time>
      </trkpt>
      <trkpt lat="43.08211" lon="-0.49165">
        <ele>1270.23</ele>
        <time>2026-03-24T11:16:29.000Z</time>
      </trkpt>
      <trkpt lat="43.08217" lon="-0.49189">
        <ele>1271.97</ele>
        <time>2026-03-24T11:16:44.000Z</time>
      </trkpt>
      <trkpt lat="43.08233" lon="-0.49203">
        <ele>1275.25</ele>
        <time>2026-03-24T11:16:58.000Z</time>
      </trkpt>
      <trkpt lat="43.0825" lon="-0.49213">
        <ele>1276.81</ele>
        <time>2026-03-24T11:17:10.000Z</time>
      </trkpt>
      <trkpt lat="43.08268" lon="-0.49218">
        <ele>1280.06</ele>
        <time>2026-03-24T11:17:22.000Z</time>
      </trkpt>
      <trkpt lat="43.08283" lon="-0.49233">
        <ele>1281.91</ele>
        <time>2026-03-24T11:17:42.000Z</time>
      </trkpt>
      <trkpt lat="43.08279" lon="-0.49258">
        <ele>1283.72</ele>
        <time>2026-03-24T11:22:16.000Z</time>
      </trkpt>
      <trkpt lat="43.08274" lon="-0.49282">
        <ele>1285.8</ele>
        <time>2026-03-24T11:22:31.000Z</time>
      </trkpt>
      <trkpt lat="43.08268" lon="-0.49307">
        <ele>1289.27</ele>
        <time>2026-03-24T11:22:50.000Z</time>
      </trkpt>
      <trkpt lat="43.08259" lon="-0.4933">
        <ele>1290.9</ele>
        <time>2026-03-24T11:23:04.000Z</time>
      </trkpt>
      <trkpt lat="43.08249" lon="-0.49351">
        <ele>1293.52</ele>
        <time>2026-03-24T11:23:19.000Z</time>
      </trkpt>
      <trkpt lat="43.08243" lon="-0.49375">
        <ele>1295.96</ele>
        <time>2026-03-24T11:23:34.000Z</time>
      </trkpt>
      <trkpt lat="43.08233" lon="-0.49395">
        <ele>1297.48</ele>
        <time>2026-03-24T11:23:47.000Z</time>
      </trkpt>
      <trkpt lat="43.08221" lon="-0.49415">
        <ele>1299.8</ele>
        <time>2026-03-24T11:23:59.000Z</time>
      </trkpt>
      <trkpt lat="43.08208" lon="-0.49435">
        <ele>1302.27</ele>
        <time>2026-03-24T11:24:10.000Z</time>
      </trkpt>
      <trkpt lat="43.08195" lon="-0.49455">
        <ele>1304.48</ele>
        <time>2026-03-24T11:24:20.000Z</time>
      </trkpt>
      <trkpt lat="43.08184" lon="-0.49477">
        <ele>1306.79</ele>
        <time>2026-03-24T11:24:30.000Z</time>
      </trkpt>
      <trkpt lat="43.08169" lon="-0.49493">
        <ele>1306.13</ele>
        <time>2026-03-24T11:24:38.000Z</time>
      </trkpt>
      <trkpt lat="43.08158" lon="-0.49515">
        <ele>1309.17</ele>
        <time>2026-03-24T11:24:47.000Z</time>
      </trkpt>
      <trkpt lat="43.08151" lon="-0.49539">
        <ele>1308.1</ele>
        <time>2026-03-24T11:24:56.000Z</time>
      </trkpt>
      <trkpt lat="43.0815" lon="-0.49567">
        <ele>1306.28</ele>
        <time>2026-03-24T11:25:04.000Z</time>
      </trkpt>
      <trkpt lat="43.08151" lon="-0.49591">
        <ele>1306.74</ele>
        <time>2026-03-24T11:25:10.000Z</time>
      </trkpt>
      <trkpt lat="43.08159" lon="-0.49618">
        <ele>1306.21</ele>
        <time>2026-03-24T11:25:16.000Z</time>
      </trkpt>
      <trkpt lat="43.08169" lon="-0.49639">
        <ele>1308</ele>
        <time>2026-03-24T11:25:24.000Z</time>
      </trkpt>
      <trkpt lat="43.08181" lon="-0.49661">
        <ele>1307.68</ele>
        <time>2026-03-24T11:25:32.000Z</time>
      </trkpt>
      <trkpt lat="43.08192" lon="-0.49683">
        <ele>1308.77</ele>
        <time>2026-03-24T11:25:38.000Z</time>
      </trkpt>
      <trkpt lat="43.08202" lon="-0.49706">
        <ele>1310.03</ele>
        <time>2026-03-24T11:25:47.000Z</time>
      </trkpt>
      <trkpt lat="43.08209" lon="-0.49731">
        <ele>1311.16</ele>
        <time>2026-03-24T11:25:58.000Z</time>
      </trkpt>
      <trkpt lat="43.08215" lon="-0.49754">
        <ele>1312.29</ele>
        <time>2026-03-24T11:26:08.000Z</time>
      </trkpt>
      <trkpt lat="43.08224" lon="-0.49777">
        <ele>1316.35</ele>
        <time>2026-03-24T11:26:21.000Z</time>
      </trkpt>
      <trkpt lat="43.08233" lon="-0.49799">
        <ele>1319.59</ele>
        <time>2026-03-24T11:26:35.000Z</time>
      </trkpt>
      <trkpt lat="43.08216" lon="-0.4981">
        <ele>1322.16</ele>
        <time>2026-03-24T11:26:49.000Z</time>
      </trkpt>
      <trkpt lat="43.08198" lon="-0.49817">
        <ele>1324.43</ele>
        <time>2026-03-24T11:27:01.000Z</time>
      </trkpt>
      <trkpt lat="43.0818" lon="-0.49827">
        <ele>1324.16</ele>
        <time>2026-03-24T11:27:15.000Z</time>
      </trkpt>
      <trkpt lat="43.08162" lon="-0.49835">
        <ele>1325.21</ele>
        <time>2026-03-24T11:27:29.000Z</time>
      </trkpt>
      <trkpt lat="43.08145" lon="-0.49846">
        <ele>1328.31</ele>
        <time>2026-03-24T11:27:44.000Z</time>
      </trkpt>
      <trkpt lat="43.08133" lon="-0.49865">
        <ele>1332.51</ele>
        <time>2026-03-24T11:27:59.000Z</time>
      </trkpt>
      <trkpt lat="43.08127" lon="-0.4989">
        <ele>1335.56</ele>
        <time>2026-03-24T11:28:13.000Z</time>
      </trkpt>
      <trkpt lat="43.08132" lon="-0.49915">
        <ele>1339.4</ele>
        <time>2026-03-24T11:28:27.000Z</time>
      </trkpt>
      <trkpt lat="43.08132" lon="-0.4994">
        <ele>1341.31</ele>
        <time>2026-03-24T11:28:42.000Z</time>
      </trkpt>
      <trkpt lat="43.08124" lon="-0.49962">
        <ele>1342.88</ele>
        <time>2026-03-24T11:28:55.000Z</time>
      </trkpt>
      <trkpt lat="43.08117" lon="-0.49985">
        <ele>1344.32</ele>
        <time>2026-03-24T11:29:08.000Z</time>
      </trkpt>
      <trkpt lat="43.08108" lon="-0.50007">
        <ele>1345.76</ele>
        <time>2026-03-24T11:29:19.000Z</time>
      </trkpt>
      <trkpt lat="43.08094" lon="-0.50024">
        <ele>1346.82</ele>
        <time>2026-03-24T11:29:30.000Z</time>
      </trkpt>
      <trkpt lat="43.0809" lon="-0.50049">
        <ele>1350.37</ele>
        <time>2026-03-24T11:29:44.000Z</time>
      </trkpt>
      <trkpt lat="43.08098" lon="-0.50071">
        <ele>1354.3</ele>
        <time>2026-03-24T11:29:57.000Z</time>
      </trkpt>
      <trkpt lat="43.08107" lon="-0.50094">
        <ele>1355.83</ele>
        <time>2026-03-24T11:30:08.000Z</time>
      </trkpt>
      <trkpt lat="43.08118" lon="-0.50117">
        <ele>1356.35</ele>
        <time>2026-03-24T11:30:18.000Z</time>
      </trkpt>
      <trkpt lat="43.08128" lon="-0.50139">
        <ele>1355.91</ele>
        <time>2026-03-24T11:30:27.000Z</time>
      </trkpt>
      <trkpt lat="43.08141" lon="-0.50161">
        <ele>1358.65</ele>
        <time>2026-03-24T11:31:51.000Z</time>
      </trkpt>
      <trkpt lat="43.08158" lon="-0.5018">
        <ele>1357.68</ele>
        <time>2026-03-24T11:31:57.000Z</time>
      </trkpt>
      <trkpt lat="43.08174" lon="-0.50201">
        <ele>1357.59</ele>
        <time>2026-03-24T11:32:02.000Z</time>
      </trkpt>
      <trkpt lat="43.08186" lon="-0.5022">
        <ele>1357.47</ele>
        <time>2026-03-24T11:32:06.000Z</time>
      </trkpt>
      <trkpt lat="43.082" lon="-0.50238">
        <ele>1357.44</ele>
        <time>2026-03-24T11:32:10.000Z</time>
      </trkpt>
      <trkpt lat="43.08214" lon="-0.50253">
        <ele>1356.68</ele>
        <time>2026-03-24T11:32:14.000Z</time>
      </trkpt>
      <trkpt lat="43.08228" lon="-0.50269">
        <ele>1355.64</ele>
        <time>2026-03-24T11:32:18.000Z</time>
      </trkpt>
      <trkpt lat="43.08243" lon="-0.50288">
        <ele>1355.06</ele>
        <time>2026-03-24T11:32:22.000Z</time>
      </trkpt>
      <trkpt lat="43.08257" lon="-0.50308">
        <ele>1354.03</ele>
        <time>2026-03-24T11:32:26.000Z</time>
      </trkpt>
      <trkpt lat="43.08271" lon="-0.5033">
        <ele>1352.49</ele>
        <time>2026-03-24T11:32:30.000Z</time>
      </trkpt>
      <trkpt lat="43.08287" lon="-0.50349">
        <ele>1351</ele>
        <time>2026-03-24T11:32:34.000Z</time>
      </trkpt>
      <trkpt lat="43.08303" lon="-0.50371">
        <ele>1348.25</ele>
        <time>2026-03-24T11:32:38.000Z</time>
      </trkpt>
      <trkpt lat="43.08318" lon="-0.50391">
        <ele>1348.07</ele>
        <time>2026-03-24T11:32:42.000Z</time>
      </trkpt>
      <trkpt lat="43.0833" lon="-0.50409">
        <ele>1347.42</ele>
        <time>2026-03-24T11:32:45.000Z</time>
      </trkpt>
      <trkpt lat="43.08347" lon="-0.50431">
        <ele>1348.08</ele>
        <time>2026-03-24T11:32:49.000Z</time>
      </trkpt>
      <trkpt lat="43.0836" lon="-0.50451">
        <ele>1346.66</ele>
        <time>2026-03-24T11:32:52.000Z</time>
      </trkpt>
      <trkpt lat="43.08376" lon="-0.50471">
        <ele>1346.1</ele>
        <time>2026-03-24T11:32:56.000Z</time>
      </trkpt>
      <trkpt lat="43.08393" lon="-0.50492">
        <ele>1347.89</ele>
        <time>2026-03-24T11:33:00.000Z</time>
      </trkpt>
      <trkpt lat="43.08411" lon="-0.5051">
        <ele>1345.81</ele>
        <time>2026-03-24T11:33:04.000Z</time>
      </trkpt>
      <trkpt lat="43.0843" lon="-0.50523">
        <ele>1346.01</ele>
        <time>2026-03-24T11:33:09.000Z</time>
      </trkpt>
      <trkpt lat="43.08436" lon="-0.50551">
        <ele>1346.36</ele>
        <time>2026-03-24T11:33:15.000Z</time>
      </trkpt>
      <trkpt lat="43.08431" lon="-0.50575">
        <ele>1345.83</ele>
        <time>2026-03-24T11:33:23.000Z</time>
      </trkpt>
      <trkpt lat="43.08429" lon="-0.50601">
        <ele>1346.78</ele>
        <time>2026-03-24T11:33:34.000Z</time>
      </trkpt>
      <trkpt lat="43.08423" lon="-0.50626">
        <ele>1349.24</ele>
        <time>2026-03-24T11:33:45.000Z</time>
      </trkpt>
      <trkpt lat="43.08418" lon="-0.50651">
        <ele>1353.34</ele>
        <time>2026-03-24T11:33:57.000Z</time>
      </trkpt>
      <trkpt lat="43.08414" lon="-0.50676">
        <ele>1356.8</ele>
        <time>2026-03-24T11:34:11.000Z</time>
      </trkpt>
      <trkpt lat="43.08406" lon="-0.50699">
        <ele>1357.4</ele>
        <time>2026-03-24T11:34:24.000Z</time>
      </trkpt>
      <trkpt lat="43.08407" lon="-0.50724">
        <ele>1360.68</ele>
        <time>2026-03-24T11:34:38.000Z</time>
      </trkpt>
      <trkpt lat="43.08411" lon="-0.5075">
        <ele>1362.09</ele>
        <time>2026-03-24T11:34:50.000Z</time>
      </trkpt>
      <trkpt lat="43.08415" lon="-0.50775">
        <ele>1361.72</ele>
        <time>2026-03-24T11:35:04.000Z</time>
      </trkpt>
      <trkpt lat="43.08422" lon="-0.50798">
        <ele>1363.65</ele>
        <time>2026-03-24T11:35:19.000Z</time>
      </trkpt>
      <trkpt lat="43.08431" lon="-0.5082">
        <ele>1366.41</ele>
        <time>2026-03-24T11:35:33.000Z</time>
      </trkpt>
      <trkpt lat="43.08437" lon="-0.50843">
        <ele>1370.24</ele>
        <time>2026-03-24T11:35:47.000Z</time>
      </trkpt>
      <trkpt lat="43.08446" lon="-0.50865">
        <ele>1372.59</ele>
        <time>2026-03-24T11:36:01.000Z</time>
      </trkpt>
      <trkpt lat="43.08463" lon="-0.50877">
        <ele>1375.53</ele>
        <time>2026-03-24T11:37:15.000Z</time>
      </trkpt>
      <trkpt lat="43.08481" lon="-0.50882">
        <ele>1374.57</ele>
        <time>2026-03-24T11:37:24.000Z</time>
      </trkpt>
      <trkpt lat="43.08478" lon="-0.50907">
        <ele>1376.94</ele>
        <time>2026-03-24T11:37:40.000Z</time>
      </trkpt>
      <trkpt lat="43.08469" lon="-0.5093">
        <ele>1378.62</ele>
        <time>2026-03-24T11:37:54.000Z</time>
      </trkpt>
      <trkpt lat="43.08467" lon="-0.50957">
        <ele>1380.2</ele>
        <time>2026-03-24T11:38:08.000Z</time>
      </trkpt>
      <trkpt lat="43.08476" lon="-0.5098">
        <ele>1380.87</ele>
        <time>2026-03-24T11:38:20.000Z</time>
      </trkpt>
      <trkpt lat="43.08485" lon="-0.51003">
        <ele>1381.51</ele>
        <time>2026-03-24T11:38:31.000Z</time>
      </trkpt>
      <trkpt lat="43.08494" lon="-0.51026">
        <ele>1380.67</ele>
        <time>2026-03-24T11:38:42.000Z</time>
      </trkpt>
      <trkpt lat="43.08501" lon="-0.51048">
        <ele>1381.88</ele>
        <time>2026-03-24T11:38:53.000Z</time>
      </trkpt>
      <trkpt lat="43.08511" lon="-0.5107">
        <ele>1384.16</ele>
        <time>2026-03-24T11:39:06.000Z</time>
      </trkpt>
      <trkpt lat="43.08518" lon="-0.51095">
        <ele>1385.78</ele>
        <time>2026-03-24T11:39:18.000Z</time>
      </trkpt>
      <trkpt lat="43.08524" lon="-0.5112">
        <ele>1385.21</ele>
        <time>2026-03-24T11:39:29.000Z</time>
      </trkpt>
      <trkpt lat="43.08518" lon="-0.51144">
        <ele>1387.35</ele>
        <time>2026-03-24T11:39:56.000Z</time>
      </trkpt>
      <trkpt lat="43.08523" lon="-0.51169">
        <ele>1389.89</ele>
        <time>2026-03-24T11:40:16.000Z</time>
      </trkpt>
      <trkpt lat="43.08532" lon="-0.5119">
        <ele>1398.27</ele>
        <time>2026-03-24T11:40:44.000Z</time>
      </trkpt>
      <trkpt lat="43.08541" lon="-0.51212">
        <ele>1403.99</ele>
        <time>2026-03-24T11:41:17.000Z</time>
      </trkpt>
      <trkpt lat="43.08528" lon="-0.5123">
        <ele>1408.42</ele>
        <time>2026-03-24T11:42:02.000Z</time>
      </trkpt>
      <trkpt lat="43.08535" lon="-0.51253">
        <ele>1419.02</ele>
        <time>2026-03-24T11:42:56.000Z</time>
      </trkpt>
      <trkpt lat="43.08549" lon="-0.5127">
        <ele>1420.59</ele>
        <time>2026-03-24T11:43:14.000Z</time>
      </trkpt>
      <trkpt lat="43.08566" lon="-0.51279">
        <ele>1423.44</ele>
        <time>2026-03-24T11:43:34.000Z</time>
      </trkpt>
      <trkpt lat="43.08577" lon="-0.51301">
        <ele>1421.63</ele>
        <time>2026-03-24T11:43:50.000Z</time>
      </trkpt>
      <trkpt lat="43.08588" lon="-0.51324">
        <ele>1418.38</ele>
        <time>2026-03-24T11:45:26.000Z</time>
      </trkpt>
      <trkpt lat="43.08604" lon="-0.5134">
        <ele>1417.86</ele>
        <time>2026-03-24T11:45:32.000Z</time>
      </trkpt>
      <trkpt lat="43.08623" lon="-0.51344">
        <ele>1418.61</ele>
        <time>2026-03-24T11:45:41.000Z</time>
      </trkpt>
      <trkpt lat="43.08642" lon="-0.51343">
        <ele>1422.42</ele>
        <time>2026-03-24T11:45:56.000Z</time>
      </trkpt>
      <trkpt lat="43.08659" lon="-0.5135">
        <ele>1423.93</ele>
        <time>2026-03-24T11:46:13.000Z</time>
      </trkpt>
      <trkpt lat="43.08678" lon="-0.51349">
        <ele>1432.68</ele>
        <time>2026-03-24T11:47:13.000Z</time>
      </trkpt>
      <trkpt lat="43.08697" lon="-0.51353">
        <ele>1435.35</ele>
        <time>2026-03-24T11:48:09.000Z</time>
      </trkpt>
      <trkpt lat="43.08715" lon="-0.51358">
        <ele>1436.72</ele>
        <time>2026-03-24T11:48:26.000Z</time>
      </trkpt>
      <trkpt lat="43.08696" lon="-0.51352">
        <ele>1433.54</ele>
        <time>2026-03-24T11:59:17.000Z</time>
      </trkpt>
      <trkpt lat="43.08677" lon="-0.51349">
        <ele>1430.49</ele>
        <time>2026-03-24T11:59:27.000Z</time>
      </trkpt>
      <trkpt lat="43.08656" lon="-0.51344">
        <ele>1421.86</ele>
        <time>2026-03-24T11:59:52.000Z</time>
      </trkpt>
      <trkpt lat="43.08636" lon="-0.51339">
        <ele>1420.07</ele>
        <time>2026-03-24T11:59:57.000Z</time>
      </trkpt>
      <trkpt lat="43.08615" lon="-0.5134">
        <ele>1418.67</ele>
        <time>2026-03-24T12:00:01.000Z</time>
      </trkpt>
      <trkpt lat="43.08599" lon="-0.51329">
        <ele>1418.32</ele>
        <time>2026-03-24T12:00:05.000Z</time>
      </trkpt>
      <trkpt lat="43.0858" lon="-0.5132">
        <ele>1422.37</ele>
        <time>2026-03-24T12:00:16.000Z</time>
      </trkpt>
      <trkpt lat="43.08566" lon="-0.51303">
        <ele>1421.7</ele>
        <time>2026-03-24T12:00:25.000Z</time>
      </trkpt>
      <trkpt lat="43.08549" lon="-0.51289">
        <ele>1417.01</ele>
        <time>2026-03-24T12:00:32.000Z</time>
      </trkpt>
      <trkpt lat="43.08534" lon="-0.51276">
        <ele>1418.84</ele>
        <time>2026-03-24T12:00:40.000Z</time>
      </trkpt>
      <trkpt lat="43.08516" lon="-0.5127">
        <ele>1417.3</ele>
        <time>2026-03-24T12:00:48.000Z</time>
      </trkpt>
      <trkpt lat="43.08497" lon="-0.51273">
        <ele>1413.31</ele>
        <time>2026-03-24T12:00:54.000Z</time>
      </trkpt>
      <trkpt lat="43.08482" lon="-0.51287">
        <ele>1410.84</ele>
        <time>2026-03-24T12:00:59.000Z</time>
      </trkpt>
      <trkpt lat="43.08461" lon="-0.51285">
        <ele>1407.62</ele>
        <time>2026-03-24T12:03:36.000Z</time>
      </trkpt>
      <trkpt lat="43.08447" lon="-0.51269">
        <ele>1402.6</ele>
        <time>2026-03-24T12:03:45.000Z</time>
      </trkpt>
      <trkpt lat="43.08431" lon="-0.51254">
        <ele>1399.52</ele>
        <time>2026-03-24T12:03:52.000Z</time>
      </trkpt>
      <trkpt lat="43.0842" lon="-0.51235">
        <ele>1394.34</ele>
        <time>2026-03-24T12:04:16.000Z</time>
      </trkpt>
      <trkpt lat="43.08416" lon="-0.51208">
        <ele>1388.29</ele>
        <time>2026-03-24T12:04:24.000Z</time>
      </trkpt>
      <trkpt lat="43.08417" lon="-0.51183">
        <ele>1380.89</ele>
        <time>2026-03-24T12:04:35.000Z</time>
      </trkpt>
      <trkpt lat="43.0841" lon="-0.5116">
        <ele>1379.11</ele>
        <time>2026-03-24T12:05:04.000Z</time>
      </trkpt>
      <trkpt lat="43.08408" lon="-0.51135">
        <ele>1375.54</ele>
        <time>2026-03-24T12:05:13.000Z</time>
      </trkpt>
      <trkpt lat="43.08403" lon="-0.51111">
        <ele>1373.95</ele>
        <time>2026-03-24T12:05:19.000Z</time>
      </trkpt>
      <trkpt lat="43.08393" lon="-0.51088">
        <ele>1371.06</ele>
        <time>2026-03-24T12:05:25.000Z</time>
      </trkpt>
      <trkpt lat="43.08383" lon="-0.51062">
        <ele>1365.96</ele>
        <time>2026-03-24T12:05:30.000Z</time>
      </trkpt>
      <trkpt lat="43.08365" lon="-0.5105">
        <ele>1365.53</ele>
        <time>2026-03-24T12:05:36.000Z</time>
      </trkpt>
      <trkpt lat="43.08348" lon="-0.51039">
        <ele>1360.22</ele>
        <time>2026-03-24T12:05:45.000Z</time>
      </trkpt>
      <trkpt lat="43.08327" lon="-0.51031">
        <ele>1355.18</ele>
        <time>2026-03-24T12:05:49.000Z</time>
      </trkpt>
      <trkpt lat="43.08309" lon="-0.51035">
        <ele>1351.84</ele>
        <time>2026-03-24T12:05:52.000Z</time>
      </trkpt>
      <trkpt lat="43.08293" lon="-0.51024">
        <ele>1345.79</ele>
        <time>2026-03-24T12:05:59.000Z</time>
      </trkpt>
      <trkpt lat="43.08295" lon="-0.50999">
        <ele>1342.79</ele>
        <time>2026-03-24T12:06:06.000Z</time>
      </trkpt>
      <trkpt lat="43.0829" lon="-0.50974">
        <ele>1336</ele>
        <time>2026-03-24T12:06:26.000Z</time>
      </trkpt>
      <trkpt lat="43.08282" lon="-0.5095">
        <ele>1336.88</ele>
        <time>2026-03-24T12:06:33.000Z</time>
      </trkpt>
      <trkpt lat="43.08272" lon="-0.50927">
        <ele>1334.8</ele>
        <time>2026-03-24T12:06:38.000Z</time>
      </trkpt>
      <trkpt lat="43.08253" lon="-0.50924">
        <ele>1330.19</ele>
        <time>2026-03-24T12:06:55.000Z</time>
      </trkpt>
      <trkpt lat="43.08237" lon="-0.50934">
        <ele>1325.72</ele>
        <time>2026-03-24T12:07:01.000Z</time>
      </trkpt>
      <trkpt lat="43.08218" lon="-0.50942">
        <ele>1322.13</ele>
        <time>2026-03-24T12:07:08.000Z</time>
      </trkpt>
      <trkpt lat="43.08204" lon="-0.50958">
        <ele>1321.78</ele>
        <time>2026-03-24T12:07:32.000Z</time>
      </trkpt>
      <trkpt lat="43.08196" lon="-0.50984">
        <ele>1317.96</ele>
        <time>2026-03-24T12:08:53.000Z</time>
      </trkpt>
      <trkpt lat="43.08179" lon="-0.51001">
        <ele>1313.49</ele>
        <time>2026-03-24T12:08:59.000Z</time>
      </trkpt>
      <trkpt lat="43.0816" lon="-0.51007">
        <ele>1309.96</ele>
        <time>2026-03-24T12:09:03.000Z</time>
      </trkpt>
      <trkpt lat="43.08144" lon="-0.5102">
        <ele>1306.73</ele>
        <time>2026-03-24T12:09:06.000Z</time>
      </trkpt>
      <trkpt lat="43.08128" lon="-0.51042">
        <ele>1304.83</ele>
        <time>2026-03-24T12:09:10.000Z</time>
      </trkpt>
      <trkpt lat="43.08115" lon="-0.51064">
        <ele>1304.31</ele>
        <time>2026-03-24T12:09:15.000Z</time>
      </trkpt>
      <trkpt lat="43.08104" lon="-0.5109">
        <ele>1301.52</ele>
        <time>2026-03-24T12:09:21.000Z</time>
      </trkpt>
      <trkpt lat="43.08094" lon="-0.51115">
        <ele>1297.1</ele>
        <time>2026-03-24T12:09:25.000Z</time>
      </trkpt>
      <trkpt lat="43.08082" lon="-0.51137">
        <ele>1289.94</ele>
        <time>2026-03-24T12:09:33.000Z</time>
      </trkpt>
      <trkpt lat="43.08062" lon="-0.51133">
        <ele>1283.41</ele>
        <time>2026-03-24T12:10:02.000Z</time>
      </trkpt>
      <trkpt lat="43.08048" lon="-0.51111">
        <ele>1278.08</ele>
        <time>2026-03-24T12:10:17.000Z</time>
      </trkpt>
      <trkpt lat="43.08036" lon="-0.51092">
        <ele>1274.11</ele>
        <time>2026-03-24T12:10:25.000Z</time>
      </trkpt>
      <trkpt lat="43.08027" lon="-0.5107">
        <ele>1276.06</ele>
        <time>2026-03-24T12:11:01.000Z</time>
      </trkpt>
      <trkpt lat="43.08019" lon="-0.51047">
        <ele>1269.36</ele>
        <time>2026-03-24T12:12:27.000Z</time>
      </trkpt>
      <trkpt lat="43.08007" lon="-0.51025">
        <ele>1269.73</ele>
        <time>2026-03-24T12:12:32.000Z</time>
      </trkpt>
      <trkpt lat="43.07993" lon="-0.51006">
        <ele>1269.03</ele>
        <time>2026-03-24T12:12:37.000Z</time>
      </trkpt>
      <trkpt lat="43.07978" lon="-0.5099">
        <ele>1267.05</ele>
        <time>2026-03-24T12:12:44.000Z</time>
      </trkpt>
      <trkpt lat="43.07963" lon="-0.50975">
        <ele>1264.61</ele>
        <time>2026-03-24T12:12:49.000Z</time>
      </trkpt>
      <trkpt lat="43.07948" lon="-0.50959">
        <ele>1256.15</ele>
        <time>2026-03-24T12:13:07.000Z</time>
      </trkpt>
      <trkpt lat="43.0793" lon="-0.50959">
        <ele>1249.53</ele>
        <time>2026-03-24T12:14:18.000Z</time>
      </trkpt>
      <trkpt lat="43.07912" lon="-0.50956">
        <ele>1241.73</ele>
        <time>2026-03-24T12:14:32.000Z</time>
      </trkpt>
      <trkpt lat="43.07893" lon="-0.50963">
        <ele>1234.61</ele>
        <time>2026-03-24T12:14:41.000Z</time>
      </trkpt>
      <trkpt lat="43.07874" lon="-0.50954">
        <ele>1225.9</ele>
        <time>2026-03-24T12:14:48.000Z</time>
      </trkpt>
      <trkpt lat="43.07855" lon="-0.50953">
        <ele>1218.4</ele>
        <time>2026-03-24T12:14:56.000Z</time>
      </trkpt>
      <trkpt lat="43.07835" lon="-0.50961">
        <ele>1211.94</ele>
        <time>2026-03-24T12:15:05.000Z</time>
      </trkpt>
      <trkpt lat="43.07816" lon="-0.50953">
        <ele>1206.52</ele>
        <time>2026-03-24T12:15:12.000Z</time>
      </trkpt>
      <trkpt lat="43.07796" lon="-0.50965">
        <ele>1201.65</ele>
        <time>2026-03-24T12:15:17.000Z</time>
      </trkpt>
      <trkpt lat="43.07777" lon="-0.50969">
        <ele>1197.84</ele>
        <time>2026-03-24T12:15:28.000Z</time>
      </trkpt>
      <trkpt lat="43.07761" lon="-0.50982">
        <ele>1197.77</ele>
        <time>2026-03-24T12:15:49.000Z</time>
      </trkpt>
      <trkpt lat="43.07744" lon="-0.50995">
        <ele>1190.79</ele>
        <time>2026-03-24T12:16:04.000Z</time>
      </trkpt>
      <trkpt lat="43.07734" lon="-0.50975">
        <ele>1181.68</ele>
        <time>2026-03-24T12:16:58.000Z</time>
      </trkpt>
      <trkpt lat="43.07717" lon="-0.50969">
        <ele>1178.6</ele>
        <time>2026-03-24T12:17:37.000Z</time>
      </trkpt>
      <trkpt lat="43.07701" lon="-0.50956">
        <ele>1166.68</ele>
        <time>2026-03-24T12:18:20.000Z</time>
      </trkpt>
      <trkpt lat="43.07688" lon="-0.50939">
        <ele>1156.73</ele>
        <time>2026-03-24T12:18:30.000Z</time>
      </trkpt>
      <trkpt lat="43.07672" lon="-0.50926">
        <ele>1153.27</ele>
        <time>2026-03-24T12:18:36.000Z</time>
      </trkpt>
      <trkpt lat="43.07652" lon="-0.50934">
        <ele>1143.27</ele>
        <time>2026-03-24T12:18:42.000Z</time>
      </trkpt>
      <trkpt lat="43.0765" lon="-0.50961">
        <ele>1130.39</ele>
        <time>2026-03-24T12:19:15.000Z</time>
      </trkpt>
      <trkpt lat="43.07629" lon="-0.50969">
        <ele>1130.08</ele>
        <time>2026-03-24T12:19:19.000Z</time>
      </trkpt>
      <trkpt lat="43.07604" lon="-0.50974">
        <ele>1129.69</ele>
        <time>2026-03-24T12:19:23.000Z</time>
      </trkpt>
      <trkpt lat="43.07581" lon="-0.50965">
        <ele>1125.08</ele>
        <time>2026-03-24T12:19:27.000Z</time>
      </trkpt>
      <trkpt lat="43.07558" lon="-0.50957">
        <ele>1123.42</ele>
        <time>2026-03-24T12:19:31.000Z</time>
      </trkpt>
      <trkpt lat="43.07537" lon="-0.50955">
        <ele>1122.56</ele>
        <time>2026-03-24T12:19:33.000Z</time>
      </trkpt>
      <trkpt lat="43.07513" lon="-0.50959">
        <ele>1123.23</ele>
        <time>2026-03-24T12:19:36.000Z</time>
      </trkpt>
      <trkpt lat="43.07488" lon="-0.50959">
        <ele>1121.75</ele>
        <time>2026-03-24T12:19:40.000Z</time>
      </trkpt>
      <trkpt lat="43.07466" lon="-0.50964">
        <ele>1117.81</ele>
        <time>2026-03-24T12:19:43.000Z</time>
      </trkpt>
      <trkpt lat="43.07448" lon="-0.50976">
        <ele>1116.8</ele>
        <time>2026-03-24T12:19:45.000Z</time>
      </trkpt>
      <trkpt lat="43.07425" lon="-0.50978">
        <ele>1113.53</ele>
        <time>2026-03-24T12:19:48.000Z</time>
      </trkpt>
      <trkpt lat="43.07407" lon="-0.50977">
        <ele>1110.97</ele>
        <time>2026-03-24T12:19:50.000Z</time>
      </trkpt>
      <trkpt lat="43.07382" lon="-0.50974">
        <ele>1108.48</ele>
        <time>2026-03-24T12:19:53.000Z</time>
      </trkpt>
      <trkpt lat="43.07359" lon="-0.5096">
        <ele>1106.57</ele>
        <time>2026-03-24T12:19:56.000Z</time>
      </trkpt>
      <trkpt lat="43.07337" lon="-0.50959">
        <ele>1103.61</ele>
        <time>2026-03-24T12:19:59.000Z</time>
      </trkpt>
      <trkpt lat="43.0732" lon="-0.50955">
        <ele>1101.72</ele>
        <time>2026-03-24T12:20:05.000Z</time>
      </trkpt>
      <trkpt lat="43.07299" lon="-0.50949">
        <ele>1108.19</ele>
        <time>2026-03-24T12:20:11.000Z</time>
      </trkpt>
      <trkpt lat="43.0728" lon="-0.50941">
        <ele>1105.6</ele>
        <time>2026-03-24T12:20:14.000Z</time>
      </trkpt>
      <trkpt lat="43.07261" lon="-0.50935">
        <ele>1104.82</ele>
        <time>2026-03-24T12:20:17.000Z</time>
      </trkpt>
      <trkpt lat="43.07242" lon="-0.50924">
        <ele>1099.51</ele>
        <time>2026-03-24T12:20:20.000Z</time>
      </trkpt>
      <trkpt lat="43.07225" lon="-0.50917">
        <ele>1095.7</ele>
        <time>2026-03-24T12:20:23.000Z</time>
      </trkpt>
      <trkpt lat="43.07212" lon="-0.50898">
        <ele>1087.14</ele>
        <time>2026-03-24T12:20:26.000Z</time>
      </trkpt>
      <trkpt lat="43.07194" lon="-0.50884">
        <ele>1078.07</ele>
        <time>2026-03-24T12:20:30.000Z</time>
      </trkpt>
      <trkpt lat="43.07177" lon="-0.50871">
        <ele>1073.02</ele>
        <time>2026-03-24T12:20:34.000Z</time>
      </trkpt>
      <trkpt lat="43.07161" lon="-0.50859">
        <ele>1066</ele>
        <time>2026-03-24T12:20:40.000Z</time>
      </trkpt>
      <trkpt lat="43.07141" lon="-0.50852">
        <ele>1062.99</ele>
        <time>2026-03-24T12:20:46.000Z</time>
      </trkpt>
      <trkpt lat="43.07126" lon="-0.50833">
        <ele>1057.33</ele>
        <time>2026-03-24T12:20:51.000Z</time>
      </trkpt>
      <trkpt lat="43.07115" lon="-0.50812">
        <ele>1052.17</ele>
        <time>2026-03-24T12:20:56.000Z</time>
      </trkpt>
      <trkpt lat="43.07094" lon="-0.50807">
        <ele>1049.89</ele>
        <time>2026-03-24T12:21:01.000Z</time>
      </trkpt>
      <trkpt lat="43.07078" lon="-0.50786">
        <ele>1045.23</ele>
        <time>2026-03-24T12:21:04.000Z</time>
      </trkpt>
      <trkpt lat="43.07065" lon="-0.50769">
        <ele>1041.67</ele>
        <time>2026-03-24T12:21:07.000Z</time>
      </trkpt>
      <trkpt lat="43.07057" lon="-0.50747">
        <ele>1036.97</ele>
        <time>2026-03-24T12:21:31.000Z</time>
      </trkpt>
      <trkpt lat="43.07062" lon="-0.50719">
        <ele>1029.17</ele>
        <time>2026-03-24T12:23:25.000Z</time>
      </trkpt>
      <trkpt lat="43.07058" lon="-0.50687">
        <ele>1025.78</ele>
        <time>2026-03-24T12:23:30.000Z</time>
      </trkpt>
      <trkpt lat="43.07056" lon="-0.50656">
        <ele>1025.29</ele>
        <time>2026-03-24T12:23:35.000Z</time>
      </trkpt>
      <trkpt lat="43.07055" lon="-0.50627">
        <ele>1023.55</ele>
        <time>2026-03-24T12:23:39.000Z</time>
      </trkpt>
      <trkpt lat="43.07046" lon="-0.50598">
        <ele>1021.3</ele>
        <time>2026-03-24T12:23:43.000Z</time>
      </trkpt>
      <trkpt lat="43.07037" lon="-0.50574">
        <ele>1020.33</ele>
        <time>2026-03-24T12:23:47.000Z</time>
      </trkpt>
      <trkpt lat="43.07029" lon="-0.50551">
        <ele>1022.32</ele>
        <time>2026-03-24T12:23:59.000Z</time>
      </trkpt>
      <trkpt lat="43.07023" lon="-0.50526">
        <ele>1016.77</ele>
        <time>2026-03-24T12:24:04.000Z</time>
      </trkpt>
      <trkpt lat="43.07005" lon="-0.50509">
        <ele>1019.45</ele>
        <time>2026-03-24T12:24:09.000Z</time>
      </trkpt>
      <trkpt lat="43.06985" lon="-0.50508">
        <ele>1019.02</ele>
        <time>2026-03-24T12:24:13.000Z</time>
      </trkpt>
      <trkpt lat="43.06972" lon="-0.50486">
        <ele>1014.77</ele>
        <time>2026-03-24T12:24:21.000Z</time>
      </trkpt>
      <trkpt lat="43.06977" lon="-0.50462">
        <ele>1009.71</ele>
        <time>2026-03-24T12:24:31.000Z</time>
      </trkpt>
      <trkpt lat="43.0699" lon="-0.50444">
        <ele>1007.65</ele>
        <time>2026-03-24T12:24:44.000Z</time>
      </trkpt>
      <trkpt lat="43.06999" lon="-0.50421">
        <ele>1004.14</ele>
        <time>2026-03-24T12:24:52.000Z</time>
      </trkpt>
      <trkpt lat="43.07004" lon="-0.50397">
        <ele>997.69</ele>
        <time>2026-03-24T12:25:00.000Z</time>
      </trkpt>
      <trkpt lat="43.07015" lon="-0.50372">
        <ele>995.22</ele>
        <time>2026-03-24T12:25:08.000Z</time>
      </trkpt>
      <trkpt lat="43.07021" lon="-0.50337">
        <ele>993.15</ele>
        <time>2026-03-24T12:25:14.000Z</time>
      </trkpt>
      <trkpt lat="43.07029" lon="-0.50314">
        <ele>990.31</ele>
        <time>2026-03-24T12:25:17.000Z</time>
      </trkpt>
      <trkpt lat="43.07032" lon="-0.50288">
        <ele>984.89</ele>
        <time>2026-03-24T12:25:21.000Z</time>
      </trkpt>
      <trkpt lat="43.07041" lon="-0.50265">
        <ele>982.64</ele>
        <time>2026-03-24T12:25:32.000Z</time>
      </trkpt>
      <trkpt lat="43.07045" lon="-0.50241">
        <ele>979.83</ele>
        <time>2026-03-24T12:25:44.000Z</time>
      </trkpt>
      <trkpt lat="43.07046" lon="-0.50214">
        <ele>980.91</ele>
        <time>2026-03-24T12:26:04.000Z</time>
      </trkpt>
      <trkpt lat="43.0705" lon="-0.50189">
        <ele>977.42</ele>
        <time>2026-03-24T12:26:11.000Z</time>
      </trkpt>
      <trkpt lat="43.07049" lon="-0.50163">
        <ele>975.05</ele>
        <time>2026-03-24T12:26:18.000Z</time>
      </trkpt>
      <trkpt lat="43.07044" lon="-0.50136">
        <ele>968.33</ele>
        <time>2026-03-24T12:26:25.000Z</time>
      </trkpt>
      <trkpt lat="43.07041" lon="-0.50106">
        <ele>966.19</ele>
        <time>2026-03-24T12:26:31.000Z</time>
      </trkpt>
      <trkpt lat="43.07038" lon="-0.50079">
        <ele>963.01</ele>
        <time>2026-03-24T12:26:38.000Z</time>
      </trkpt>
      <trkpt lat="43.07036" lon="-0.50055">
        <ele>957.26</ele>
        <time>2026-03-24T12:26:51.000Z</time>
      </trkpt>
      <trkpt lat="43.07026" lon="-0.50033">
        <ele>954.19</ele>
        <time>2026-03-24T12:27:00.000Z</time>
      </trkpt>
      <trkpt lat="43.07015" lon="-0.50007">
        <ele>952.36</ele>
        <time>2026-03-24T12:27:04.000Z</time>
      </trkpt>
      <trkpt lat="43.07002" lon="-0.49979">
        <ele>952.99</ele>
        <time>2026-03-24T12:27:08.000Z</time>
      </trkpt>
      <trkpt lat="43.06987" lon="-0.49958">
        <ele>950.3</ele>
        <time>2026-03-24T12:27:13.000Z</time>
      </trkpt>
      <trkpt lat="43.06972" lon="-0.49938">
        <ele>949.04</ele>
        <time>2026-03-24T12:27:17.000Z</time>
      </trkpt>
      <trkpt lat="43.0696" lon="-0.49914">
        <ele>946.96</ele>
        <time>2026-03-24T12:27:23.000Z</time>
      </trkpt>
      <trkpt lat="43.06952" lon="-0.49891">
        <ele>946.33</ele>
        <time>2026-03-24T12:27:28.000Z</time>
      </trkpt>
      <trkpt lat="43.06942" lon="-0.49869">
        <ele>942.92</ele>
        <time>2026-03-24T12:27:34.000Z</time>
      </trkpt>
      <trkpt lat="43.06942" lon="-0.49842">
        <ele>936.57</ele>
        <time>2026-03-24T12:27:40.000Z</time>
      </trkpt>
      <trkpt lat="43.06955" lon="-0.49818">
        <ele>931.56</ele>
        <time>2026-03-24T12:27:44.000Z</time>
      </trkpt>
      <trkpt lat="43.06965" lon="-0.49794">
        <ele>929.41</ele>
        <time>2026-03-24T12:27:50.000Z</time>
      </trkpt>
      <trkpt lat="43.06972" lon="-0.49771">
        <ele>928.2</ele>
        <time>2026-03-24T12:27:54.000Z</time>
      </trkpt>
      <trkpt lat="43.06978" lon="-0.49747">
        <ele>922.01</ele>
        <time>2026-03-24T12:27:59.000Z</time>
      </trkpt>
      <trkpt lat="43.06975" lon="-0.49721">
        <ele>919.41</ele>
        <time>2026-03-24T12:28:11.000Z</time>
      </trkpt>
      <trkpt lat="43.06975" lon="-0.49695">
        <ele>916.12</ele>
        <time>2026-03-24T12:28:14.000Z</time>
      </trkpt>
      <trkpt lat="43.06967" lon="-0.49666">
        <ele>913.1</ele>
        <time>2026-03-24T12:28:18.000Z</time>
      </trkpt>
      <trkpt lat="43.06964" lon="-0.49641">
        <ele>911.24</ele>
        <time>2026-03-24T12:28:22.000Z</time>
      </trkpt>
      <trkpt lat="43.06971" lon="-0.49618">
        <ele>901.12</ele>
        <time>2026-03-24T12:28:57.000Z</time>
      </trkpt>
      <trkpt lat="43.06968" lon="-0.49593">
        <ele>899.86</ele>
        <time>2026-03-24T12:29:13.000Z</time>
      </trkpt>
      <trkpt lat="43.06973" lon="-0.49568">
        <ele>902.8</ele>
        <time>2026-03-24T12:34:30.000Z</time>
      </trkpt>
      <trkpt lat="43.06967" lon="-0.49544">
        <ele>902.18</ele>
        <time>2026-03-24T12:34:36.000Z</time>
      </trkpt>
      <trkpt lat="43.06961" lon="-0.49517">
        <ele>902.13</ele>
        <time>2026-03-24T12:34:43.000Z</time>
      </trkpt>
      <trkpt lat="43.06949" lon="-0.49496">
        <ele>901.41</ele>
        <time>2026-03-24T12:34:49.000Z</time>
      </trkpt>
      <trkpt lat="43.06944" lon="-0.49472">
        <ele>894.39</ele>
        <time>2026-03-24T12:40:41.000Z</time>
      </trkpt>
      <trkpt lat="43.06936" lon="-0.49446">
        <ele>891.54</ele>
        <time>2026-03-24T12:40:46.000Z</time>
      </trkpt>
      <trkpt lat="43.06923" lon="-0.49428">
        <ele>890.73</ele>
        <time>2026-03-24T12:42:35.000Z</time>
      </trkpt>
      <trkpt lat="43.06912" lon="-0.49405">
        <ele>891.36</ele>
        <time>2026-03-24T12:42:39.000Z</time>
      </trkpt>
      <trkpt lat="43.06902" lon="-0.4938">
        <ele>890.72</ele>
        <time>2026-03-24T12:42:43.000Z</time>
      </trkpt>
      <trkpt lat="43.06893" lon="-0.49354">
        <ele>890.24</ele>
        <time>2026-03-24T12:42:47.000Z</time>
      </trkpt>
      <trkpt lat="43.06884" lon="-0.49327">
        <ele>889.86</ele>
        <time>2026-03-24T12:42:51.000Z</time>
      </trkpt>
      <trkpt lat="43.06873" lon="-0.49302">
        <ele>888.42</ele>
        <time>2026-03-24T12:42:55.000Z</time>
      </trkpt>
      <trkpt lat="43.06865" lon="-0.49279">
        <ele>888.52</ele>
        <time>2026-03-24T12:42:59.000Z</time>
      </trkpt>
      <trkpt lat="43.06855" lon="-0.49254">
        <ele>889.04</ele>
        <time>2026-03-24T12:43:03.000Z</time>
      </trkpt>
      <trkpt lat="43.06847" lon="-0.49231">
        <ele>887.39</ele>
        <time>2026-03-24T12:43:07.000Z</time>
      </trkpt>
      <trkpt lat="43.06838" lon="-0.49202">
        <ele>886.91</ele>
        <time>2026-03-24T12:43:11.000Z</time>
      </trkpt>
      <trkpt lat="43.06826" lon="-0.49177">
        <ele>886.62</ele>
        <time>2026-03-24T12:43:15.000Z</time>
      </trkpt>
      <trkpt lat="43.06813" lon="-0.49153">
        <ele>886.19</ele>
        <time>2026-03-24T12:43:19.000Z</time>
      </trkpt>
      <trkpt lat="43.06803" lon="-0.49132">
        <ele>886.08</ele>
        <time>2026-03-24T12:43:23.000Z</time>
      </trkpt>
      <trkpt lat="43.06791" lon="-0.49113">
        <ele>886.16</ele>
        <time>2026-03-24T12:43:27.000Z</time>
      </trkpt>
      <trkpt lat="43.06779" lon="-0.4909">
        <ele>884.26</ele>
        <time>2026-03-24T12:43:31.000Z</time>
      </trkpt>
      <trkpt lat="43.06766" lon="-0.49068">
        <ele>884.37</ele>
        <time>2026-03-24T12:43:36.000Z</time>
      </trkpt>
      <trkpt lat="43.06754" lon="-0.49048">
        <ele>883.46</ele>
        <time>2026-03-24T12:43:40.000Z</time>
      </trkpt>
      <trkpt lat="43.06741" lon="-0.49029">
        <ele>885.18</ele>
        <time>2026-03-24T12:43:44.000Z</time>
      </trkpt>
      <trkpt lat="43.06729" lon="-0.49006">
        <ele>885.58</ele>
        <time>2026-03-24T12:43:48.000Z</time>
      </trkpt>
      <trkpt lat="43.06716" lon="-0.48981">
        <ele>883.78</ele>
        <time>2026-03-24T12:43:53.000Z</time>
      </trkpt>
      <trkpt lat="43.06704" lon="-0.4896">
        <ele>882.08</ele>
        <time>2026-03-24T12:43:57.000Z</time>
      </trkpt>
      <trkpt lat="43.0669" lon="-0.48936">
        <ele>882.78</ele>
        <time>2026-03-24T12:44:02.000Z</time>
      </trkpt>
      <trkpt lat="43.06679" lon="-0.48916">
        <ele>880.46</ele>
        <time>2026-03-24T12:44:06.000Z</time>
      </trkpt>
      <trkpt lat="43.06667" lon="-0.48889">
        <ele>877.06</ele>
        <time>2026-03-24T12:44:11.000Z</time>
      </trkpt>
      <trkpt lat="43.06654" lon="-0.48871">
        <ele>875.22</ele>
        <time>2026-03-24T12:44:15.000Z</time>
      </trkpt>
      <trkpt lat="43.06639" lon="-0.48851">
        <ele>875.66</ele>
        <time>2026-03-24T12:44:20.000Z</time>
      </trkpt>
      <trkpt lat="43.06624" lon="-0.48831">
        <ele>876.51</ele>
        <time>2026-03-24T12:44:26.000Z</time>
      </trkpt>
      <trkpt lat="43.06608" lon="-0.48813">
        <ele>878.78</ele>
        <time>2026-03-24T12:44:31.000Z</time>
      </trkpt>
      <trkpt lat="43.06595" lon="-0.48793">
        <ele>877.27</ele>
        <time>2026-03-24T12:44:36.000Z</time>
      </trkpt>
      <trkpt lat="43.0658" lon="-0.48775">
        <ele>878.4</ele>
        <time>2026-03-24T12:44:41.000Z</time>
      </trkpt>
      <trkpt lat="43.06562" lon="-0.48757">
        <ele>877.68</ele>
        <time>2026-03-24T12:44:46.000Z</time>
      </trkpt>
      <trkpt lat="43.06547" lon="-0.48738">
        <ele>877.52</ele>
        <time>2026-03-24T12:44:51.000Z</time>
      </trkpt>
      <trkpt lat="43.06532" lon="-0.48721">
        <ele>880.16</ele>
        <time>2026-03-24T12:44:56.000Z</time>
      </trkpt>
      <trkpt lat="43.06525" lon="-0.48699">
        <ele>876.54</ele>
        <time>2026-03-24T12:45:00.000Z</time>
      </trkpt>
      <trkpt lat="43.06517" lon="-0.48674">
        <ele>872.6</ele>
        <time>2026-03-24T12:45:04.000Z</time>
      </trkpt>
      <trkpt lat="43.06505" lon="-0.48655">
        <ele>871.58</ele>
        <time>2026-03-24T12:45:08.000Z</time>
      </trkpt>
      <trkpt lat="43.06496" lon="-0.48629">
        <ele>869.49</ele>
        <time>2026-03-24T12:45:12.000Z</time>
      </trkpt>
      <trkpt lat="43.06485" lon="-0.48607">
        <ele>870.58</ele>
        <time>2026-03-24T12:45:16.000Z</time>
      </trkpt>
      <trkpt lat="43.06472" lon="-0.48586">
        <ele>871.81</ele>
        <time>2026-03-24T12:45:20.000Z</time>
      </trkpt>
      <trkpt lat="43.0646" lon="-0.48564">
        <ele>872.93</ele>
        <time>2026-03-24T12:45:24.000Z</time>
      </trkpt>
      <trkpt lat="43.06447" lon="-0.48537">
        <ele>872.53</ele>
        <time>2026-03-24T12:45:28.000Z</time>
      </trkpt>
      <trkpt lat="43.06436" lon="-0.48512">
        <ele>871.86</ele>
        <time>2026-03-24T12:45:32.000Z</time>
      </trkpt>
      <trkpt lat="43.06424" lon="-0.48491">
        <ele>872.42</ele>
        <time>2026-03-24T12:45:36.000Z</time>
      </trkpt>
      <trkpt lat="43.06411" lon="-0.48466">
        <ele>872.74</ele>
        <time>2026-03-24T12:45:41.000Z</time>
      </trkpt>
      <trkpt lat="43.06401" lon="-0.48442">
        <ele>874.76</ele>
        <time>2026-03-24T12:45:46.000Z</time>
      </trkpt>
      <trkpt lat="43.06392" lon="-0.48414">
        <ele>874.99</ele>
        <time>2026-03-24T12:45:51.000Z</time>
      </trkpt>
      <trkpt lat="43.06388" lon="-0.48388">
        <ele>877.01</ele>
        <time>2026-03-24T12:45:56.000Z</time>
      </trkpt>
      <trkpt lat="43.06381" lon="-0.48363">
        <ele>880.65</ele>
        <time>2026-03-24T12:46:02.000Z</time>
      </trkpt>
      <trkpt lat="43.06383" lon="-0.48337">
        <ele>882.36</ele>
        <time>2026-03-24T12:46:06.000Z</time>
      </trkpt>
      <trkpt lat="43.06379" lon="-0.48309">
        <ele>881.78</ele>
        <time>2026-03-24T12:46:10.000Z</time>
      </trkpt>
      <trkpt lat="43.06379" lon="-0.48283">
        <ele>880.34</ele>
        <time>2026-03-24T12:46:13.000Z</time>
      </trkpt>
      <trkpt lat="43.06373" lon="-0.48257">
        <ele>878.85</ele>
        <time>2026-03-24T12:46:17.000Z</time>
      </trkpt>
      <trkpt lat="43.06367" lon="-0.48228">
        <ele>879.22</ele>
        <time>2026-03-24T12:46:22.000Z</time>
      </trkpt>
      <trkpt lat="43.06364" lon="-0.48203">
        <ele>876.57</ele>
        <time>2026-03-24T12:46:26.000Z</time>
      </trkpt>
      <trkpt lat="43.06365" lon="-0.48169">
        <ele>876.42</ele>
        <time>2026-03-24T12:46:31.000Z</time>
      </trkpt>
      <trkpt lat="43.06364" lon="-0.48142">
        <ele>877.2</ele>
        <time>2026-03-24T12:46:35.000Z</time>
      </trkpt>
      <trkpt lat="43.06362" lon="-0.48117">
        <ele>878.46</ele>
        <time>2026-03-24T12:46:39.000Z</time>
      </trkpt>
      <trkpt lat="43.06358" lon="-0.48091">
        <ele>881.07</ele>
        <time>2026-03-24T12:46:44.000Z</time>
      </trkpt>
      <trkpt lat="43.06351" lon="-0.48067">
        <ele>882.45</ele>
        <time>2026-03-24T12:46:49.000Z</time>
      </trkpt>
      <trkpt lat="43.06344" lon="-0.48042">
        <ele>877.88</ele>
        <time>2026-03-24T12:46:54.000Z</time>
      </trkpt>
      <trkpt lat="43.06341" lon="-0.48016">
        <ele>875.06</ele>
        <time>2026-03-24T12:46:58.000Z</time>
      </trkpt>
      <trkpt lat="43.06344" lon="-0.4799">
        <ele>877.82</ele>
        <time>2026-03-24T12:47:03.000Z</time>
      </trkpt>
      <trkpt lat="43.06362" lon="-0.47974">
        <ele>879.66</ele>
        <time>2026-03-24T12:47:08.000Z</time>
      </trkpt>
      <trkpt lat="43.06378" lon="-0.47962">
        <ele>880.08</ele>
        <time>2026-03-24T12:47:13.000Z</time>
      </trkpt>
      <trkpt lat="43.06395" lon="-0.47947">
        <ele>882.03</ele>
        <time>2026-03-24T12:47:18.000Z</time>
      </trkpt>
      <trkpt lat="43.06412" lon="-0.47934">
        <ele>882.78</ele>
        <time>2026-03-24T12:47:23.000Z</time>
      </trkpt>
      <trkpt lat="43.06425" lon="-0.47912">
        <ele>883.35</ele>
        <time>2026-03-24T12:47:29.000Z</time>
      </trkpt>
      <trkpt lat="43.06426" lon="-0.47886">
        <ele>884.31</ele>
        <time>2026-03-24T12:47:35.000Z</time>
      </trkpt>
      <trkpt lat="43.06423" lon="-0.47858">
        <ele>881.22</ele>
        <time>2026-03-24T12:47:41.000Z</time>
      </trkpt>
      <trkpt lat="43.06421" lon="-0.47832">
        <ele>881.55</ele>
        <time>2026-03-24T12:47:46.000Z</time>
      </trkpt>
      <trkpt lat="43.06421" lon="-0.47804">
        <ele>883.12</ele>
        <time>2026-03-24T12:47:51.000Z</time>
      </trkpt>
      <trkpt lat="43.06426" lon="-0.47778">
        <ele>884.52</ele>
        <time>2026-03-24T12:47:55.000Z</time>
      </trkpt>
      <trkpt lat="43.0643" lon="-0.47748">
        <ele>882.28</ele>
        <time>2026-03-24T12:47:59.000Z</time>
      </trkpt>
      <trkpt lat="43.06436" lon="-0.47724">
        <ele>882.96</ele>
        <time>2026-03-24T12:48:02.000Z</time>
      </trkpt>
      <trkpt lat="43.0645" lon="-0.47701">
        <ele>881.11</ele>
        <time>2026-03-24T12:48:06.000Z</time>
      </trkpt>
      <trkpt lat="43.06463" lon="-0.47681">
        <ele>880.65</ele>
        <time>2026-03-24T12:48:09.000Z</time>
      </trkpt>
      <trkpt lat="43.06474" lon="-0.47653">
        <ele>880.55</ele>
        <time>2026-03-24T12:48:13.000Z</time>
      </trkpt>
      <trkpt lat="43.06478" lon="-0.47624">
        <ele>878.53</ele>
        <time>2026-03-24T12:48:16.000Z</time>
      </trkpt>
      <trkpt lat="43.06479" lon="-0.47594">
        <ele>878.31</ele>
        <time>2026-03-24T12:48:19.000Z</time>
      </trkpt>
      <trkpt lat="43.06478" lon="-0.47568">
        <ele>877.75</ele>
        <time>2026-03-24T12:48:22.000Z</time>
      </trkpt>
      <trkpt lat="43.06477" lon="-0.47539">
        <ele>879.8</ele>
        <time>2026-03-24T12:48:26.000Z</time>
      </trkpt>
      <trkpt lat="43.06476" lon="-0.4751">
        <ele>880.96</ele>
        <time>2026-03-24T12:48:30.000Z</time>
      </trkpt>
      <trkpt lat="43.06477" lon="-0.47483">
        <ele>879.03</ele>
        <time>2026-03-24T12:48:34.000Z</time>
      </trkpt>
      <trkpt lat="43.06477" lon="-0.47455">
        <ele>879.48</ele>
        <time>2026-03-24T12:48:38.000Z</time>
      </trkpt>
      <trkpt lat="43.06476" lon="-0.47428">
        <ele>880.5</ele>
        <time>2026-03-24T12:48:43.000Z</time>
      </trkpt>
      <trkpt lat="43.06476" lon="-0.47401">
        <ele>879.85</ele>
        <time>2026-03-24T12:48:47.000Z</time>
      </trkpt>
      <trkpt lat="43.06476" lon="-0.47375">
        <ele>881.03</ele>
        <time>2026-03-24T12:48:51.000Z</time>
      </trkpt>
      <trkpt lat="43.06476" lon="-0.4735">
        <ele>879.46</ele>
        <time>2026-03-24T12:48:55.000Z</time>
      </trkpt>
      <trkpt lat="43.06477" lon="-0.47323">
        <ele>879.51</ele>
        <time>2026-03-24T12:48:59.000Z</time>
      </trkpt>
      <trkpt lat="43.06476" lon="-0.47296">
        <ele>878.63</ele>
        <time>2026-03-24T12:49:03.000Z</time>
      </trkpt>
      <trkpt lat="43.06477" lon="-0.47269">
        <ele>879.32</ele>
        <time>2026-03-24T12:49:07.000Z</time>
      </trkpt>
      <trkpt lat="43.06477" lon="-0.47243">
        <ele>881.22</ele>
        <time>2026-03-24T12:49:11.000Z</time>
      </trkpt>
      <trkpt lat="43.06481" lon="-0.47217">
        <ele>880.23</ele>
        <time>2026-03-24T12:49:15.000Z</time>
      </trkpt>
      <trkpt lat="43.0649" lon="-0.47194">
        <ele>882.24</ele>
        <time>2026-03-24T12:49:19.000Z</time>
      </trkpt>
      <trkpt lat="43.06498" lon="-0.4717">
        <ele>878.5</ele>
        <time>2026-03-24T12:49:23.000Z</time>
      </trkpt>
      <trkpt lat="43.06505" lon="-0.47146">
        <ele>877.04</ele>
        <time>2026-03-24T12:49:28.000Z</time>
      </trkpt>
      <trkpt lat="43.06511" lon="-0.47117">
        <ele>875.75</ele>
        <time>2026-03-24T12:49:33.000Z</time>
      </trkpt>
      <trkpt lat="43.06509" lon="-0.47089">
        <ele>876.62</ele>
        <time>2026-03-24T12:49:38.000Z</time>
      </trkpt>
      <trkpt lat="43.06513" lon="-0.47059">
        <ele>874.11</ele>
        <time>2026-03-24T12:49:43.000Z</time>
      </trkpt>
      <trkpt lat="43.0651" lon="-0.47031">
        <ele>872.26</ele>
        <time>2026-03-24T12:49:49.000Z</time>
      </trkpt>
      <trkpt lat="43.06508" lon="-0.47002">
        <ele>873.4</ele>
        <time>2026-03-24T12:49:54.000Z</time>
      </trkpt>
      <trkpt lat="43.06507" lon="-0.46974">
        <ele>875.5</ele>
        <time>2026-03-24T12:49:59.000Z</time>
      </trkpt>
      <trkpt lat="43.06511" lon="-0.46947">
        <ele>873.58</ele>
        <time>2026-03-24T12:51:36.000Z</time>
      </trkpt>
      <trkpt lat="43.06515" lon="-0.46921">
        <ele>878.22</ele>
        <time>2026-03-24T12:51:41.000Z</time>
      </trkpt>
      <trkpt lat="43.06522" lon="-0.46894">
        <ele>877.31</ele>
        <time>2026-03-24T12:51:46.000Z</time>
      </trkpt>
      <trkpt lat="43.06528" lon="-0.46867">
        <ele>877.53</ele>
        <time>2026-03-24T12:51:51.000Z</time>
      </trkpt>
      <trkpt lat="43.06532" lon="-0.4684">
        <ele>877.42</ele>
        <time>2026-03-24T12:51:56.000Z</time>
      </trkpt>
      <trkpt lat="43.06535" lon="-0.46812">
        <ele>876.74</ele>
        <time>2026-03-24T12:52:02.000Z</time>
      </trkpt>
      <trkpt lat="43.06536" lon="-0.46786">
        <ele>876.88</ele>
        <time>2026-03-24T12:52:08.000Z</time>
      </trkpt>
      <trkpt lat="43.06536" lon="-0.46757">
        <ele>877.37</ele>
        <time>2026-03-24T12:52:14.000Z</time>
      </trkpt>
      <trkpt lat="43.06538" lon="-0.46728">
        <ele>878.67</ele>
        <time>2026-03-24T12:52:20.000Z</time>
      </trkpt>
      <trkpt lat="43.06539" lon="-0.46704">
        <ele>879.17</ele>
        <time>2026-03-24T12:52:25.000Z</time>
      </trkpt>
      <trkpt lat="43.06541" lon="-0.46675">
        <ele>878.81</ele>
        <time>2026-03-24T12:52:31.000Z</time>
      </trkpt>
      <trkpt lat="43.06541" lon="-0.4665">
        <ele>880.51</ele>
        <time>2026-03-24T12:52:36.000Z</time>
      </trkpt>
      <trkpt lat="43.06543" lon="-0.46625">
        <ele>879.4</ele>
        <time>2026-03-24T12:52:41.000Z</time>
      </trkpt>
      <trkpt lat="43.06546" lon="-0.466">
        <ele>878.09</ele>
        <time>2026-03-24T12:52:46.000Z</time>
      </trkpt>
      <trkpt lat="43.06546" lon="-0.46572">
        <ele>878.47</ele>
        <time>2026-03-24T12:52:52.000Z</time>
      </trkpt>
      <trkpt lat="43.0653" lon="-0.46555">
        <ele>879.63</ele>
        <time>2026-03-24T12:52:59.000Z</time>
      </trkpt>
      <trkpt lat="43.06523" lon="-0.4653">
        <ele>879.33</ele>
        <time>2026-03-24T12:53:04.000Z</time>
      </trkpt>
      <trkpt lat="43.0652" lon="-0.46501">
        <ele>879.93</ele>
        <time>2026-03-24T12:53:10.000Z</time>
      </trkpt>
      <trkpt lat="43.06504" lon="-0.46488">
        <ele>880.81</ele>
        <time>2026-03-24T12:53:15.000Z</time>
      </trkpt>
      <trkpt lat="43.06483" lon="-0.46486">
        <ele>879.71</ele>
        <time>2026-03-24T12:53:20.000Z</time>
      </trkpt>
      <trkpt lat="43.06462" lon="-0.46489">
        <ele>879.97</ele>
        <time>2026-03-24T12:53:25.000Z</time>
      </trkpt>
      <trkpt lat="43.06443" lon="-0.46494">
        <ele>881.64</ele>
        <time>2026-03-24T12:53:30.000Z</time>
      </trkpt>
      <trkpt lat="43.06422" lon="-0.46502">
        <ele>879.81</ele>
        <time>2026-03-24T12:53:36.000Z</time>
      </trkpt>
      <trkpt lat="43.06404" lon="-0.46515">
        <ele>884.33</ele>
        <time>2026-03-24T12:53:42.000Z</time>
      </trkpt>
      <trkpt lat="43.06383" lon="-0.46523">
        <ele>884.68</ele>
        <time>2026-03-24T12:53:46.000Z</time>
      </trkpt>
      <trkpt lat="43.06364" lon="-0.46529">
        <ele>884.81</ele>
        <time>2026-03-24T12:53:50.000Z</time>
      </trkpt>
      <trkpt lat="43.06342" lon="-0.46536">
        <ele>883.24</ele>
        <time>2026-03-24T12:53:54.000Z</time>
      </trkpt>
      <trkpt lat="43.06323" lon="-0.46545">
        <ele>882.91</ele>
        <time>2026-03-24T12:53:59.000Z</time>
      </trkpt>
      <trkpt lat="43.06305" lon="-0.46549">
        <ele>884.71</ele>
        <time>2026-03-24T12:55:21.000Z</time>
      </trkpt>
      <trkpt lat="43.06287" lon="-0.46557">
        <ele>884.08</ele>
        <time>2026-03-24T12:55:26.000Z</time>
      </trkpt>
      <trkpt lat="43.06268" lon="-0.46569">
        <ele>885.02</ele>
        <time>2026-03-24T12:55:32.000Z</time>
      </trkpt>
      <trkpt lat="43.06251" lon="-0.46582">
        <ele>883.18</ele>
        <time>2026-03-24T12:55:37.000Z</time>
      </trkpt>
      <trkpt lat="43.06231" lon="-0.46592">
        <ele>883.74</ele>
        <time>2026-03-24T12:55:42.000Z</time>
      </trkpt>
      <trkpt lat="43.06212" lon="-0.46598">
        <ele>886.69</ele>
        <time>2026-03-24T12:55:48.000Z</time>
      </trkpt>
      <trkpt lat="43.06194" lon="-0.46607">
        <ele>885.99</ele>
        <time>2026-03-24T12:55:53.000Z</time>
      </trkpt>
      <trkpt lat="43.06175" lon="-0.46609">
        <ele>886.63</ele>
        <time>2026-03-24T12:55:58.000Z</time>
      </trkpt>
      <trkpt lat="43.06155" lon="-0.46608">
        <ele>884.81</ele>
        <time>2026-03-24T12:56:04.000Z</time>
      </trkpt>
      <trkpt lat="43.06138" lon="-0.46601">
        <ele>884.7</ele>
        <time>2026-03-24T12:56:11.000Z</time>
      </trkpt>
      <trkpt lat="43.06121" lon="-0.46589">
        <ele>882.56</ele>
        <time>2026-03-24T12:56:17.000Z</time>
      </trkpt>
      <trkpt lat="43.06104" lon="-0.46576">
        <ele>881.46</ele>
        <time>2026-03-24T12:56:24.000Z</time>
      </trkpt>
      <trkpt lat="43.06085" lon="-0.46567">
        <ele>885.4</ele>
        <time>2026-03-24T12:56:33.000Z</time>
      </trkpt>
      <trkpt lat="43.06067" lon="-0.4656">
        <ele>888.99</ele>
        <time>2026-03-24T12:56:42.000Z</time>
      </trkpt>
      <trkpt lat="43.06048" lon="-0.46557">
        <ele>897.87</ele>
        <time>2026-03-24T12:58:21.000Z</time>
      </trkpt>
      <trkpt lat="43.06029" lon="-0.46557">
        <ele>900.96</ele>
        <time>2026-03-24T12:58:29.000Z</time>
      </trkpt>
      <trkpt lat="43.0601" lon="-0.46552">
        <ele>901.18</ele>
        <time>2026-03-24T12:58:34.000Z</time>
      </trkpt>
      <trkpt lat="43.05992" lon="-0.46542">
        <ele>900.18</ele>
        <time>2026-03-24T12:58:39.000Z</time>
      </trkpt>
      <trkpt lat="43.05972" lon="-0.46528">
        <ele>896.93</ele>
        <time>2026-03-24T12:58:44.000Z</time>
      </trkpt>
      <trkpt lat="43.05956" lon="-0.46512">
        <ele>892.64</ele>
        <time>2026-03-24T12:58:47.000Z</time>
      </trkpt>
      <trkpt lat="43.05939" lon="-0.46487">
        <ele>890.19</ele>
        <time>2026-03-24T12:58:50.000Z</time>
      </trkpt>
      <trkpt lat="43.05928" lon="-0.46463">
        <ele>887.9</ele>
        <time>2026-03-24T12:58:52.000Z</time>
      </trkpt>
      <trkpt lat="43.05914" lon="-0.46432">
        <ele>883.34</ele>
        <time>2026-03-24T12:58:55.000Z</time>
      </trkpt>
      <trkpt lat="43.05902" lon="-0.46408">
        <ele>882.63</ele>
        <time>2026-03-24T12:58:57.000Z</time>
      </trkpt>
      <trkpt lat="43.0589" lon="-0.46386">
        <ele>880.96</ele>
        <time>2026-03-24T12:58:59.000Z</time>
      </trkpt>
      <trkpt lat="43.05878" lon="-0.46357">
        <ele>878.81</ele>
        <time>2026-03-24T12:59:02.000Z</time>
      </trkpt>
      <trkpt lat="43.05867" lon="-0.46332">
        <ele>875.94</ele>
        <time>2026-03-24T12:59:06.000Z</time>
      </trkpt>
      <trkpt lat="43.0585" lon="-0.46321">
        <ele>872.47</ele>
        <time>2026-03-24T13:00:37.000Z</time>
      </trkpt>
      <trkpt lat="43.05834" lon="-0.46334">
        <ele>883.35</ele>
        <time>2026-03-24T13:00:49.000Z</time>
      </trkpt>
      <trkpt lat="43.05815" lon="-0.46338">
        <ele>886.95</ele>
        <time>2026-03-24T13:01:02.000Z</time>
      </trkpt>
      <trkpt lat="43.05797" lon="-0.46339">
        <ele>877.59</ele>
        <time>2026-03-24T13:01:17.000Z</time>
      </trkpt>
      <trkpt lat="43.05782" lon="-0.46354">
        <ele>880.35</ele>
        <time>2026-03-24T13:01:29.000Z</time>
      </trkpt>
      <trkpt lat="43.05763" lon="-0.46358">
        <ele>876.86</ele>
        <time>2026-03-24T13:01:36.000Z</time>
      </trkpt>
      <trkpt lat="43.05743" lon="-0.46366">
        <ele>875.74</ele>
        <time>2026-03-24T13:01:45.000Z</time>
      </trkpt>
      <trkpt lat="43.05727" lon="-0.46377">
        <ele>877.26</ele>
        <time>2026-03-24T13:01:55.000Z</time>
      </trkpt>
      <trkpt lat="43.05708" lon="-0.46376">
        <ele>884.12</ele>
        <time>2026-03-24T13:02:09.000Z</time>
      </trkpt>
      <trkpt lat="43.0569" lon="-0.46386">
        <ele>888.32</ele>
        <time>2026-03-24T13:02:17.000Z</time>
      </trkpt>
      <trkpt lat="43.05672" lon="-0.46395">
        <ele>889.08</ele>
        <time>2026-03-24T13:02:27.000Z</time>
      </trkpt>
      <trkpt lat="43.05655" lon="-0.46404">
        <ele>893.49</ele>
        <time>2026-03-24T13:02:36.000Z</time>
      </trkpt>
      <trkpt lat="43.05638" lon="-0.46416">
        <ele>893.95</ele>
        <time>2026-03-24T13:02:44.000Z</time>
      </trkpt>
      <trkpt lat="43.05623" lon="-0.46433">
        <ele>898.86</ele>
        <time>2026-03-24T13:02:54.000Z</time>
      </trkpt>
      <trkpt lat="43.05606" lon="-0.46446">
        <ele>900.2</ele>
        <time>2026-03-24T13:03:03.000Z</time>
      </trkpt>
      <trkpt lat="43.0559" lon="-0.46459">
        <ele>897.99</ele>
        <time>2026-03-24T13:03:14.000Z</time>
      </trkpt>
      <trkpt lat="43.05573" lon="-0.4647">
        <ele>902.19</ele>
        <time>2026-03-24T13:03:23.000Z</time>
      </trkpt>
      <trkpt lat="43.05554" lon="-0.46478">
        <ele>895.73</ele>
        <time>2026-03-24T13:03:32.000Z</time>
      </trkpt>
      <trkpt lat="43.05534" lon="-0.46484">
        <ele>897.77</ele>
        <time>2026-03-24T13:03:40.000Z</time>
      </trkpt>
      <trkpt lat="43.05515" lon="-0.46486">
        <ele>893.76</ele>
        <time>2026-03-24T13:03:47.000Z</time>
      </trkpt>
      <trkpt lat="43.05497" lon="-0.46491">
        <ele>895.78</ele>
        <time>2026-03-24T13:03:55.000Z</time>
      </trkpt>
      <trkpt lat="43.05481" lon="-0.46505">
        <ele>900.75</ele>
        <time>2026-03-24T13:04:06.000Z</time>
      </trkpt>
      <trkpt lat="43.05463" lon="-0.46517">
        <ele>903.65</ele>
        <time>2026-03-24T13:04:16.000Z</time>
      </trkpt>
      <trkpt lat="43.05449" lon="-0.46533">
        <ele>911.8</ele>
        <time>2026-03-24T13:04:30.000Z</time>
      </trkpt>
      <trkpt lat="43.05431" lon="-0.4654">
        <ele>907.8</ele>
        <time>2026-03-24T13:04:39.000Z</time>
      </trkpt>
      <trkpt lat="43.05413" lon="-0.46546">
        <ele>911.08</ele>
        <time>2026-03-24T13:04:46.000Z</time>
      </trkpt>
      <trkpt lat="43.05394" lon="-0.46546">
        <ele>913.76</ele>
        <time>2026-03-24T13:04:53.000Z</time>
      </trkpt>
      <trkpt lat="43.05375" lon="-0.46545">
        <ele>915.26</ele>
        <time>2026-03-24T13:05:01.000Z</time>
      </trkpt>
      <trkpt lat="43.05356" lon="-0.46546">
        <ele>915.2</ele>
        <time>2026-03-24T13:05:09.000Z</time>
      </trkpt>
      <trkpt lat="43.05337" lon="-0.46543">
        <ele>916.7</ele>
        <time>2026-03-24T13:05:18.000Z</time>
      </trkpt>
      <trkpt lat="43.05319" lon="-0.46541">
        <ele>917.45</ele>
        <time>2026-03-24T13:05:26.000Z</time>
      </trkpt>
      <trkpt lat="43.05299" lon="-0.46536">
        <ele>917.08</ele>
        <time>2026-03-24T13:05:36.000Z</time>
      </trkpt>
      <trkpt lat="43.05281" lon="-0.46533">
        <ele>919.85</ele>
        <time>2026-03-24T13:05:46.000Z</time>
      </trkpt>
      <trkpt lat="43.05262" lon="-0.46531">
        <ele>922.52</ele>
        <time>2026-03-24T13:05:57.000Z</time>
      </trkpt>
      <trkpt lat="43.05243" lon="-0.46531">
        <ele>924.96</ele>
        <time>2026-03-24T13:06:09.000Z</time>
      </trkpt>
      <trkpt lat="43.05225" lon="-0.46526">
        <ele>927.15</ele>
        <time>2026-03-24T13:06:27.000Z</time>
      </trkpt>
      <trkpt lat="43.05208" lon="-0.46521">
        <ele>934.43</ele>
        <time>2026-03-24T13:06:44.000Z</time>
      </trkpt>
      <trkpt lat="43.05189" lon="-0.46516">
        <ele>941.06</ele>
        <time>2026-03-24T13:06:58.000Z</time>
      </trkpt>
      <trkpt lat="43.05173" lon="-0.46503">
        <ele>940.19</ele>
        <time>2026-03-24T13:11:32.000Z</time>
      </trkpt>
      <trkpt lat="43.05155" lon="-0.46499">
        <ele>951.2</ele>
        <time>2026-03-24T13:11:58.000Z</time>
      </trkpt>
      <trkpt lat="43.05137" lon="-0.46491">
        <ele>954.38</ele>
        <time>2026-03-24T13:12:19.000Z</time>
      </trkpt>
      <trkpt lat="43.0512" lon="-0.46482">
        <ele>957.99</ele>
        <time>2026-03-24T13:12:32.000Z</time>
      </trkpt>
      <trkpt lat="43.05104" lon="-0.46469">
        <ele>964.64</ele>
        <time>2026-03-24T13:12:54.000Z</time>
      </trkpt>
      <trkpt lat="43.0509" lon="-0.46452">
        <ele>969.31</ele>
        <time>2026-03-24T13:13:26.000Z</time>
      </trkpt>
      <trkpt lat="43.05079" lon="-0.46432">
        <ele>970.34</ele>
        <time>2026-03-24T13:13:53.000Z</time>
      </trkpt>
      <trkpt lat="43.05068" lon="-0.46411">
        <ele>968.17</ele>
        <time>2026-03-24T13:14:26.000Z</time>
      </trkpt>
      <trkpt lat="43.05073" lon="-0.46385">
        <ele>969.62</ele>
        <time>2026-03-24T13:16:13.000Z</time>
      </trkpt>
      <trkpt lat="43.05086" lon="-0.46368">
        <ele>971.38</ele>
        <time>2026-03-24T13:16:32.000Z</time>
      </trkpt>
      <trkpt lat="43.05093" lon="-0.46345">
        <ele>979.74</ele>
        <time>2026-03-24T13:16:42.000Z</time>
      </trkpt>
      <trkpt lat="43.05086" lon="-0.46322">
        <ele>981.42</ele>
        <time>2026-03-24T13:16:52.000Z</time>
      </trkpt>
      <trkpt lat="43.05072" lon="-0.46306">
        <ele>981.05</ele>
        <time>2026-03-24T13:17:02.000Z</time>
      </trkpt>
      <trkpt lat="43.05052" lon="-0.46302">
        <ele>974.09</ele>
        <time>2026-03-24T13:17:08.000Z</time>
      </trkpt>
      <trkpt lat="43.05036" lon="-0.46313">
        <ele>971.07</ele>
        <time>2026-03-24T13:17:12.000Z</time>
      </trkpt>
      <trkpt lat="43.0502" lon="-0.4633">
        <ele>967.1</ele>
        <time>2026-03-24T13:17:17.000Z</time>
      </trkpt>
      <trkpt lat="43.05006" lon="-0.46351">
        <ele>967.72</ele>
        <time>2026-03-24T13:17:23.000Z</time>
      </trkpt>
      <trkpt lat="43.04998" lon="-0.46375">
        <ele>966.14</ele>
        <time>2026-03-24T13:17:28.000Z</time>
      </trkpt>
      <trkpt lat="43.04982" lon="-0.46404">
        <ele>960.32</ele>
        <time>2026-03-24T13:17:32.000Z</time>
      </trkpt>
      <trkpt lat="43.04965" lon="-0.46422">
        <ele>956.19</ele>
        <time>2026-03-24T13:17:36.000Z</time>
      </trkpt>
      <trkpt lat="43.04948" lon="-0.46436">
        <ele>951.14</ele>
        <time>2026-03-24T13:17:41.000Z</time>
      </trkpt>
      <trkpt lat="43.0493" lon="-0.46449">
        <ele>946.58</ele>
        <time>2026-03-24T13:17:48.000Z</time>
      </trkpt>
      <trkpt lat="43.0491" lon="-0.46457">
        <ele>941.11</ele>
        <time>2026-03-24T13:17:52.000Z</time>
      </trkpt>
      <trkpt lat="43.0489" lon="-0.46455">
        <ele>939.78</ele>
        <time>2026-03-24T13:17:57.000Z</time>
      </trkpt>
      <trkpt lat="43.04871" lon="-0.4645">
        <ele>936.83</ele>
        <time>2026-03-24T13:18:00.000Z</time>
      </trkpt>
      <trkpt lat="43.04851" lon="-0.4644">
        <ele>935.27</ele>
        <time>2026-03-24T13:18:05.000Z</time>
      </trkpt>
      <trkpt lat="43.04839" lon="-0.46421">
        <ele>931.81</ele>
        <time>2026-03-24T13:18:11.000Z</time>
      </trkpt>
      <trkpt lat="43.04826" lon="-0.46403">
        <ele>927.82</ele>
        <time>2026-03-24T13:18:17.000Z</time>
      </trkpt>
      <trkpt lat="43.04808" lon="-0.46397">
        <ele>925.11</ele>
        <time>2026-03-24T13:18:20.000Z</time>
      </trkpt>
      <trkpt lat="43.04786" lon="-0.46395">
        <ele>921.13</ele>
        <time>2026-03-24T13:18:24.000Z</time>
      </trkpt>
      <trkpt lat="43.04763" lon="-0.46387">
        <ele>913.92</ele>
        <time>2026-03-24T13:18:30.000Z</time>
      </trkpt>
      <trkpt lat="43.04741" lon="-0.46378">
        <ele>911.47</ele>
        <time>2026-03-24T13:18:33.000Z</time>
      </trkpt>
      <trkpt lat="43.04722" lon="-0.46367">
        <ele>907.46</ele>
        <time>2026-03-24T13:18:37.000Z</time>
      </trkpt>
      <trkpt lat="43.04706" lon="-0.46354">
        <ele>905.01</ele>
        <time>2026-03-24T13:18:40.000Z</time>
      </trkpt>
      <trkpt lat="43.04688" lon="-0.46343">
        <ele>904.07</ele>
        <time>2026-03-24T13:18:43.000Z</time>
      </trkpt>
      <trkpt lat="43.04671" lon="-0.46323">
        <ele>898.87</ele>
        <time>2026-03-24T13:18:46.000Z</time>
      </trkpt>
      <trkpt lat="43.04655" lon="-0.46306">
        <ele>893.81</ele>
        <time>2026-03-24T13:18:50.000Z</time>
      </trkpt>
      <trkpt lat="43.04658" lon="-0.46281">
        <ele>888.49</ele>
        <time>2026-03-24T13:18:56.000Z</time>
      </trkpt>
      <trkpt lat="43.04668" lon="-0.46256">
        <ele>885.38</ele>
        <time>2026-03-24T13:19:00.000Z</time>
      </trkpt>
      <trkpt lat="43.0468" lon="-0.46233">
        <ele>882.52</ele>
        <time>2026-03-24T13:19:04.000Z</time>
      </trkpt>
      <trkpt lat="43.04689" lon="-0.46211">
        <ele>880.93</ele>
        <time>2026-03-24T13:19:07.000Z</time>
      </trkpt>
      <trkpt lat="43.04705" lon="-0.4619">
        <ele>876.39</ele>
        <time>2026-03-24T13:19:13.000Z</time>
      </trkpt>
      <trkpt lat="43.04723" lon="-0.46186">
        <ele>869.19</ele>
        <time>2026-03-24T13:19:22.000Z</time>
      </trkpt>
      <trkpt lat="43.04741" lon="-0.46178">
        <ele>862.14</ele>
        <time>2026-03-24T13:19:41.000Z</time>
      </trkpt>
      <trkpt lat="43.04759" lon="-0.46173">
        <ele>871.07</ele>
        <time>2026-03-24T13:19:57.000Z</time>
      </trkpt>
      <trkpt lat="43.04775" lon="-0.4616">
        <ele>879.34</ele>
        <time>2026-03-24T13:20:11.000Z</time>
      </trkpt>
      <trkpt lat="43.04788" lon="-0.46143">
        <ele>881.47</ele>
        <time>2026-03-24T13:20:21.000Z</time>
      </trkpt>
      <trkpt lat="43.04808" lon="-0.46121">
        <ele>876.43</ele>
        <time>2026-03-24T13:21:14.000Z</time>
      </trkpt>
      <trkpt lat="43.04815" lon="-0.46096">
        <ele>879.37</ele>
        <time>2026-03-24T13:23:19.000Z</time>
      </trkpt>
      <trkpt lat="43.04826" lon="-0.46071">
        <ele>872.11</ele>
        <time>2026-03-24T13:23:25.000Z</time>
      </trkpt>
      <trkpt lat="43.04839" lon="-0.4605">
        <ele>870.83</ele>
        <time>2026-03-24T13:23:30.000Z</time>
      </trkpt>
      <trkpt lat="43.04852" lon="-0.46025">
        <ele>867.81</ele>
        <time>2026-03-24T13:23:34.000Z</time>
      </trkpt>
      <trkpt lat="43.04873" lon="-0.46016">
        <ele>866.36</ele>
        <time>2026-03-24T13:23:39.000Z</time>
      </trkpt>
      <trkpt lat="43.04891" lon="-0.46009">
        <ele>865.25</ele>
        <time>2026-03-24T13:23:45.000Z</time>
      </trkpt>
      <trkpt lat="43.04898" lon="-0.45987">
        <ele>860.05</ele>
        <time>2026-03-24T13:23:50.000Z</time>
      </trkpt>
      <trkpt lat="43.04912" lon="-0.4597">
        <ele>852.23</ele>
        <time>2026-03-24T13:24:00.000Z</time>
      </trkpt>
      <trkpt lat="43.04922" lon="-0.45945">
        <ele>841.5</ele>
        <time>2026-03-24T13:24:07.000Z</time>
      </trkpt>
      <trkpt lat="43.04935" lon="-0.45922">
        <ele>831.48</ele>
        <time>2026-03-24T13:24:12.000Z</time>
      </trkpt>
      <trkpt lat="43.04951" lon="-0.45901">
        <ele>826.84</ele>
        <time>2026-03-24T13:24:15.000Z</time>
      </trkpt>
      <trkpt lat="43.04967" lon="-0.45876">
        <ele>822.22</ele>
        <time>2026-03-24T13:24:20.000Z</time>
      </trkpt>
      <trkpt lat="43.04977" lon="-0.4585">
        <ele>820.32</ele>
        <time>2026-03-24T13:24:25.000Z</time>
      </trkpt>
      <trkpt lat="43.04988" lon="-0.4583">
        <ele>815.49</ele>
        <time>2026-03-24T13:24:28.000Z</time>
      </trkpt>
      <trkpt lat="43.04999" lon="-0.4581">
        <ele>811.57</ele>
        <time>2026-03-24T13:24:32.000Z</time>
      </trkpt>
      <trkpt lat="43.05018" lon="-0.45802">
        <ele>807.13</ele>
        <time>2026-03-24T13:24:36.000Z</time>
      </trkpt>
      <trkpt lat="43.05034" lon="-0.45788">
        <ele>804.65</ele>
        <time>2026-03-24T13:24:39.000Z</time>
      </trkpt>
      <trkpt lat="43.05043" lon="-0.45766">
        <ele>797.8</ele>
        <time>2026-03-24T13:24:42.000Z</time>
      </trkpt>
      <trkpt lat="43.05048" lon="-0.45738">
        <ele>794.83</ele>
        <time>2026-03-24T13:24:46.000Z</time>
      </trkpt>
      <trkpt lat="43.05027" lon="-0.45743">
        <ele>786.05</ele>
        <time>2026-03-24T13:24:54.000Z</time>
      </trkpt>
      <trkpt lat="43.05008" lon="-0.45745">
        <ele>777.05</ele>
        <time>2026-03-24T13:25:30.000Z</time>
      </trkpt>
      <trkpt lat="43.05024" lon="-0.45732">
        <ele>770</ele>
        <time>2026-03-24T13:27:04.000Z</time>
      </trkpt>
      <trkpt lat="43.05036" lon="-0.45708">
        <ele>764.81</ele>
        <time>2026-03-24T13:27:09.000Z</time>
      </trkpt>
      <trkpt lat="43.05054" lon="-0.45689">
        <ele>762.36</ele>
        <time>2026-03-24T13:27:14.000Z</time>
      </trkpt>
      <trkpt lat="43.05069" lon="-0.45673">
        <ele>762.63</ele>
        <time>2026-03-24T13:27:18.000Z</time>
      </trkpt>
      <trkpt lat="43.05088" lon="-0.45655">
        <ele>758.65</ele>
        <time>2026-03-24T13:27:20.000Z</time>
      </trkpt>
      <trkpt lat="43.05113" lon="-0.45651">
        <ele>752.05</ele>
        <time>2026-03-24T13:27:24.000Z</time>
      </trkpt>
      <trkpt lat="43.05132" lon="-0.45635">
        <ele>745.58</ele>
        <time>2026-03-24T13:27:27.000Z</time>
      </trkpt>
      <trkpt lat="43.05145" lon="-0.45611">
        <ele>744.62</ele>
        <time>2026-03-24T13:27:30.000Z</time>
      </trkpt>
      <trkpt lat="43.05158" lon="-0.4559">
        <ele>738.2</ele>
        <time>2026-03-24T13:27:34.000Z</time>
      </trkpt>
      <trkpt lat="43.05175" lon="-0.45576">
        <ele>736.51</ele>
        <time>2026-03-24T13:27:39.000Z</time>
      </trkpt>
      <trkpt lat="43.05196" lon="-0.45565">
        <ele>735.76</ele>
        <time>2026-03-24T13:27:43.000Z</time>
      </trkpt>
      <trkpt lat="43.05211" lon="-0.45551">
        <ele>734.98</ele>
        <time>2026-03-24T13:27:47.000Z</time>
      </trkpt>
      <trkpt lat="43.05231" lon="-0.45535">
        <ele>731.23</ele>
        <time>2026-03-24T13:27:52.000Z</time>
      </trkpt>
      <trkpt lat="43.05251" lon="-0.45532">
        <ele>723.8</ele>
        <time>2026-03-24T13:27:56.000Z</time>
      </trkpt>
      <trkpt lat="43.05269" lon="-0.45529">
        <ele>722.76</ele>
        <time>2026-03-24T13:28:00.000Z</time>
      </trkpt>
      <trkpt lat="43.05286" lon="-0.45523">
        <ele>721.5</ele>
        <time>2026-03-24T13:28:04.000Z</time>
      </trkpt>
      <trkpt lat="43.05304" lon="-0.4551">
        <ele>721.56</ele>
        <time>2026-03-24T13:28:08.000Z</time>
      </trkpt>
      <trkpt lat="43.05324" lon="-0.45492">
        <ele>720.8</ele>
        <time>2026-03-24T13:28:11.000Z</time>
      </trkpt>
      <trkpt lat="43.05348" lon="-0.45477">
        <ele>719.37</ele>
        <time>2026-03-24T13:28:14.000Z</time>
      </trkpt>
      <trkpt lat="43.05368" lon="-0.45459">
        <ele>720.54</ele>
        <time>2026-03-24T13:28:17.000Z</time>
      </trkpt>
      <trkpt lat="43.05385" lon="-0.45433">
        <ele>719.63</ele>
        <time>2026-03-24T13:28:20.000Z</time>
      </trkpt>
      <trkpt lat="43.054" lon="-0.4542">
        <ele>718.1</ele>
        <time>2026-03-24T13:28:22.000Z</time>
      </trkpt>
      <trkpt lat="43.05416" lon="-0.45405">
        <ele>716.45</ele>
        <time>2026-03-24T13:28:24.000Z</time>
      </trkpt>
      <trkpt lat="43.05432" lon="-0.4539">
        <ele>716.66</ele>
        <time>2026-03-24T13:28:27.000Z</time>
      </trkpt>
      <trkpt lat="43.05448" lon="-0.45375">
        <ele>715.34</ele>
        <time>2026-03-24T13:33:32.000Z</time>
      </trkpt>
      <trkpt lat="43.05468" lon="-0.45366">
        <ele>717.13</ele>
        <time>2026-03-24T13:33:37.000Z</time>
      </trkpt>
      <trkpt lat="43.05486" lon="-0.45351">
        <ele>716.65</ele>
        <time>2026-03-24T13:33:42.000Z</time>
      </trkpt>
      <trkpt lat="43.05505" lon="-0.45335">
        <ele>715.25</ele>
        <time>2026-03-24T13:33:46.000Z</time>
      </trkpt>
      <trkpt lat="43.05522" lon="-0.45319">
        <ele>714.42</ele>
        <time>2026-03-24T13:33:49.000Z</time>
      </trkpt>
      <trkpt lat="43.05537" lon="-0.45302">
        <ele>715.56</ele>
        <time>2026-03-24T13:33:52.000Z</time>
      </trkpt>
      <trkpt lat="43.05553" lon="-0.45279">
        <ele>713.9</ele>
        <time>2026-03-24T13:33:56.000Z</time>
      </trkpt>
      <trkpt lat="43.0556" lon="-0.45253">
        <ele>712.46</ele>
        <time>2026-03-24T13:34:00.000Z</time>
      </trkpt>
      <trkpt lat="43.05564" lon="-0.45229">
        <ele>713.24</ele>
        <time>2026-03-24T13:34:05.000Z</time>
      </trkpt>
      <trkpt lat="43.05568" lon="-0.45203">
        <ele>714.07</ele>
        <time>2026-03-24T13:34:12.000Z</time>
      </trkpt>
      <trkpt lat="43.05577" lon="-0.4518">
        <ele>715.08</ele>
        <time>2026-03-24T13:34:19.000Z</time>
      </trkpt>
      <trkpt lat="43.05594" lon="-0.45168">
        <ele>712.5</ele>
        <time>2026-03-24T13:34:25.000Z</time>
      </trkpt>
      <trkpt lat="43.05616" lon="-0.45157">
        <ele>708.99</ele>
        <time>2026-03-24T13:34:29.000Z</time>
      </trkpt>
      <trkpt lat="43.05633" lon="-0.45148">
        <ele>707.17</ele>
        <time>2026-03-24T13:34:32.000Z</time>
      </trkpt>
      <trkpt lat="43.05656" lon="-0.45137">
        <ele>704.72</ele>
        <time>2026-03-24T13:34:35.000Z</time>
      </trkpt>
      <trkpt lat="43.05672" lon="-0.45121">
        <ele>703.71</ele>
        <time>2026-03-24T13:34:40.000Z</time>
      </trkpt>
      <trkpt lat="43.05672" lon="-0.45095">
        <ele>697.62</ele>
        <time>2026-03-24T13:34:44.000Z</time>
      </trkpt>
      <trkpt lat="43.05666" lon="-0.45068">
        <ele>696.81</ele>
        <time>2026-03-24T13:34:50.000Z</time>
      </trkpt>
      <trkpt lat="43.05657" lon="-0.45047">
        <ele>694.36</ele>
        <time>2026-03-24T13:34:57.000Z</time>
      </trkpt>
      <trkpt lat="43.05656" lon="-0.4502">
        <ele>694.11</ele>
        <time>2026-03-24T13:35:26.000Z</time>
      </trkpt>
      <trkpt lat="43.05653" lon="-0.44995">
        <ele>694.03</ele>
        <time>2026-03-24T13:35:31.000Z</time>
      </trkpt>
      <trkpt lat="43.05655" lon="-0.44968">
        <ele>690.55</ele>
        <time>2026-03-24T13:35:35.000Z</time>
      </trkpt>
      <trkpt lat="43.0565" lon="-0.44939">
        <ele>684.8</ele>
        <time>2026-03-24T13:35:41.000Z</time>
      </trkpt>
      <trkpt lat="43.05647" lon="-0.44912">
        <ele>684.6</ele>
        <time>2026-03-24T13:35:47.000Z</time>
      </trkpt>
      <trkpt lat="43.05639" lon="-0.44888">
        <ele>681.42</ele>
        <time>2026-03-24T13:35:54.000Z</time>
      </trkpt>
      <trkpt lat="43.05643" lon="-0.44858">
        <ele>674.14</ele>
        <time>2026-03-24T13:36:02.000Z</time>
      </trkpt>
      <trkpt lat="43.05649" lon="-0.44835">
        <ele>665.8</ele>
        <time>2026-03-24T13:36:06.000Z</time>
      </trkpt>
      <trkpt lat="43.05652" lon="-0.44807">
        <ele>658.51</ele>
        <time>2026-03-24T13:36:10.000Z</time>
      </trkpt>
      <trkpt lat="43.05648" lon="-0.44777">
        <ele>651.64</ele>
        <time>2026-03-24T13:36:14.000Z</time>
      </trkpt>
      <trkpt lat="43.05642" lon="-0.44746">
        <ele>647.61</ele>
        <time>2026-03-24T13:36:18.000Z</time>
      </trkpt>
      <trkpt lat="43.05641" lon="-0.44719">
        <ele>643.21</ele>
        <time>2026-03-24T13:36:22.000Z</time>
      </trkpt>
      <trkpt lat="43.05638" lon="-0.44695">
        <ele>632.74</ele>
        <time>2026-03-24T13:38:16.000Z</time>
      </trkpt>
      <trkpt lat="43.05639" lon="-0.44663">
        <ele>630.31</ele>
        <time>2026-03-24T13:38:20.000Z</time>
      </trkpt>
      <trkpt lat="43.05635" lon="-0.44631">
        <ele>627.92</ele>
        <time>2026-03-24T13:38:23.000Z</time>
      </trkpt>
      <trkpt lat="43.05635" lon="-0.44604">
        <ele>624.88</ele>
        <time>2026-03-24T13:38:26.000Z</time>
      </trkpt>
      <trkpt lat="43.05625" lon="-0.44582">
        <ele>621.53</ele>
        <time>2026-03-24T13:38:30.000Z</time>
      </trkpt>
      <trkpt lat="43.05615" lon="-0.4456">
        <ele>619.9</ele>
        <time>2026-03-24T13:38:34.000Z</time>
      </trkpt>
      <trkpt lat="43.056" lon="-0.44542">
        <ele>617.03</ele>
        <time>2026-03-24T13:38:38.000Z</time>
      </trkpt>
      <trkpt lat="43.05587" lon="-0.44524">
        <ele>613.64</ele>
        <time>2026-03-24T13:38:42.000Z</time>
      </trkpt>
      <trkpt lat="43.05576" lon="-0.44504">
        <ele>608.77</ele>
        <time>2026-03-24T13:38:45.000Z</time>
      </trkpt>
      <trkpt lat="43.05571" lon="-0.44478">
        <ele>605.4</ele>
        <time>2026-03-24T13:38:49.000Z</time>
      </trkpt>
      <trkpt lat="43.05572" lon="-0.44445">
        <ele>602.98</ele>
        <time>2026-03-24T13:38:53.000Z</time>
      </trkpt>
      <trkpt lat="43.05578" lon="-0.44421">
        <ele>598.09</ele>
        <time>2026-03-24T13:38:56.000Z</time>
      </trkpt>
      <trkpt lat="43.05588" lon="-0.44392">
        <ele>592.02</ele>
        <time>2026-03-24T13:39:00.000Z</time>
      </trkpt>
      <trkpt lat="43.05604" lon="-0.44378">
        <ele>586.71</ele>
        <time>2026-03-24T13:39:05.000Z</time>
      </trkpt>
      <trkpt lat="43.05621" lon="-0.44367">
        <ele>577.86</ele>
        <time>2026-03-24T13:39:09.000Z</time>
      </trkpt>
      <trkpt lat="43.05639" lon="-0.44356">
        <ele>574.23</ele>
        <time>2026-03-24T13:39:14.000Z</time>
      </trkpt>
      <trkpt lat="43.05649" lon="-0.44333">
        <ele>567.2</ele>
        <time>2026-03-24T13:39:19.000Z</time>
      </trkpt>
      <trkpt lat="43.05653" lon="-0.44308">
        <ele>565.54</ele>
        <time>2026-03-24T13:39:24.000Z</time>
      </trkpt>
      <trkpt lat="43.05659" lon="-0.44281">
        <ele>559.91</ele>
        <time>2026-03-24T13:39:30.000Z</time>
      </trkpt>
      <trkpt lat="43.05668" lon="-0.44258">
        <ele>550.12</ele>
        <time>2026-03-24T13:39:37.000Z</time>
      </trkpt>
      <trkpt lat="43.05675" lon="-0.44234">
        <ele>547.6</ele>
        <time>2026-03-24T13:39:45.000Z</time>
      </trkpt>
      <trkpt lat="43.05682" lon="-0.44212">
        <ele>543.9</ele>
        <time>2026-03-24T13:39:52.000Z</time>
      </trkpt>
      <trkpt lat="43.05687" lon="-0.44183">
        <ele>535.53</ele>
        <time>2026-03-24T13:40:00.000Z</time>
      </trkpt>
      <trkpt lat="43.05694" lon="-0.44159">
        <ele>530.21</ele>
        <time>2026-03-24T13:40:06.000Z</time>
      </trkpt>
      <trkpt lat="43.05704" lon="-0.44132">
        <ele>526.01</ele>
        <time>2026-03-24T13:40:12.000Z</time>
      </trkpt>
      <trkpt lat="43.05713" lon="-0.44105">
        <ele>517.85</ele>
        <time>2026-03-24T13:40:17.000Z</time>
      </trkpt>
      <trkpt lat="43.05718" lon="-0.44079">
        <ele>516.47</ele>
        <time>2026-03-24T13:40:22.000Z</time>
      </trkpt>
      <trkpt lat="43.05713" lon="-0.44052">
        <ele>515.49</ele>
        <time>2026-03-24T13:40:27.000Z</time>
      </trkpt>
      <trkpt lat="43.05713" lon="-0.44025">
        <ele>513.03</ele>
        <time>2026-03-24T13:40:31.000Z</time>
      </trkpt>
      <trkpt lat="43.05709" lon="-0.43999">
        <ele>510.53</ele>
        <time>2026-03-24T13:40:35.000Z</time>
      </trkpt>
      <trkpt lat="43.05696" lon="-0.43976">
        <ele>509.03</ele>
        <time>2026-03-24T13:40:40.000Z</time>
      </trkpt>
      <trkpt lat="43.05683" lon="-0.43955">
        <ele>507.13</ele>
        <time>2026-03-24T13:40:43.000Z</time>
      </trkpt>
      <trkpt lat="43.05675" lon="-0.43928">
        <ele>502.54</ele>
        <time>2026-03-24T13:40:46.000Z</time>
      </trkpt>
      <trkpt lat="43.05669" lon="-0.439">
        <ele>498.99</ele>
        <time>2026-03-24T13:40:49.000Z</time>
      </trkpt>
      <trkpt lat="43.05667" lon="-0.43875">
        <ele>495.29</ele>
        <time>2026-03-24T13:40:52.000Z</time>
      </trkpt>
      <trkpt lat="43.05665" lon="-0.4385">
        <ele>486.74</ele>
        <time>2026-03-24T13:42:20.000Z</time>
      </trkpt>
      <trkpt lat="43.0566" lon="-0.43824">
        <ele>482.51</ele>
        <time>2026-03-24T13:42:24.000Z</time>
      </trkpt>
      <trkpt lat="43.05654" lon="-0.43792">
        <ele>481.48</ele>
        <time>2026-03-24T13:42:28.000Z</time>
      </trkpt>
      <trkpt lat="43.05651" lon="-0.43762">
        <ele>479.79</ele>
        <time>2026-03-24T13:42:31.000Z</time>
      </trkpt>
      <trkpt lat="43.05643" lon="-0.43729">
        <ele>480.73</ele>
        <time>2026-03-24T13:42:34.000Z</time>
      </trkpt>
      <trkpt lat="43.05631" lon="-0.43699">
        <ele>479.95</ele>
        <time>2026-03-24T13:42:37.000Z</time>
      </trkpt>
      <trkpt lat="43.05617" lon="-0.43676">
        <ele>478.33</ele>
        <time>2026-03-24T13:42:40.000Z</time>
      </trkpt>
      <trkpt lat="43.05602" lon="-0.43662">
        <ele>474.28</ele>
        <time>2026-03-24T13:42:43.000Z</time>
      </trkpt>
      <trkpt lat="43.0559" lon="-0.43637">
        <ele>473.6</ele>
        <time>2026-03-24T13:42:47.000Z</time>
      </trkpt>
      <trkpt lat="43.05588" lon="-0.43612">
        <ele>472.84</ele>
        <time>2026-03-24T13:42:50.000Z</time>
      </trkpt>
      <trkpt lat="43.0558" lon="-0.43589">
        <ele>473.54</ele>
        <time>2026-03-24T13:42:53.000Z</time>
      </trkpt>
      <trkpt lat="43.05583" lon="-0.43564">
        <ele>470.77</ele>
        <time>2026-03-24T13:42:56.000Z</time>
      </trkpt>
      <trkpt lat="43.05585" lon="-0.43538">
        <ele>469.82</ele>
        <time>2026-03-24T13:42:59.000Z</time>
      </trkpt>
      <trkpt lat="43.05584" lon="-0.43512">
        <ele>470.96</ele>
        <time>2026-03-24T13:43:02.000Z</time>
      </trkpt>
      <trkpt lat="43.05576" lon="-0.43485">
        <ele>465.13</ele>
        <time>2026-03-24T13:43:05.000Z</time>
      </trkpt>
      <trkpt lat="43.05562" lon="-0.43467">
        <ele>459.25</ele>
        <time>2026-03-24T13:43:08.000Z</time>
      </trkpt>
      <trkpt lat="43.05558" lon="-0.43438">
        <ele>458.12</ele>
        <time>2026-03-24T13:43:11.000Z</time>
      </trkpt>
      <trkpt lat="43.05559" lon="-0.43408">
        <ele>456.82</ele>
        <time>2026-03-24T13:43:14.000Z</time>
      </trkpt>
      <trkpt lat="43.05552" lon="-0.43381">
        <ele>457.92</ele>
        <time>2026-03-24T13:43:18.000Z</time>
      </trkpt>
      <trkpt lat="43.05552" lon="-0.43352">
        <ele>458.19</ele>
        <time>2026-03-24T13:43:22.000Z</time>
      </trkpt>
      <trkpt lat="43.05551" lon="-0.43326">
        <ele>457.78</ele>
        <time>2026-03-24T13:43:25.000Z</time>
      </trkpt>
      <trkpt lat="43.05549" lon="-0.43297">
        <ele>458.21</ele>
        <time>2026-03-24T13:43:29.000Z</time>
      </trkpt>
      <trkpt lat="43.05551" lon="-0.43266">
        <ele>457.89</ele>
        <time>2026-03-24T13:43:33.000Z</time>
      </trkpt>
      <trkpt lat="43.05548" lon="-0.43234">
        <ele>457.94</ele>
        <time>2026-03-24T13:43:37.000Z</time>
      </trkpt>
      <trkpt lat="43.05543" lon="-0.43209">
        <ele>456.85</ele>
        <time>2026-03-24T13:43:40.000Z</time>
      </trkpt>
      <trkpt lat="43.05542" lon="-0.43179">
        <ele>457.65</ele>
        <time>2026-03-24T13:43:44.000Z</time>
      </trkpt>
      <trkpt lat="43.05546" lon="-0.43154">
        <ele>452.48</ele>
        <time>2026-03-24T13:43:47.000Z</time>
      </trkpt>
      <trkpt lat="43.05531" lon="-0.43139">
        <ele>451.42</ele>
        <time>2026-03-24T13:43:55.000Z</time>
      </trkpt>
      <trkpt lat="43.05511" lon="-0.43142">
        <ele>448.22</ele>
        <time>2026-03-24T13:44:00.000Z</time>
      </trkpt>
      <trkpt lat="43.05496" lon="-0.43121">
        <ele>446.31</ele>
        <time>2026-03-24T13:44:05.000Z</time>
      </trkpt>
      <trkpt lat="43.0549" lon="-0.43091">
        <ele>446.61</ele>
        <time>2026-03-24T13:44:09.000Z</time>
      </trkpt>
      <trkpt lat="43.05483" lon="-0.43064">
        <ele>448.63</ele>
        <time>2026-03-24T13:44:13.000Z</time>
      </trkpt>
      <trkpt lat="43.05478" lon="-0.4304">
        <ele>450.52</ele>
        <time>2026-03-24T13:44:16.000Z</time>
      </trkpt>
      <trkpt lat="43.05471" lon="-0.43016">
        <ele>447.51</ele>
        <time>2026-03-24T13:44:19.000Z</time>
      </trkpt>
      <trkpt lat="43.0546" lon="-0.42986">
        <ele>444.17</ele>
        <time>2026-03-24T13:44:23.000Z</time>
      </trkpt>
      <trkpt lat="43.05452" lon="-0.42964">
        <ele>444.46</ele>
        <time>2026-03-24T13:44:26.000Z</time>
      </trkpt>
      <trkpt lat="43.0545" lon="-0.42931">
        <ele>446.96</ele>
        <time>2026-03-24T13:44:30.000Z</time>
      </trkpt>
      <trkpt lat="43.05446" lon="-0.42906">
        <ele>446.04</ele>
        <time>2026-03-24T13:44:34.000Z</time>
      </trkpt>
      <trkpt lat="43.05438" lon="-0.42881">
        <ele>446.11</ele>
        <time>2026-03-24T13:44:38.000Z</time>
      </trkpt>
      <trkpt lat="43.05433" lon="-0.42852">
        <ele>444.63</ele>
        <time>2026-03-24T13:44:42.000Z</time>
      </trkpt>
      <trkpt lat="43.05429" lon="-0.42821">
        <ele>439.64</ele>
        <time>2026-03-24T13:44:47.000Z</time>
      </trkpt>
      <trkpt lat="43.05424" lon="-0.42796">
        <ele>440.28</ele>
        <time>2026-03-24T13:44:51.000Z</time>
      </trkpt>
      <trkpt lat="43.05424" lon="-0.42765">
        <ele>439.61</ele>
        <time>2026-03-24T13:44:56.000Z</time>
      </trkpt>
      <trkpt lat="43.05422" lon="-0.42737">
        <ele>440.52</ele>
        <time>2026-03-24T13:45:00.000Z</time>
      </trkpt>
      <trkpt lat="43.0542" lon="-0.4271">
        <ele>440.57</ele>
        <time>2026-03-24T13:45:04.000Z</time>
      </trkpt>
      <trkpt lat="43.05406" lon="-0.42692">
        <ele>441.9</ele>
        <time>2026-03-24T13:45:10.000Z</time>
      </trkpt>
      <trkpt lat="43.05392" lon="-0.42672">
        <ele>440.42</ele>
        <time>2026-03-24T13:45:14.000Z</time>
      </trkpt>
      <trkpt lat="43.05401" lon="-0.42648">
        <ele>443.1</ele>
        <time>2026-03-24T13:45:20.000Z</time>
      </trkpt>
      <trkpt lat="43.05421" lon="-0.42641">
        <ele>440.6</ele>
        <time>2026-03-24T13:45:26.000Z</time>
      </trkpt>
      <trkpt lat="43.05439" lon="-0.42639">
        <ele>439.24</ele>
        <time>2026-03-24T13:45:31.000Z</time>
      </trkpt>
      <trkpt lat="43.05461" lon="-0.42643">
        <ele>438.62</ele>
        <time>2026-03-24T13:45:36.000Z</time>
      </trkpt>
      <trkpt lat="43.05479" lon="-0.42642">
        <ele>438.23</ele>
        <time>2026-03-24T13:45:40.000Z</time>
      </trkpt>
      <trkpt lat="43.055" lon="-0.42643">
        <ele>438.68</ele>
        <time>2026-03-24T13:45:45.000Z</time>
      </trkpt>
      <trkpt lat="43.0552" lon="-0.42636">
        <ele>444.48</ele>
        <time>2026-03-24T13:45:52.000Z</time>
      </trkpt>
      <trkpt lat="43.05537" lon="-0.42617">
        <ele>444.3</ele>
        <time>2026-03-24T13:45:57.000Z</time>
      </trkpt>
      <trkpt lat="43.05547" lon="-0.42592">
        <ele>438.91</ele>
        <time>2026-03-24T13:46:01.000Z</time>
      </trkpt>
      <trkpt lat="43.05552" lon="-0.42568">
        <ele>438.53</ele>
        <time>2026-03-24T13:46:05.000Z</time>
      </trkpt>
      <trkpt lat="43.05559" lon="-0.42539">
        <ele>439.83</ele>
        <time>2026-03-24T13:46:09.000Z</time>
      </trkpt>
      <trkpt lat="43.05567" lon="-0.42517">
        <ele>440.48</ele>
        <time>2026-03-24T13:46:12.000Z</time>
      </trkpt>
      <trkpt lat="43.05574" lon="-0.42492">
        <ele>440.73</ele>
        <time>2026-03-24T13:46:15.000Z</time>
      </trkpt>
      <trkpt lat="43.0558" lon="-0.42469">
        <ele>437.05</ele>
        <time>2026-03-24T13:46:19.000Z</time>
      </trkpt>
      <trkpt lat="43.05588" lon="-0.42442">
        <ele>432.92</ele>
        <time>2026-03-24T13:46:24.000Z</time>
      </trkpt>
      <trkpt lat="43.05593" lon="-0.42418">
        <ele>434.96</ele>
        <time>2026-03-24T13:46:28.000Z</time>
      </trkpt>
      <trkpt lat="43.05604" lon="-0.4239">
        <ele>434.22</ele>
        <time>2026-03-24T13:46:33.000Z</time>
      </trkpt>
      <trkpt lat="43.05609" lon="-0.42364">
        <ele>435.83</ele>
        <time>2026-03-24T13:46:37.000Z</time>
      </trkpt>
      <trkpt lat="43.0562" lon="-0.42337">
        <ele>435.14</ele>
        <time>2026-03-24T13:46:41.000Z</time>
      </trkpt>
      <trkpt lat="43.05628" lon="-0.42315">
        <ele>435.04</ele>
        <time>2026-03-24T13:46:45.000Z</time>
      </trkpt>
      <trkpt lat="43.0564" lon="-0.4229">
        <ele>437.4</ele>
        <time>2026-03-24T13:46:50.000Z</time>
      </trkpt>
      <trkpt lat="43.05657" lon="-0.42277">
        <ele>435.76</ele>
        <time>2026-03-24T13:46:54.000Z</time>
      </trkpt>
      <trkpt lat="43.05678" lon="-0.42264">
        <ele>433.01</ele>
        <time>2026-03-24T13:46:58.000Z</time>
      </trkpt>
      <trkpt lat="43.05694" lon="-0.4225">
        <ele>434.27</ele>
        <time>2026-03-24T13:47:02.000Z</time>
      </trkpt>
      <trkpt lat="43.0571" lon="-0.42238">
        <ele>433.98</ele>
        <time>2026-03-24T13:47:05.000Z</time>
      </trkpt>
      <trkpt lat="43.05729" lon="-0.42227">
        <ele>434.28</ele>
        <time>2026-03-24T13:47:09.000Z</time>
      </trkpt>
      <trkpt lat="43.05748" lon="-0.42217">
        <ele>429.16</ele>
        <time>2026-03-24T13:47:13.000Z</time>
      </trkpt>
      <trkpt lat="43.05766" lon="-0.42205">
        <ele>429.05</ele>
        <time>2026-03-24T13:47:17.000Z</time>
      </trkpt>
      <trkpt lat="43.05787" lon="-0.42201">
        <ele>423.98</ele>
        <time>2026-03-24T13:47:22.000Z</time>
      </trkpt>
      <trkpt lat="43.05806" lon="-0.42197">
        <ele>424.16</ele>
        <time>2026-03-24T13:47:26.000Z</time>
      </trkpt>
      <trkpt lat="43.05828" lon="-0.42198">
        <ele>421.19</ele>
        <time>2026-03-24T13:47:30.000Z</time>
      </trkpt>
      <trkpt lat="43.05849" lon="-0.42198">
        <ele>424.13</ele>
        <time>2026-03-24T13:47:35.000Z</time>
      </trkpt>
      <trkpt lat="43.05849" lon="-0.42207">
        <ele>423.1</ele>
        <time>2026-03-24T13:47:51.000Z</time>
      </trkpt>
      <trkpt lat="43.05843" lon="-0.42233">
        <ele>419.83</ele>
        <time>2026-03-24T13:47:58.000Z</time>
      </trkpt>
      <trkpt lat="43.05861" lon="-0.42237">
        <ele>420.05</ele>
        <time>2026-03-24T13:48:02.000Z</time>
      </trkpt>
      <trkpt lat="43.05882" lon="-0.42237">
        <ele>421.37</ele>
        <time>2026-03-24T13:48:06.000Z</time>
      </trkpt>
      <trkpt lat="43.0589" lon="-0.42259">
        <ele>423.43</ele>
        <time>2026-03-24T13:48:12.000Z</time>
      </trkpt>
      <trkpt lat="43.05901" lon="-0.42282">
        <ele>422.04</ele>
        <time>2026-03-24T13:48:19.000Z</time>
      </trkpt>
      <trkpt lat="43.0592" lon="-0.42285">
        <ele>424.32</ele>
        <time>2026-03-24T13:48:24.000Z</time>
      </trkpt>
      <trkpt lat="43.05942" lon="-0.42287">
        <ele>420.86</ele>
        <time>2026-03-24T13:48:29.000Z</time>
      </trkpt>
      <trkpt lat="43.05962" lon="-0.42294">
        <ele>424.99</ele>
        <time>2026-03-24T13:48:35.000Z</time>
      </trkpt>
      <trkpt lat="43.0598" lon="-0.42296">
        <ele>428.41</ele>
        <time>2026-03-24T13:48:39.000Z</time>
      </trkpt>
      <trkpt lat="43.05999" lon="-0.42298">
        <ele>428.43</ele>
        <time>2026-03-24T13:48:42.000Z</time>
      </trkpt>
      <trkpt lat="43.06018" lon="-0.423">
        <ele>427.93</ele>
        <time>2026-03-24T13:48:47.000Z</time>
      </trkpt>
      <trkpt lat="43.06038" lon="-0.42293">
        <ele>428.51</ele>
        <time>2026-03-24T13:48:53.000Z</time>
      </trkpt>
      <trkpt lat="43.06055" lon="-0.42275">
        <ele>429.17</ele>
        <time>2026-03-24T13:48:58.000Z</time>
      </trkpt>
      <trkpt lat="43.06072" lon="-0.42259">
        <ele>429.83</ele>
        <time>2026-03-24T13:49:03.000Z</time>
      </trkpt>
      <trkpt lat="43.06093" lon="-0.42252">
        <ele>425.39</ele>
        <time>2026-03-24T13:49:08.000Z</time>
      </trkpt>
      <trkpt lat="43.0611" lon="-0.42239">
        <ele>419.39</ele>
        <time>2026-03-24T13:49:12.000Z</time>
      </trkpt>
      <trkpt lat="43.0613" lon="-0.42242">
        <ele>418.07</ele>
        <time>2026-03-24T13:49:16.000Z</time>
      </trkpt>
      <trkpt lat="43.06149" lon="-0.42256">
        <ele>415.01</ele>
        <time>2026-03-24T13:49:20.000Z</time>
      </trkpt>
      <trkpt lat="43.06166" lon="-0.42264">
        <ele>413.41</ele>
        <time>2026-03-24T13:49:24.000Z</time>
      </trkpt>
      <trkpt lat="43.06186" lon="-0.42259">
        <ele>412.51</ele>
        <time>2026-03-24T13:49:30.000Z</time>
      </trkpt>
      <trkpt lat="43.06208" lon="-0.42257">
        <ele>413.46</ele>
        <time>2026-03-24T13:49:35.000Z</time>
      </trkpt>
      <trkpt lat="43.06228" lon="-0.42266">
        <ele>414.22</ele>
        <time>2026-03-24T13:49:39.000Z</time>
      </trkpt>
      <trkpt lat="43.06247" lon="-0.42272">
        <ele>412.87</ele>
        <time>2026-03-24T13:49:45.000Z</time>
      </trkpt>
      <trkpt lat="43.06264" lon="-0.42259">
        <ele>411.96</ele>
        <time>2026-03-24T13:50:02.000Z</time>
      </trkpt>
      <trkpt lat="43.06281" lon="-0.42243">
        <ele>422.91</ele>
        <time>2026-03-24T13:51:33.000Z</time>
      </trkpt>
      <trkpt lat="43.06298" lon="-0.42229">
        <ele>426.31</ele>
        <time>2026-03-24T13:51:39.000Z</time>
      </trkpt>
      <trkpt lat="43.06318" lon="-0.4223">
        <ele>431.63</ele>
        <time>2026-03-24T13:51:44.000Z</time>
      </trkpt>
      <trkpt lat="43.06334" lon="-0.42214">
        <ele>428.61</ele>
        <time>2026-03-24T13:51:49.000Z</time>
      </trkpt>
      <trkpt lat="43.06353" lon="-0.42212">
        <ele>431.58</ele>
        <time>2026-03-24T13:51:53.000Z</time>
      </trkpt>
      <trkpt lat="43.06371" lon="-0.42218">
        <ele>427</ele>
        <time>2026-03-24T13:51:57.000Z</time>
      </trkpt>
      <trkpt lat="43.06389" lon="-0.42227">
        <ele>428.37</ele>
        <time>2026-03-24T13:52:02.000Z</time>
      </trkpt>
      <trkpt lat="43.06406" lon="-0.42238">
        <ele>428.87</ele>
        <time>2026-03-24T13:52:08.000Z</time>
      </trkpt>
      <trkpt lat="43.06425" lon="-0.42234">
        <ele>428.19</ele>
        <time>2026-03-24T13:52:11.000Z</time>
      </trkpt>
      <trkpt lat="43.06442" lon="-0.42242">
        <ele>425.19</ele>
        <time>2026-03-24T13:52:16.000Z</time>
      </trkpt>
      <trkpt lat="43.06462" lon="-0.42251">
        <ele>428.44</ele>
        <time>2026-03-24T13:52:21.000Z</time>
      </trkpt>
      <trkpt lat="43.0648" lon="-0.42257">
        <ele>423.8</ele>
        <time>2026-03-24T13:52:26.000Z</time>
      </trkpt>
      <trkpt lat="43.065" lon="-0.42257">
        <ele>427.34</ele>
        <time>2026-03-24T13:52:33.000Z</time>
      </trkpt>
      <trkpt lat="43.06519" lon="-0.42244">
        <ele>425.86</ele>
        <time>2026-03-24T13:52:46.000Z</time>
      </trkpt>
      <trkpt lat="43.06539" lon="-0.42244">
        <ele>422.28</ele>
        <time>2026-03-24T13:52:51.000Z</time>
      </trkpt>
      <trkpt lat="43.06559" lon="-0.42239">
        <ele>424.48</ele>
        <time>2026-03-24T13:52:56.000Z</time>
      </trkpt>
      <trkpt lat="43.06577" lon="-0.42249">
        <ele>429.22</ele>
        <time>2026-03-24T13:53:02.000Z</time>
      </trkpt>
      <trkpt lat="43.06576" lon="-0.42275">
        <ele>430.7</ele>
        <time>2026-03-24T13:53:08.000Z</time>
      </trkpt>
      <trkpt lat="43.06581" lon="-0.423">
        <ele>431.72</ele>
        <time>2026-03-24T13:53:13.000Z</time>
      </trkpt>
      <trkpt lat="43.06582" lon="-0.42325">
        <ele>431.7</ele>
        <time>2026-03-24T13:53:17.000Z</time>
      </trkpt>
      <trkpt lat="43.06572" lon="-0.42347">
        <ele>431.39</ele>
        <time>2026-03-24T13:53:22.000Z</time>
      </trkpt>
      <trkpt lat="43.06558" lon="-0.42364">
        <ele>435</ele>
        <time>2026-03-24T13:53:29.000Z</time>
      </trkpt>
      <trkpt lat="43.06547" lon="-0.42386">
        <ele>438.09</ele>
        <time>2026-03-24T13:53:39.000Z</time>
      </trkpt>
      <trkpt lat="43.0654" lon="-0.42412">
        <ele>435.9</ele>
        <time>2026-03-24T13:53:47.000Z</time>
      </trkpt>
      <trkpt lat="43.06519" lon="-0.42422">
        <ele>431.57</ele>
        <time>2026-03-24T13:53:51.000Z</time>
      </trkpt>
      <trkpt lat="43.06498" lon="-0.42426">
        <ele>425.67</ele>
        <time>2026-03-24T13:53:55.000Z</time>
      </trkpt>
      <trkpt lat="43.06478" lon="-0.42432">
        <ele>427.77</ele>
        <time>2026-03-24T13:53:59.000Z</time>
      </trkpt>
      <trkpt lat="43.06457" lon="-0.42434">
        <ele>427.2</ele>
        <time>2026-03-24T13:54:04.000Z</time>
      </trkpt>
      <trkpt lat="43.06438" lon="-0.42442">
        <ele>427.14</ele>
        <time>2026-03-24T13:54:08.000Z</time>
      </trkpt>
      <trkpt lat="43.06418" lon="-0.42445">
        <ele>427.52</ele>
        <time>2026-03-24T13:54:13.000Z</time>
      </trkpt>
      <trkpt lat="43.06411" lon="-0.42468">
        <ele>430.04</ele>
        <time>2026-03-24T13:54:19.000Z</time>
      </trkpt>
      <trkpt lat="43.0643" lon="-0.42475">
        <ele>435.87</ele>
        <time>2026-03-24T13:54:29.000Z</time>
      </trkpt>
      <trkpt lat="43.0645" lon="-0.42474">
        <ele>432.64</ele>
        <time>2026-03-24T13:54:40.000Z</time>
      </trkpt>
      <trkpt lat="43.06469" lon="-0.42471">
        <ele>434.84</ele>
        <time>2026-03-24T13:54:51.000Z</time>
      </trkpt>
      <trkpt lat="43.06488" lon="-0.42477">
        <ele>434.08</ele>
        <time>2026-03-24T13:55:02.000Z</time>
      </trkpt>
      <trkpt lat="43.06508" lon="-0.4247">
        <ele>436.01</ele>
        <time>2026-03-24T13:55:10.000Z</time>
      </trkpt>
      <trkpt lat="43.06527" lon="-0.42465">
        <ele>436.31</ele>
        <time>2026-03-24T13:55:16.000Z</time>
      </trkpt>
      <trkpt lat="43.06546" lon="-0.4246">
        <ele>438.1</ele>
        <time>2026-03-24T13:55:22.000Z</time>
      </trkpt>
      <trkpt lat="43.06567" lon="-0.42453">
        <ele>439.04</ele>
        <time>2026-03-24T13:55:28.000Z</time>
      </trkpt>
      <trkpt lat="43.06585" lon="-0.42448">
        <ele>439.87</ele>
        <time>2026-03-24T13:55:33.000Z</time>
      </trkpt>
      <trkpt lat="43.06604" lon="-0.42444">
        <ele>438.8</ele>
        <time>2026-03-24T13:55:38.000Z</time>
      </trkpt>
      <trkpt lat="43.06622" lon="-0.42439">
        <ele>439.84</ele>
        <time>2026-03-24T13:55:43.000Z</time>
      </trkpt>
      <trkpt lat="43.06643" lon="-0.42436">
        <ele>439.74</ele>
        <time>2026-03-24T13:55:48.000Z</time>
      </trkpt>
      <trkpt lat="43.06663" lon="-0.42431">
        <ele>440.02</ele>
        <time>2026-03-24T13:55:53.000Z</time>
      </trkpt>
      <trkpt lat="43.06682" lon="-0.42426">
        <ele>442.19</ele>
        <time>2026-03-24T13:55:58.000Z</time>
      </trkpt>
      <trkpt lat="43.06703" lon="-0.42423">
        <ele>442.3</ele>
        <time>2026-03-24T13:56:03.000Z</time>
      </trkpt>
      <trkpt lat="43.06721" lon="-0.42415">
        <ele>441.31</ele>
        <time>2026-03-24T13:56:07.000Z</time>
      </trkpt>
      <trkpt lat="43.06742" lon="-0.42412">
        <ele>440.68</ele>
        <time>2026-03-24T13:56:12.000Z</time>
      </trkpt>
      <trkpt lat="43.06764" lon="-0.42407">
        <ele>437.49</ele>
        <time>2026-03-24T13:56:17.000Z</time>
      </trkpt>
      <trkpt lat="43.06782" lon="-0.42403">
        <ele>435.74</ele>
        <time>2026-03-24T13:56:21.000Z</time>
      </trkpt>
      <trkpt lat="43.06802" lon="-0.424">
        <ele>437.01</ele>
        <time>2026-03-24T13:56:25.000Z</time>
      </trkpt>
      <trkpt lat="43.06823" lon="-0.42396">
        <ele>438.29</ele>
        <time>2026-03-24T13:56:29.000Z</time>
      </trkpt>
      <trkpt lat="43.06842" lon="-0.42391">
        <ele>436.57</ele>
        <time>2026-03-24T13:56:33.000Z</time>
      </trkpt>
      <trkpt lat="43.06862" lon="-0.42387">
        <ele>437.97</ele>
        <time>2026-03-24T13:56:37.000Z</time>
      </trkpt>
      <trkpt lat="43.06883" lon="-0.4238">
        <ele>437.29</ele>
        <time>2026-03-24T13:56:42.000Z</time>
      </trkpt>
      <trkpt lat="43.06902" lon="-0.42376">
        <ele>437.42</ele>
        <time>2026-03-24T13:56:46.000Z</time>
      </trkpt>
      <trkpt lat="43.06922" lon="-0.42376">
        <ele>435.64</ele>
        <time>2026-03-24T13:56:51.000Z</time>
      </trkpt>
      <trkpt lat="43.06944" lon="-0.4237">
        <ele>434.04</ele>
        <time>2026-03-24T13:56:56.000Z</time>
      </trkpt>
      <trkpt lat="43.06964" lon="-0.42365">
        <ele>431.72</ele>
        <time>2026-03-24T13:57:00.000Z</time>
      </trkpt>
      <trkpt lat="43.06982" lon="-0.42359">
        <ele>433.05</ele>
        <time>2026-03-24T13:57:04.000Z</time>
      </trkpt>
      <trkpt lat="43.07002" lon="-0.42351">
        <ele>432.71</ele>
        <time>2026-03-24T13:57:08.000Z</time>
      </trkpt>
      <trkpt lat="43.07023" lon="-0.42342">
        <ele>430.76</ele>
        <time>2026-03-24T13:57:13.000Z</time>
      </trkpt>
      <trkpt lat="43.0704" lon="-0.42331">
        <ele>432.24</ele>
        <time>2026-03-24T13:57:17.000Z</time>
      </trkpt>
      <trkpt lat="43.07056" lon="-0.42317">
        <ele>431.81</ele>
        <time>2026-03-24T13:57:21.000Z</time>
      </trkpt>
      <trkpt lat="43.07074" lon="-0.42303">
        <ele>430.99</ele>
        <time>2026-03-24T13:57:25.000Z</time>
      </trkpt>
      <trkpt lat="43.0709" lon="-0.42291">
        <ele>430.59</ele>
        <time>2026-03-24T13:57:29.000Z</time>
      </trkpt>
      <trkpt lat="43.0711" lon="-0.42277">
        <ele>433.9</ele>
        <time>2026-03-24T13:57:34.000Z</time>
      </trkpt>
      <trkpt lat="43.07124" lon="-0.4226">
        <ele>435.92</ele>
        <time>2026-03-24T13:57:38.000Z</time>
      </trkpt>
      <trkpt lat="43.07141" lon="-0.42248">
        <ele>433.81</ele>
        <time>2026-03-24T13:57:42.000Z</time>
      </trkpt>
      <trkpt lat="43.07159" lon="-0.42234">
        <ele>435.6</ele>
        <time>2026-03-24T13:57:46.000Z</time>
      </trkpt>
      <trkpt lat="43.07178" lon="-0.42216">
        <ele>435.78</ele>
        <time>2026-03-24T13:57:51.000Z</time>
      </trkpt>
      <trkpt lat="43.07197" lon="-0.422">
        <ele>435.65</ele>
        <time>2026-03-24T13:57:56.000Z</time>
      </trkpt>
      <trkpt lat="43.07213" lon="-0.42185">
        <ele>436.52</ele>
        <time>2026-03-24T13:58:01.000Z</time>
      </trkpt>
      <trkpt lat="43.07231" lon="-0.42172">
        <ele>437.1</ele>
        <time>2026-03-24T13:58:06.000Z</time>
      </trkpt>
      <trkpt lat="43.07247" lon="-0.42161">
        <ele>438.71</ele>
        <time>2026-03-24T13:58:10.000Z</time>
      </trkpt>
      <trkpt lat="43.07267" lon="-0.42147">
        <ele>436.91</ele>
        <time>2026-03-24T13:58:15.000Z</time>
      </trkpt>
      <trkpt lat="43.07288" lon="-0.42137">
        <ele>437.43</ele>
        <time>2026-03-24T13:58:20.000Z</time>
      </trkpt>
      <trkpt lat="43.07308" lon="-0.42132">
        <ele>439.21</ele>
        <time>2026-03-24T13:58:25.000Z</time>
      </trkpt>
      <trkpt lat="43.07327" lon="-0.42128">
        <ele>439.57</ele>
        <time>2026-03-24T13:58:30.000Z</time>
      </trkpt>
      <trkpt lat="43.07346" lon="-0.42124">
        <ele>439.38</ele>
        <time>2026-03-24T13:58:35.000Z</time>
      </trkpt>
      <trkpt lat="43.07364" lon="-0.42118">
        <ele>437.93</ele>
        <time>2026-03-24T13:58:40.000Z</time>
      </trkpt>
      <trkpt lat="43.07385" lon="-0.42121">
        <ele>433.74</ele>
        <time>2026-03-24T13:58:45.000Z</time>
      </trkpt>
      <trkpt lat="43.07407" lon="-0.42126">
        <ele>433.44</ele>
        <time>2026-03-24T13:58:50.000Z</time>
      </trkpt>
      <trkpt lat="43.07426" lon="-0.42129">
        <ele>434.44</ele>
        <time>2026-03-24T13:58:55.000Z</time>
      </trkpt>
      <trkpt lat="43.07445" lon="-0.42131">
        <ele>436.14</ele>
        <time>2026-03-24T13:58:59.000Z</time>
      </trkpt>
      <trkpt lat="43.07464" lon="-0.42135">
        <ele>433.66</ele>
        <time>2026-03-24T13:59:03.000Z</time>
      </trkpt>
      <trkpt lat="43.07483" lon="-0.42138">
        <ele>432.74</ele>
        <time>2026-03-24T13:59:07.000Z</time>
      </trkpt>
      <trkpt lat="43.07502" lon="-0.42145">
        <ele>431.69</ele>
        <time>2026-03-24T13:59:11.000Z</time>
      </trkpt>
      <trkpt lat="43.07523" lon="-0.42151">
        <ele>430.56</ele>
        <time>2026-03-24T13:59:15.000Z</time>
      </trkpt>
      <trkpt lat="43.07543" lon="-0.42154">
        <ele>426.99</ele>
        <time>2026-03-24T13:59:19.000Z</time>
      </trkpt>
      <trkpt lat="43.07565" lon="-0.42158">
        <ele>429.18</ele>
        <time>2026-03-24T13:59:24.000Z</time>
      </trkpt>
      <trkpt lat="43.07583" lon="-0.42162">
        <ele>429.41</ele>
        <time>2026-03-24T13:59:28.000Z</time>
      </trkpt>
      <trkpt lat="43.07602" lon="-0.42164">
        <ele>430.68</ele>
        <time>2026-03-24T13:59:32.000Z</time>
      </trkpt>
      <trkpt lat="43.07622" lon="-0.42167">
        <ele>428.89</ele>
        <time>2026-03-24T13:59:36.000Z</time>
      </trkpt>
      <trkpt lat="43.07645" lon="-0.42168">
        <ele>430.72</ele>
        <time>2026-03-24T13:59:41.000Z</time>
      </trkpt>
      <trkpt lat="43.07667" lon="-0.42167">
        <ele>431.46</ele>
        <time>2026-03-24T13:59:46.000Z</time>
      </trkpt>
      <trkpt lat="43.07687" lon="-0.42167">
        <ele>430.99</ele>
        <time>2026-03-24T13:59:50.000Z</time>
      </trkpt>
      <trkpt lat="43.07705" lon="-0.42164">
        <ele>429.24</ele>
        <time>2026-03-24T13:59:54.000Z</time>
      </trkpt>
      <trkpt lat="43.07729" lon="-0.42163">
        <ele>430.66</ele>
        <time>2026-03-24T13:59:59.000Z</time>
      </trkpt>
      <trkpt lat="43.07749" lon="-0.42163">
        <ele>430.85</ele>
        <time>2026-03-24T14:00:03.000Z</time>
      </trkpt>
      <trkpt lat="43.07772" lon="-0.42151">
        <ele>431.08</ele>
        <time>2026-03-24T14:00:07.000Z</time>
      </trkpt>
      <trkpt lat="43.07789" lon="-0.4216">
        <ele>429.44</ele>
        <time>2026-03-24T14:00:11.000Z</time>
      </trkpt>
      <trkpt lat="43.07809" lon="-0.4216">
        <ele>430.34</ele>
        <time>2026-03-24T14:00:16.000Z</time>
      </trkpt>
      <trkpt lat="43.07831" lon="-0.42156">
        <ele>432.67</ele>
        <time>2026-03-24T14:00:21.000Z</time>
      </trkpt>
      <trkpt lat="43.07852" lon="-0.42154">
        <ele>432.93</ele>
        <time>2026-03-24T14:00:26.000Z</time>
      </trkpt>
      <trkpt lat="43.07872" lon="-0.42145">
        <ele>432.74</ele>
        <time>2026-03-24T14:00:31.000Z</time>
      </trkpt>
      <trkpt lat="43.07893" lon="-0.42145">
        <ele>430.99</ele>
        <time>2026-03-24T14:00:35.000Z</time>
      </trkpt>
      <trkpt lat="43.07912" lon="-0.42147">
        <ele>428.76</ele>
        <time>2026-03-24T14:00:39.000Z</time>
      </trkpt>
      <trkpt lat="43.07934" lon="-0.42142">
        <ele>431.05</ele>
        <time>2026-03-24T14:00:44.000Z</time>
      </trkpt>
      <trkpt lat="43.07953" lon="-0.42144">
        <ele>431.13</ele>
        <time>2026-03-24T14:00:48.000Z</time>
      </trkpt>
      <trkpt lat="43.07974" lon="-0.42143">
        <ele>432.56</ele>
        <time>2026-03-24T14:00:54.000Z</time>
      </trkpt>
      <trkpt lat="43.07981" lon="-0.42115">
        <ele>426.76</ele>
        <time>2026-03-24T14:01:02.000Z</time>
      </trkpt>
      <trkpt lat="43.07972" lon="-0.42089">
        <ele>425.25</ele>
        <time>2026-03-24T14:01:07.000Z</time>
      </trkpt>
      <trkpt lat="43.07983" lon="-0.42066">
        <ele>426.31</ele>
        <time>2026-03-24T14:01:14.000Z</time>
      </trkpt>
      <trkpt lat="43.08006" lon="-0.42058">
        <ele>425.7</ele>
        <time>2026-03-24T14:01:20.000Z</time>
      </trkpt>
      <trkpt lat="43.08025" lon="-0.42049">
        <ele>422.95</ele>
        <time>2026-03-24T14:01:24.000Z</time>
      </trkpt>
      <trkpt lat="43.08049" lon="-0.42041">
        <ele>423.95</ele>
        <time>2026-03-24T14:01:29.000Z</time>
      </trkpt>
      <trkpt lat="43.0807" lon="-0.42036">
        <ele>419.77</ele>
        <time>2026-03-24T14:01:33.000Z</time>
      </trkpt>
      <trkpt lat="43.0809" lon="-0.42028">
        <ele>419.53</ele>
        <time>2026-03-24T14:01:37.000Z</time>
      </trkpt>
      <trkpt lat="43.08112" lon="-0.42023">
        <ele>417.88</ele>
        <time>2026-03-24T14:01:42.000Z</time>
      </trkpt>
      <trkpt lat="43.08132" lon="-0.42016">
        <ele>411</ele>
        <time>2026-03-24T14:01:46.000Z</time>
      </trkpt>
      <trkpt lat="43.08154" lon="-0.42008">
        <ele>411.22</ele>
        <time>2026-03-24T14:01:52.000Z</time>
      </trkpt>
      <trkpt lat="43.08175" lon="-0.42006">
        <ele>409.3</ele>
        <time>2026-03-24T14:01:55.000Z</time>
      </trkpt>
      <trkpt lat="43.08197" lon="-0.42009">
        <ele>410.01</ele>
        <time>2026-03-24T14:01:59.000Z</time>
      </trkpt>
      <trkpt lat="43.08219" lon="-0.42017">
        <ele>414.69</ele>
        <time>2026-03-24T14:02:03.000Z</time>
      </trkpt>
      <trkpt lat="43.08239" lon="-0.42026">
        <ele>408.68</ele>
        <time>2026-03-24T14:02:08.000Z</time>
      </trkpt>
      <trkpt lat="43.08259" lon="-0.42043">
        <ele>412.98</ele>
        <time>2026-03-24T14:02:13.000Z</time>
      </trkpt>
      <trkpt lat="43.08281" lon="-0.42053">
        <ele>415.55</ele>
        <time>2026-03-24T14:02:18.000Z</time>
      </trkpt>
      <trkpt lat="43.08298" lon="-0.42063">
        <ele>414.63</ele>
        <time>2026-03-24T14:02:22.000Z</time>
      </trkpt>
      <trkpt lat="43.08316" lon="-0.42079">
        <ele>408.54</ele>
        <time>2026-03-24T14:02:27.000Z</time>
      </trkpt>
      <trkpt lat="43.08336" lon="-0.42089">
        <ele>410.78</ele>
        <time>2026-03-24T14:02:31.000Z</time>
      </trkpt>
      <trkpt lat="43.08355" lon="-0.42104">
        <ele>415.64</ele>
        <time>2026-03-24T14:02:36.000Z</time>
      </trkpt>
      <trkpt lat="43.08374" lon="-0.42118">
        <ele>417.85</ele>
        <time>2026-03-24T14:02:40.000Z</time>
      </trkpt>
      <trkpt lat="43.0839" lon="-0.42135">
        <ele>422.06</ele>
        <time>2026-03-24T14:02:44.000Z</time>
      </trkpt>
      <trkpt lat="43.08409" lon="-0.42145">
        <ele>419.9</ele>
        <time>2026-03-24T14:02:49.000Z</time>
      </trkpt>
      <trkpt lat="43.08429" lon="-0.42153">
        <ele>421.03</ele>
        <time>2026-03-24T14:02:54.000Z</time>
      </trkpt>
      <trkpt lat="43.08447" lon="-0.42156">
        <ele>419.78</ele>
        <time>2026-03-24T14:02:58.000Z</time>
      </trkpt>
      <trkpt lat="43.08466" lon="-0.42161">
        <ele>418.6</ele>
        <time>2026-03-24T14:03:02.000Z</time>
      </trkpt>
      <trkpt lat="43.08485" lon="-0.42167">
        <ele>420.74</ele>
        <time>2026-03-24T14:03:07.000Z</time>
      </trkpt>
      <trkpt lat="43.08504" lon="-0.42172">
        <ele>419.19</ele>
        <time>2026-03-24T14:03:11.000Z</time>
      </trkpt>
      <trkpt lat="43.08522" lon="-0.42185">
        <ele>419.72</ele>
        <time>2026-03-24T14:03:16.000Z</time>
      </trkpt>
      <trkpt lat="43.08533" lon="-0.42208">
        <ele>419.48</ele>
        <time>2026-03-24T14:03:21.000Z</time>
      </trkpt>
      <trkpt lat="43.08519" lon="-0.42224">
        <ele>420.25</ele>
        <time>2026-03-24T14:03:25.000Z</time>
      </trkpt>
      <trkpt lat="43.0852" lon="-0.42253">
        <ele>414.64</ele>
        <time>2026-03-24T14:03:33.000Z</time>
      </trkpt>
      <trkpt lat="43.08514" lon="-0.42276">
        <ele>416.06</ele>
        <time>2026-03-24T14:03:38.000Z</time>
      </trkpt>
      <trkpt lat="43.08508" lon="-0.42301">
        <ele>418.15</ele>
        <time>2026-03-24T14:03:44.000Z</time>
      </trkpt>
      <trkpt lat="43.08512" lon="-0.42328">
        <ele>421.72</ele>
        <time>2026-03-24T14:03:54.000Z</time>
      </trkpt>
      <trkpt lat="43.08522" lon="-0.42349">
        <ele>423.73</ele>
        <time>2026-03-24T14:04:00.000Z</time>
      </trkpt>
      <trkpt lat="43.0854" lon="-0.42366">
        <ele>422.96</ele>
        <time>2026-03-24T14:04:05.000Z</time>
      </trkpt>
      <trkpt lat="43.08557" lon="-0.4238">
        <ele>423.74</ele>
        <time>2026-03-24T14:04:09.000Z</time>
      </trkpt>
      <trkpt lat="43.08575" lon="-0.42393">
        <ele>422.46</ele>
        <time>2026-03-24T14:04:13.000Z</time>
      </trkpt>
      <trkpt lat="43.08592" lon="-0.42405">
        <ele>423.18</ele>
        <time>2026-03-24T14:04:17.000Z</time>
      </trkpt>
      <trkpt lat="43.08609" lon="-0.42415">
        <ele>422.53</ele>
        <time>2026-03-24T14:04:21.000Z</time>
      </trkpt>
      <trkpt lat="43.08627" lon="-0.42426">
        <ele>420.09</ele>
        <time>2026-03-24T14:04:26.000Z</time>
      </trkpt>
      <trkpt lat="43.08645" lon="-0.42433">
        <ele>421.59</ele>
        <time>2026-03-24T14:04:31.000Z</time>
      </trkpt>
      <trkpt lat="43.08663" lon="-0.42439">
        <ele>418.69</ele>
        <time>2026-03-24T14:04:36.000Z</time>
      </trkpt>
      <trkpt lat="43.08682" lon="-0.42446">
        <ele>419.51</ele>
        <time>2026-03-24T14:04:43.000Z</time>
      </trkpt>
    </trkseg>
  </trk>
</gpx>